[[{"header":{"parameterUnit":"m.s-1","parameterCategory":1,"la1":30.6,"la2":28.766,"lo1":-90.7593,"lo2":-88.6598,"dy":0.0162,"dx":0.0183,"nx":116,"ny":114,"refTime":"2023-08-01T12:00:00:Z","depth":0,"parameterNumber":2,"parameterNumberName":"U-component_of_WINDS"},"data":[0.0,0.0,0.0,0.0,0.0,0.0,0.0,0.0,0.0,0.0,0.0,0.0,0.0,0.0,0.0,0.0,0.0,0.0,0.0,0.0,0.0,0.0,0.0,0.0,0.0,0.0,0.0,0.0,0.0,0.0,0.0,0.0,0.0,0.0,0.0,0.0,0.0,0.0,0.0,0.0,0.0,0.0,0.0,0.0,0.0,0.0,0.0,0.0,0.0,0.0,0.0,0.0,0.0,0.0,0.0,0.0,0.0,0.0,0.0,0.0,0.0,0.0,0.0,0.0,0.0,0.0,0.0,0.0,0.0,0.0,0.0,0.0,0.0,0.0,0.0,0.0,0.0,0.0,0.0,0.0,0.0,0.0,0.0,0.0,0.0,0.0,0.0,0.0,0.0,0.0,0.0,0.0,0.0,0.0,0.0,0.0,0.0,0.0,0.0,0.0,0.0,0.0,0.0,0.0,0.0,0.0,0.0,0.0,0.0,0.0,0.0,0.0,0.0,0.0,0.0,0.0,0.0,0.0,0.0,0.0,0.0,0.0,0.0,0.0,0.0,0.0,0.0,0.0,0.0,0.0,0.0,0.0,0.0,0.0,0.0,0.0,0.0,0.0,0.0,0.0,0.0,0.0,0.0,0.0,0.0,0.0,0.0,0.0,0.0,0.0,0.0,0.0,0.0,0.0,0.0,0.0,0.0,0.0,0.0,0.0,0.0,0.0,0.0,0.0,0.0,0.0,0.0,0.0,0.0,0.0,0.0,0.0,0.0,0.0,0.0,0.0,0.0,0.0,0.0,0.0,0.0,0.0,0.0,0.0,0.0,0.0,0.0,0.0,0.0,0.0,0.0,0.0,0.0,0.0,0.0,0.0,0.0,0.0,0.0,0.0,0.0,0.0,0.0,0.0,0.0,0.0,0.0,0.0,0.0,0.0,0.0,0.0,0.0,0.0,0.0,0.0,0.0,0.0,0.0,0.0,0.0,0.0,0.0,0.0,0.0,0.0,0.0,0.0,0.0,0.0,0.0,0.0,0.0,0.0,0.0,0.0,0.0,0.0,0.0,0.0,0.0,0.0,0.0,0.0,0.0,0.0,0.0,0.0,0.0,0.0,0.0,0.0,0.0,0.0,0.0,0.0,0.0,0.0,0.0,0.0,0.0,0.0,0.0,0.0,0.0,0.0,0.0,0.0,0.0,0.0,0.0,0.0,0.0,0.0,0.0,0.0,0.0,0.0,0.0,0.0,0.0,0.0,0.0,0.0,0.0,0.0,0.0,0.0,0.0,0.0,0.0,0.0,0.0,0.0,0.0,0.0,0.0,0.0,0.0,0.0,0.0,0.0,0.0,0.0,0.0,0.0,0.0,0.0,0.0,0.0,0.0,0.0,0.0,0.0,0.0,0.0,0.0,0.0,0.0,0.0,0.0,0.0,0.0,0.0,0.0,0.0,0.0,0.0,0.0,0.0,0.0,0.0,0.0,0.0,0.0,0.0,0.0,0.0,0.0,0.0,0.0,0.0,0.0,0.0,0.0,0.0,0.0,0.0,0.0,0.0,0.0,0.0,0.0,0.0,0.0,0.0,0.0,0.0,0.0,0.0,0.0,0.0,0.0,0.0,0.0,0.0,0.0,0.0,0.0,0.0,0.0,0.0,0.0,0.0,0.0,0.0,0.0,0.0,0.0,0.0,0.0,0.0,0.0,0.0,0.0,0.0,0.0,0.0,0.0,0.0,0.0,0.0,0.0,0.0,0.0,0.0,0.0,0.0,0.0,0.0,0.0,0.0,0.0,0.0,0.0,0.0,0.0,0.0,0.0,0.0,0.0,0.0,0.0,0.0,0.0,0.0,0.0,0.0,0.0,0.0,0.0,0.0,0.0,0.0,0.0,0.0,0.0,0.0,0.0,0.0,0.0,0.0,0.0,0.0,0.0,0.0,0.0,0.0,0.0,0.0,0.0,0.0,0.0,0.0,0.0,0.0,0.0,0.0,0.0,0.0,0.0,0.0,0.0,0.0,0.0,0.0,0.0,0.0,0.0,0.0,0.0,0.0,0.0,0.0,0.0,0.0,0.0,0.0,0.0,0.0,0.0,0.0,0.0,0.0,0.0,0.0,0.0,0.0,0.0,0.0,0.0,0.0,0.0,0.0,0.0,0.0,0.0,0.0,0.0,0.0,0.0,0.0,0.0,0.0,0.0,0.0,0.0,0.0,0.0,0.0,0.0,0.0,0.0,0.0,0.0,0.0,0.0,0.0,0.0,0.0,0.0,0.0,0.0,0.0,0.0,0.0,0.0,0.0,0.0,0.0,0.0,0.0,0.0,0.0,0.0,0.0,0.0,0.0,0.0,0.0,0.0,0.0,0.0,0.0,0.0,0.0,0.0,0.0,0.0,0.0,0.0,0.0,0.0,0.0,0.0,0.0,0.0,0.0,0.0,0.0,0.0,0.0,0.0,0.0,0.0,0.0,0.0,0.0,0.0,0.0,0.0,0.0,0.0,0.0,0.0,0.0,0.0,0.0,0.0,0.0,0.0,0.0,0.0,0.0,0.0,0.0,0.0,0.0,0.0,0.0,0.0,0.0,0.0,0.0,0.0,0.0,0.0,0.0,0.0,0.0,0.0,0.0,0.0,0.0,0.0,0.0,0.0,0.0,0.0,0.0,0.0,0.0,0.0,0.0,0.0,0.0,0.0,0.0,0.0,0.0,0.0,0.0,0.0,0.0,0.0,0.0,0.0,0.0,0.0,0.0,0.0,0.0,0.0,0.0,0.0,0.0,0.0,0.0,0.0,0.0,0.0,0.0,0.0,0.0,0.0,0.0,0.0,0.0,0.0,0.0,0.0,0.0,0.0,0.0,0.0,0.0,0.0,0.0,0.0,0.0,0.0,0.0,0.0,0.0,0.0,0.0,0.0,0.0,0.0,0.0,0.0,0.0,0.0,0.0,0.0,0.0,0.0,0.0,0.0,0.0,0.0,0.0,0.0,0.0,0.0,0.0,0.0,0.0,0.0,0.0,0.0,0.0,0.0,0.0,0.0,0.0,0.0,0.0,0.0,0.0,0.0,0.0,0.0,0.0,0.0,0.0,0.0,0.0,0.0,0.0,0.0,0.0,0.0,0.0,0.0,0.0,0.0,0.0,0.0,0.0,0.0,0.0,0.0,0.0,0.0,0.0,0.0,0.0,0.0,0.0,0.0,0.0,0.0,0.0,0.0,0.0,0.0,0.0,0.0,0.0,0.0,0.0,0.0,0.0,0.0,0.0,0.0,0.0,0.0,0.0,0.0,0.0,0.0,0.0,0.0,0.0,0.0,0.0,0.0,0.0,0.0,0.0,0.0,0.0,0.0,0.0,0.0,0.0,0.0,0.0,0.0,0.0,0.0,0.0,0.0,0.0,0.0,0.0,0.0,0.0,0.0,0.0,0.0,0.0,0.0,0.0,0.0,0.0,0.0,0.0,0.0,0.0,0.0,0.0,0.0,0.0,0.0,0.0,0.0,0.0,0.0,0.0,0.0,0.0,0.0,0.0,0.0,0.0,0.0,0.0,0.0,0.0,0.0,0.0,0.0,0.0,0.0,0.0,0.0,0.0,0.0,0.0,0.0,0.0,0.0,0.0,0.0,0.0,0.0,0.0,0.0,0.0,0.0,0.0,0.0,0.0,0.0,0.0,0.0,0.0,0.0,0.0,0.0,0.0,0.0,0.0,0.0,0.0,0.0,0.0,0.0,0.0,0.0,0.0,0.0,0.0,0.0,0.0,0.0,0.0,0.0,0.0,0.0,0.0,0.0,0.0,0.0,0.0,0.0,0.0,0.0,0.0,0.0,0.0,0.0,0.0,0.0,0.0,0.0,0.0,0.0,0.0,0.0,0.0,0.0,0.0,0.0,0.0,0.0,0.0,0.0,0.0,0.0,0.0,0.0,0.0,0.0,0.0,0.0,0.0,0.0,0.0,0.0,0.0,0.0,0.0,0.0,0.0,0.0,0.0,0.0,0.0,0.0,0.0,0.0,0.0,0.0,0.0,0.0,0.0,0.0,0.0,0.0,0.0,0.0,0.0,0.0,0.0,0.0,0.0,0.0,0.0,0.0,0.0,0.0,0.0,0.0,0.0,0.0,0.0,0.0,0.0,0.0,0.0,0.0,0.0,0.0,0.0,0.0,0.0,0.0,0.0,0.0,0.0,0.0,0.0,0.0,0.0,0.0,0.0,0.0,0.0,0.0,0.0,0.0,0.0,0.0,0.0,0.0,0.0,0.0,0.0,0.0,0.0,0.0,0.0,0.0,0.0,0.0,0.0,0.0,0.0,0.0,0.0,0.0,0.0,0.0,0.0,0.0,0.0,0.0,0.0,0.0,0.0,0.0,0.0,0.0,0.0,0.0,0.0,0.0,0.0,0.0,0.0,0.0,0.0,0.0,0.0,0.0,0.0,0.0,0.0,0.0,0.0,0.0,0.0,0.0,0.0,0.0,0.0,0.0,0.0,0.0,0.0,0.0,0.0,0.0,0.0,0.0,0.0,0.0,0.0,0.0,0.0,0.0,0.0,0.0,0.0,0.0,0.0,0.0,0.0,0.0,0.0,0.0,0.0,0.0,0.0,0.0,0.0,0.0,0.0,0.0,0.0,0.0,0.0,0.0,0.0,0.0,0.0,0.0,0.0,0.0,0.0,0.0,0.0,0.0,0.0,0.0,0.0,0.0,0.0,0.0,0.0,0.0,0.0,0.0,0.0,0.0,0.0,0.0,0.0,0.0,0.0,0.0,0.0,0.0,0.0,0.0,0.0,0.0,0.0,0.0,0.0,0.0,0.0,0.0,0.0,0.0,0.0,0.0,0.0,0.0,0.0,0.0,0.0,0.0,0.0,0.0,0.0,0.0,0.0,0.0,0.0,0.0,0.0,0.0,0.0,0.0,0.0,0.0,0.0,0.0,0.0,0.0,0.0,0.0,0.0,0.0,0.0,0.0,0.0,0.0,0.0,0.0,0.0,0.0,0.0,0.0,0.0,0.0,0.0,0.0,0.0,0.0,0.0,0.0,0.0,0.0,0.0,0.0,0.0,0.0,0.0,0.0,0.0,0.0,0.0,0.0,0.0,0.0,0.0,0.0,0.0,0.0,0.0,0.0,0.0,0.0,0.0,0.0,0.0,0.0,0.0,0.0,0.0,0.0,0.0,0.0,0.0,0.0,0.0,0.0,0.0,0.0,0.0,0.0,0.0,0.0,0.0,0.0,0.0,0.0,0.0,0.0,0.0,0.0,0.0,0.0,0.0,0.0,0.0,0.0,0.0,0.0,0.0,0.0,0.0,0.0,0.0,0.0,0.0,0.0,0.0,0.0,0.0,0.0,0.0,0.0,0.0,0.0,0.0,0.0,0.0,0.0,0.0,0.0,0.0,0.0,0.0,0.0,0.0,0.0,0.0,0.0,0.0,0.0,0.0,0.0,0.0,0.0,0.0,0.0,0.0,0.0,0.0,0.0,0.0,0.0,0.0,0.0,0.0,0.0,0.0,0.0,0.0,0.0,0.0,0.0,0.0,0.0,0.0,0.0,0.0,0.0,0.0,0.0,0.0,0.0,0.0,0.0,0.0,0.0,0.0,0.0,0.0,0.0,0.0,0.0,0.0,0.0,0.0,0.0,0.0,0.0,0.0,0.0,0.0,0.0,0.0,0.0,0.0,0.0,0.0,0.0,0.0,0.0,0.0,0.0,0.0,0.0,0.0,0.0,0.0,0.0,0.0,0.0,0.0,0.0,0.0,0.0,0.0,0.0,0.0,0.0,0.0,0.0,0.0,0.0,0.0,0.0,0.0,0.0,0.0,0.0,0.0,0.0,0.0,0.0,0.0,0.0,0.0,0.0,0.0,0.0,0.0,0.0,0.0,0.0,0.0,0.0,0.0,0.0,0.0,0.0,0.0,0.0,0.0,0.0,0.0,0.0,0.0,0.0,0.0,0.0,0.0,0.0,0.0,0.0,0.0,0.0,0.0,0.0,0.0,0.0,0.0,0.0,0.0,0.0,0.0,0.0,0.0,0.0,0.0,0.0,0.0,0.0,0.0,0.0,0.0,0.0,0.0,0.0,0.0,0.0,0.0,0.0,0.0,0.0,0.0,-2.3856,0.0,0.0,0.0,0.0,0.0,0.0,0.0,0.0,0.0,0.0,0.0,0.0,0.0,0.0,0.0,0.0,0.0,0.0,0.0,0.0,0.0,0.0,0.0,0.0,0.0,0.0,0.0,0.0,0.0,0.0,0.0,0.0,0.0,0.0,0.0,0.0,0.0,0.0,0.0,-2.4283,-2.6142,-2.8866,-2.8444,-2.7411,-2.5909,0.0,0.0,0.0,0.0,0.0,0.0,0.0,0.0,0.0,0.0,0.0,0.0,0.0,0.0,0.0,0.0,0.0,0.0,0.0,0.0,0.0,0.0,0.0,0.0,0.0,0.0,0.0,0.0,0.0,0.0,0.0,0.0,0.0,0.0,0.0,0.0,0.0,0.0,0.0,0.0,0.0,0.0,0.0,0.0,0.0,0.0,0.0,0.0,0.0,0.0,0.0,0.0,0.0,0.0,0.0,0.0,0.0,0.0,0.0,0.0,0.0,0.0,0.0,0.0,0.0,0.0,0.0,0.0,0.0,0.0,0.0,-2.587,0.0,0.0,0.0,0.0,0.0,0.0,0.0,0.0,0.0,0.0,0.0,0.0,0.0,0.0,0.0,0.0,0.0,0.0,0.0,0.0,0.0,0.0,0.0,0.0,0.0,0.0,0.0,0.0,0.0,0.0,0.0,0.0,0.0,0.0,0.0,0.0,0.0,-2.5139,-2.6574,-2.9542,-3.3851,-3.3982,-3.2292,-2.9101,-2.8545,0.0,0.0,0.0,0.0,0.0,0.0,0.0,0.0,0.0,0.0,0.0,0.0,0.0,0.0,0.0,0.0,0.0,0.0,0.0,0.0,0.0,0.0,0.0,0.0,0.0,0.0,0.0,0.0,0.0,0.0,0.0,0.0,0.0,0.0,0.0,0.0,0.0,0.0,0.0,0.0,0.0,0.0,0.0,0.0,0.0,0.0,0.0,0.0,0.0,0.0,0.0,0.0,0.0,0.0,0.0,0.0,0.0,0.0,0.0,0.0,0.0,0.0,0.0,0.0,-3.2803,-3.3996,-3.4,-3.4356,-3.482,-3.199,-3.0411,-2.9664,0.0,0.0,0.0,0.0,0.0,0.0,0.0,0.0,0.0,0.0,0.0,0.0,0.0,0.0,0.0,0.0,0.0,0.0,0.0,0.0,0.0,0.0,0.0,0.0,0.0,0.0,0.0,0.0,0.0,0.0,0.0,0.0,0.0,0.0,-2.5185,-2.5955,-2.6866,-3.0603,-3.3494,-3.5597,-3.6291,-3.6686,-3.6704,-3.3851,-3.2558,-3.2306,0.0,0.0,0.0,0.0,0.0,0.0,0.0,0.0,0.0,0.0,0.0,0.0,0.0,0.0,0.0,0.0,0.0,0.0,0.0,0.0,0.0,0.0,0.0,0.0,0.0,0.0,0.0,0.0,0.0,0.0,0.0,0.0,0.0,0.0,0.0,0.0,0.0,0.0,0.0,0.0,0.0,-2.3851,-2.5654,0.0,0.0,0.0,0.0,0.0,0.0,0.0,0.0,0.0,0.0,0.0,0.0,0.0,0.0,-3.3369,-3.569,-3.6593,-3.6091,-3.7605,-3.8044,-3.7535,-3.7535,-3.7593,-3.7665,-3.721,0.0,-3.2297,-2.9729,0.0,0.0,0.0,0.0,0.0,0.0,0.0,0.0,0.0,0.0,0.0,0.0,0.0,0.0,0.0,0.0,0.0,0.0,0.0,0.0,0.0,0.0,0.0,0.0,0.0,0.0,0.0,0.0,0.0,0.0,0.0,0.0,-2.47,-2.6003,-2.7993,-3.0678,-3.4846,-3.726,-3.8012,-3.8788,-3.9639,-4.034,-3.8454,-3.71,-3.6017,-3.3149,0.0,0.0,0.0,0.0,0.0,0.0,0.0,0.0,0.0,0.0,0.0,0.0,0.0,0.0,0.0,0.0,0.0,0.0,0.0,0.0,0.0,0.0,0.0,0.0,0.0,0.0,0.0,0.0,0.0,0.0,0.0,0.0,0.0,0.0,0.0,0.0,0.0,0.0,0.0,-2.4323,-2.7157,-2.7395,-2.8361,-2.8434,0.0,0.0,0.0,0.0,0.0,0.0,0.0,0.0,0.0,-3.4047,-3.5311,-3.6623,-3.7984,-3.8611,-3.9204,-3.9765,-4.0081,-4.0274,-4.0346,-4.0848,-4.0558,-3.9669,-3.9656,-3.8504,-3.6389,-3.3812,-3.1746,-3.0034,0.0,0.0,0.0,0.0,0.0,-2.7717,0.0,0.0,0.0,0.0,0.0,0.0,0.0,0.0,0.0,0.0,0.0,0.0,0.0,0.0,0.0,-3.0062,0.0,0.0,0.0,0.0,0.0,0.0,0.0,-2.4801,-2.5027,-2.7279,-3.0283,-3.4038,-3.7768,-3.9702,-3.9927,-4.0722,-4.1574,-4.2378,-4.1776,-4.0816,-3.9457,-3.6772,-3.435,-3.1996,0.0,0.0,0.0,0.0,0.0,0.0,0.0,0.0,0.0,0.0,0.0,0.0,0.0,0.0,0.0,0.0,0.0,0.0,0.0,0.0,0.0,0.0,0.0,0.0,0.0,0.0,0.0,0.0,0.0,0.0,0.0,0.0,0.0,0.0,0.0,0.0,0.0,-2.6983,-2.9762,-2.9332,-3.1325,-3.1821,0.0,0.0,0.0,0.0,0.0,0.0,-3.2952,-3.4859,-3.662,-3.8138,-3.9464,-4.0662,-4.1757,-4.1326,-4.1513,-4.2305,-4.1706,-4.1725,-4.2325,-4.2776,-4.2415,-4.1409,-4.099,-4.0526,-3.9857,-3.7025,-3.5117,-3.3826,-3.23,-3.1301,-3.0814,-3.1462,-3.1429,-3.1371,0.0,0.0,0.0,0.0,0.0,0.0,0.0,0.0,0.0,0.0,0.0,0.0,0.0,0.0,-2.8376,-3.2451,-3.2202,-3.2448,0.0,0.0,0.0,0.0,-2.5943,-2.5083,-2.5925,-2.9823,-3.3137,-3.5766,-3.835,-3.9984,-4.076,-4.1554,-4.2412,-4.3251,-4.3195,-4.3205,-4.3026,-3.9635,-3.7294,-3.5491,-3.1298,0.0,0.0,0.0,0.0,0.0,0.0,0.0,0.0,0.0,0.0,0.0,0.0,0.0,0.0,0.0,0.0,0.0,0.0,0.0,0.0,0.0,0.0,0.0,0.0,0.0,0.0,0.0,0.0,0.0,0.0,0.0,0.0,0.0,0.0,0.0,0.0,0.0,0.0,-3.2665,-3.4269,0.0,0.0,0.0,0.0,-3.3921,-3.4763,-3.5631,-3.6497,-3.8921,-4.0696,-4.1617,-4.4105,-4.5088,-4.442,-4.5126,-4.4687,-4.3134,-4.3102,-4.3102,-4.3115,-4.2395,-4.2473,-4.3092,-4.1487,-4.1216,-4.1616,-3.8221,-3.6742,-3.6511,-3.5605,-3.5213,-3.5173,-3.5231,-3.5692,-3.6231,0.0,0.0,0.0,0.0,0.0,0.0,0.0,0.0,0.0,0.0,0.0,0.0,0.0,-2.8404,-3.1841,-3.4443,-3.5783,-3.6322,-3.5938,0.0,0.0,0.0,-2.782,-2.7666,-3.0696,-3.2705,-3.494,-3.7437,-3.9934,-4.1041,-4.0835,-4.2239,-4.3337,-4.4089,-4.3056,-4.3221,-4.4108,-4.1782,-3.9595,-3.7429,-3.4338,-3.1132,0.0,0.0,0.0,0.0,0.0,0.0,0.0,0.0,0.0,0.0,0.0,0.0,0.0,0.0,0.0,0.0,0.0,0.0,0.0,0.0,0.0,0.0,0.0,0.0,0.0,0.0,0.0,0.0,0.0,0.0,0.0,0.0,0.0,0.0,0.0,0.0,0.0,-3.5284,-3.6928,0.0,-3.6324,-3.6735,-3.7416,-3.8296,-3.9102,-3.9934,-4.0812,-4.1713,-4.2872,-4.4291,-4.526,-4.5881,-4.6144,-4.5878,-4.5414,-4.4797,-4.4279,-4.4042,-4.4054,-4.4316,-4.402,-4.3305,-4.3266,-4.2763,-4.1912,-4.0681,-3.9812,-3.9166,-3.829,-3.7947,-3.7873,-3.7315,-3.7296,-3.7507,0.0,0.0,0.0,0.0,0.0,0.0,0.0,0.0,0.0,0.0,0.0,-2.3584,-2.6181,-3.0372,-3.4024,-3.6565,-3.7697,-3.8088,-3.7607,0.0,0.0,0.0,-2.9624,-2.9926,-3.3293,-3.4722,-3.6385,-3.83,-4.0503,-4.146,-4.1229,-4.2415,-4.3696,-4.4958,-4.3064,-4.2989,-4.4222,-4.2775,-4.095,-3.8801,-3.6285,-3.3668,-3.0951,0.0,0.0,0.0,0.0,0.0,0.0,0.0,0.0,0.0,0.0,0.0,0.0,0.0,0.0,0.0,0.0,0.0,0.0,0.0,0.0,0.0,0.0,0.0,0.0,0.0,0.0,0.0,0.0,0.0,0.0,0.0,0.0,0.0,0.0,0.0,-3.5669,-3.7037,-3.8936,-3.9699,-3.8544,-3.9738,-4.0808,-4.1405,-4.2189,-4.2777,-4.3085,-4.366,-4.4512,-4.5662,-4.5987,-4.6428,-4.6992,-4.6147,-4.5695,-4.5684,-4.4874,-4.4638,-4.4928,-4.5257,-4.4929,-4.4136,-4.4156,-4.3672,-4.286,-4.257,-4.2053,-4.1361,-4.0181,-3.974,-3.9665,-3.9053,-3.8861,-3.8876,0.0,0.0,0.0,0.0,0.0,0.0,0.0,0.0,0.0,0.0,-2.088,-2.4127,-2.9842,-3.2059,-3.4754,-3.8748,-3.7652,-3.7411,-3.9008,-3.5324,0.0,0.0,-3.1306,-3.1742,-3.3417,-3.5874,-3.753,-3.8338,-3.999,-4.121,-4.1967,-4.2064,-4.3439,-4.5711,-4.3259,-4.268,-4.351,-4.2609,-4.1286,-3.9584,-3.7112,-3.5189,-3.3439,0.0,0.0,0.0,0.0,0.0,0.0,0.0,0.0,0.0,0.0,0.0,0.0,0.0,0.0,0.0,0.0,0.0,0.0,0.0,0.0,0.0,0.0,0.0,0.0,0.0,0.0,0.0,0.0,0.0,0.0,0.0,0.0,0.0,-3.3034,-3.5329,-3.7235,-3.8057,-4.0331,-4.1219,-3.9611,-4.1681,-4.3162,-4.3201,-4.3912,-4.4008,-4.3258,-4.479,-4.572,-4.574,-4.6571,-4.6992,-4.6992,-4.6161,-4.574,-4.574,-4.4951,-4.4994,-4.5727,-4.501,-4.5084,-4.571,-4.4078,-4.3846,-4.4536,-4.3692,-4.3285,-4.3025,-4.1303,-4.0644,-4.0626,-4.055,-4.0539,-4.0607,0.0,0.0,0.0,0.0,0.0,0.0,0.0,0.0,0.0,0.0,-2.2848,-2.6435,-2.932,-3.3771,-3.723,-3.8952,-3.8154,-3.8005,-3.9027,0.0,0.0,0.0,-3.3795,-3.5142,-3.6817,-3.7589,-3.8394,-3.9251,-4.029,-4.0935,-4.1218,-4.1877,-4.2919,-4.4146,-4.2245,-4.1872,-4.2564,-4.105,-4.0193,-3.9747,-3.9088,-3.7522,-3.5353,0.0,0.0,0.0,0.0,0.0,0.0,0.0,0.0,0.0,0.0,0.0,0.0,0.0,0.0,0.0,0.0,0.0,0.0,0.0,0.0,0.0,0.0,0.0,0.0,0.0,0.0,0.0,0.0,0.0,0.0,0.0,0.0,-3.6308,-3.6587,-3.832,-4.0096,-4.1524,-4.2324,-4.2797,-4.2912,-4.3566,-4.4489,-4.5759,-4.547,-4.5413,-4.5836,-4.5719,-4.592,-4.6546,-4.6805,-4.6929,-4.6929,-4.669,-4.6565,-4.6565,-4.64,-4.6433,-4.6645,-4.6479,-4.6187,-4.5768,-4.5304,-4.491,-4.4574,-4.4342,-4.3859,-4.3149,-4.2052,-4.1593,-4.1461,-4.08,-4.0546,-4.0531,0.0,0.0,0.0,0.0,0.0,0.0,0.0,0.0,0.0,0.0,-2.3557,-2.7368,-3.0457,-3.4439,-3.7485,-3.8971,-3.8061,-3.7299,-3.7058,0.0,0.0,0.0,-3.5956,-3.7324,-3.8671,-3.9471,-3.9934,-4.0096,-4.0572,-4.101,-4.1393,-4.1223,-4.2019,-4.351,-4.1491,-4.1238,-4.2222,-4.0511,-3.9811,-3.9856,-3.9889,-3.886,-3.7089,-3.5068,-3.3411,-3.217,-3.2186,-3.1375,-3.0362,-3.0836,0.0,0.0,0.0,0.0,0.0,0.0,0.0,0.0,0.0,0.0,0.0,0.0,0.0,0.0,0.0,0.0,0.0,0.0,0.0,0.0,0.0,0.0,0.0,0.0,-3.7122,-4.0246,-4.0998,-4.1388,-4.2104,-4.3431,-4.3607,-4.3799,-4.4259,-4.4607,-4.5213,-4.6251,-4.5848,-4.5771,-4.629,-4.5865,-4.5825,-4.6336,-4.6355,-4.6355,-4.6355,-4.6721,-4.6721,-4.6374,-4.7171,-4.7339,-4.7012,-4.7411,-4.7139,0.0,-4.6346,-4.5863,-4.5104,-4.5104,-4.4794,0.0,0.0,0.0,0.0,0.0,-4.1651,-4.1578,0.0,0.0,0.0,0.0,0.0,0.0,0.0,0.0,0.0,0.0,0.0,-2.745,-3.2235,-3.4309,-3.6296,-3.8618,-3.7336,-3.5844,0.0,0.0,0.0,-3.6835,-3.7796,-3.8657,-3.9517,-4.1057,-4.1498,-4.0797,-4.0891,-4.1343,-4.2077,-4.0563,-4.1132,-4.3371,-4.1166,-4.1018,-4.2287,-4.0809,-4.0127,-4.0033,-3.9938,-3.9418,-3.8454,-3.6141,-3.5229,-3.5144,-3.5114,-3.4632,-3.405,-3.4157,0.0,0.0,0.0,0.0,0.0,0.0,0.0,0.0,0.0,0.0,0.0,0.0,0.0,0.0,0.0,0.0,0.0,0.0,0.0,0.0,0.0,0.0,0.0,0.0,-4.106,-4.3771,-4.5467,-4.446,-4.3843,-4.4617,-4.4638,-4.4572,-4.4577,-4.5138,-4.5542,-4.5638,-4.5657,-4.5657,-4.5657,0.0,0.0,0.0,0.0,-4.5594,-4.5594,-4.6374,-4.6451,-4.5911,-4.7518,-4.7946,-4.7309,-4.8083,-4.8006,-4.7243,-4.7237,-4.675,-4.5962,-4.5962,-4.5884,-4.5645,-4.3993,-4.3283,-4.3199,-4.3199,-4.3149,0.0,0.0,0.0,0.0,0.0,0.0,0.0,0.0,0.0,0.0,-2.1067,-2.4317,-2.779,-3.1455,-3.3414,-3.5168,-3.7002,-3.5627,-3.4829,0.0,0.0,-3.6612,-3.8544,-3.8971,-3.9535,-4.0344,-4.0808,-4.0966,-4.0797,-4.1441,-4.1901,-4.2171,-4.1191,-4.1432,-4.2617,-4.2136,-4.2098,-4.2393,-4.2041,-4.1529,-4.0885,-4.0184,-3.9418,-3.8586,-3.7451,-3.6616,-3.5979,-3.5341,-3.5006,-3.4985,-3.5687,-3.538,-3.4795,-3.5173,0.0,0.0,0.0,0.0,0.0,0.0,0.0,0.0,0.0,0.0,0.0,0.0,0.0,0.0,0.0,0.0,0.0,0.0,0.0,0.0,-4.136,-4.357,-4.5524,-4.724,-4.7181,-4.7028,-4.7251,-4.6714,-4.632,-4.6311,-4.583,-4.5783,-4.6493,-4.6551,-4.6551,-4.6551,-4.6616,0.0,-4.5614,-4.5594,-4.5594,-4.5594,-4.5768,-4.6478,-4.7696,0.0,0.0,-4.9009,-4.9261,-4.8879,-4.8075,-4.8068,-4.76,-4.6844,-4.6844,-4.6426,-4.571,-4.471,-4.3877,-4.3199,-4.3199,-4.319,-4.3165,0.0,0.0,0.0,0.0,0.0,0.0,0.0,0.0,0.0,0.0,-2.4179,-2.7117,-3.0023,-3.117,-3.2061,-3.2924,-3.1864,0.0,0.0,-3.5448,-3.7093,-3.9168,-4.0152,-4.0641,-4.0659,-4.1571,-4.1849,-4.1404,-4.1798,-4.2038,-4.2134,-4.1343,-4.1222,-4.1751,-4.2571,-4.2949,-4.2949,-4.2986,-4.277,-4.2328,-4.1499,-4.0669,-3.977,-3.8085,-3.7203,-3.6795,-3.6397,-3.6008,-3.5902,-3.7166,-3.7089,-3.6533,-3.6956,-3.6247,-3.5012,0.0,0.0,0.0,0.0,0.0,0.0,0.0,0.0,0.0,0.0,0.0,0.0,0.0,0.0,-3.7534,0.0,0.0,-4.2842,-4.4965,-4.639,-4.7548,-4.843,-4.8868,-4.8821,-4.8083,-4.7261,-4.6772,-4.6791,-4.5975,-4.563,-4.6071,-4.6494,-4.657,-4.6129,-4.6982,-4.6913,-4.5633,-4.6009,-4.6257,-4.6245,-4.6688,-4.7341,-4.8206,-4.9142,-4.9564,-4.9519,-5.0014,-4.9795,-4.8999,-4.8976,-4.8489,-4.7753,-4.7753,-4.7482,-4.7057,-4.667,-4.5952,-4.5092,-4.465,-4.4757,-4.5032,0.0,0.0,0.0,0.0,0.0,0.0,0.0,0.0,0.0,0.0,-2.3528,-2.5864,-2.8356,-2.8399,-2.8461,0.0,0.0,0.0,0.0,-3.5131,-3.7112,-3.9496,-4.1044,-4.1571,-4.0921,-4.2444,-4.2916,-4.2222,-4.2404,-4.2519,-4.2573,-4.1751,-4.16,-4.2033,-4.3404,-4.4083,-4.4234,-4.4128,-4.4001,-4.3768,-4.2782,-4.1992,-4.115,-3.8622,-3.7552,-3.7363,-3.705,-3.6444,-3.6103,-3.8118,-3.8195,-3.7593,-3.8411,-3.8467,-3.7808,-3.5802,-3.5201,0.0,0.0,0.0,0.0,0.0,0.0,0.0,0.0,0.0,-3.5645,-3.8854,-4.0701,-4.2279,-4.395,-4.5086,-4.6233,-4.7578,-4.8525,-4.9148,-4.932,-4.9882,-4.9782,-4.8377,-4.747,-4.6906,-4.6801,-4.5956,-4.5419,-4.5419,-4.6369,-4.6493,-4.5477,-4.728,-4.7577,-4.5913,-4.6682,-4.7151,-4.7146,-4.784,-4.8291,-4.8482,-4.9939,-5.0342,-4.9806,-5.0554,-5.0549,-4.9923,-4.9707,-4.9251,-4.8643,-4.8469,-4.8392,-4.8392,-4.8392,-4.8067,-4.7503,-4.6624,-4.6614,-4.6928,0.0,0.0,0.0,0.0,0.0,0.0,0.0,0.0,0.0,0.0,0.0,0.0,0.0,0.0,0.0,0.0,0.0,0.0,-3.497,-3.671,-3.8441,-4.0207,-4.1208,-4.1683,-4.159,-4.2538,-4.3039,-4.3067,-4.3779,-4.4186,-4.4291,-4.3501,-4.3954,-4.5461,-4.5702,-4.622,-4.683,-4.6119,-4.542,-4.4618,-4.2967,-4.2297,-4.1996,-3.9505,-3.8064,-3.7211,-3.578,-3.4727,-3.4472,-3.7707,-3.7804,-3.7204,-4.0949,-4.116,-3.9938,-3.9671,-3.7514,-3.5113,-3.4674,-3.4761,-3.5293,-3.6672,-3.6937,-3.8275,0.0,0.0,-4.2431,-4.5082,-4.6322,-4.6606,-4.5463,-4.6483,-4.7578,-4.7769,-4.8525,-4.9358,-5.0073,-5.0245,-4.9958,-4.9083,-4.8309,-4.7557,-4.6781,-4.5966,-4.5495,-4.5495,-4.6964,-4.7146,-4.5562,-4.7838,-4.8414,-4.6808,-4.7548,-4.7998,-4.8052,-4.8148,-4.8615,-4.9462,-4.9644,-5.0107,-5.0756,-5.0841,-5.0841,-5.0734,-4.9993,-4.9641,-4.9494,-4.872,-4.8392,-4.8392,-4.8392,-4.8817,-4.9293,-4.843,-4.7676,-4.7081,0.0,0.0,0.0,0.0,0.0,0.0,0.0,0.0,0.0,0.0,0.0,0.0,0.0,0.0,0.0,0.0,0.0,0.0,-3.3199,-3.6248,-3.8284,-3.9032,-4.078,-4.1568,-4.1123,-4.2422,-4.317,-4.3272,-4.3591,-4.3787,-4.3842,-4.3504,-4.3968,-4.5175,-4.6218,-4.7132,-4.7815,-4.7119,-4.6605,-4.6158,-4.4486,-4.3249,-4.2185,-4.0209,-3.8597,-3.7116,-3.5012,-3.4017,0.0,0.0,-3.6901,-3.691,-4.0165,-4.0376,-3.9424,-3.9433,-3.8766,-3.8356,-3.9785,-3.9813,-3.9737,0.0,-4.1634,-4.2644,-4.5132,-4.4906,-4.4919,-4.746,-4.8304,-4.8345,-4.7679,-4.8097,-4.8563,0.0,-4.885,-4.9366,-5.0187,-4.9901,-4.9289,-4.8449,-4.7686,-4.7096,-4.6742,-4.5966,-4.5504,-4.5504,-4.6628,-4.7012,-4.6282,-4.8231,-4.8808,-4.7635,-4.7932,-4.8373,-4.8962,-4.8499,-4.8949,-5.0359,-5.0364,-5.0557,-5.0899,-5.0905,-5.1191,-5.1636,-5.1304,-5.1447,-5.1834,-5.0964,-5.0631,-5.0627,-5.0062,-5.0109,-5.0279,-4.8902,-4.8179,-4.7792,0.0,0.0,0.0,0.0,0.0,0.0,0.0,0.0,0.0,0.0,0.0,0.0,0.0,0.0,0.0,0.0,0.0,0.0,0.0,-3.5286,-3.7528,-3.8014,-4.042,-4.1493,-4.0991,-4.2576,-4.3479,-4.3577,-4.3549,-4.3549,-4.3577,-4.3577,-4.4008,-4.4819,-4.6135,-4.7287,-4.8209,-4.7301,-4.7049,-4.7119,-4.5476,-4.3982,-4.2529,-4.0661,-3.8879,-3.7078,-3.4604,-3.3552,0.0,0.0,-3.56,-3.6055,-3.8584,-3.9127,-3.8965,-3.966,-4.0267,-4.1056,-4.2387,-4.2995,0.0,-4.4281,-4.5308,-4.6195,-4.6454,-4.6355,-4.674,-4.8612,-4.885,-4.856,-4.8102,-4.822,-4.8372,-4.8372,-4.8804,-4.9366,-5.0187,-4.9614,-4.8774,-4.7903,-4.715,-4.6608,-4.6359,-4.5841,-4.5522,-4.5522,-4.6522,-4.7031,-4.6839,-4.8664,-4.9337,-4.849,-4.8682,-4.9152,-4.9856,-4.9277,-4.963,-5.0897,-5.0909,-5.1025,-5.1272,-5.1509,-5.197,-5.2558,-5.2558,-5.2917,-5.344,-5.2821,-5.2458,-5.221,-5.1548,-5.1169,-5.085,-4.9582,-4.8805,-4.8322,0.0,0.0,0.0,0.0,0.0,0.0,0.0,0.0,0.0,0.0,0.0,0.0,0.0,0.0,0.0,0.0,0.0,0.0,0.0,-3.4136,-3.6272,-3.7851,-4.0285,-4.163,-4.1665,-4.3177,-4.4079,-4.4262,-4.4207,-4.4207,-4.4262,-4.4262,-4.4692,-4.5477,-4.5659,-4.6669,-4.8097,-4.6605,-4.643,-4.7051,-4.5305,-4.4195,-4.3302,-4.0768,-3.8807,-3.7078,-3.466,0.0,0.0,0.0,-3.3826,-3.4308,-3.6806,-3.8194,0.0,-4.1783,-4.2463,-4.2085,-4.0536,-4.2473,-4.5136,-4.6019,-4.7469,-4.894,-4.9839,-4.9383,-4.8838,-4.8967,-4.8319,-4.7251,-4.5622,-4.6009,-4.6577,-4.6577,-4.799,-4.9366,-5.0187,-4.9614,-4.8774,-4.7903,-4.715,-4.6378,0.0,-4.5532,-4.5594,-4.5594,-4.7078,-4.7645,-4.6942,-4.9221,-5.0181,-4.9394,-5.0183,-5.0663,-5.0763,-5.0743,-5.0786,-5.0898,-5.0898,-5.1351,-5.2182,-5.3033,-5.344,-5.3459,-5.3459,-5.3478,-5.3498,-5.3459,-5.2964,-5.221,-5.2249,-5.1741,-5.0986,-5.0947,-4.986,-4.8392,0.0,0.0,0.0,0.0,0.0,0.0,0.0,0.0,0.0,0.0,0.0,0.0,0.0,0.0,0.0,0.0,0.0,0.0,0.0,-3.2383,-3.4259,-3.541,-3.8303,-3.9955,-4.01,-4.1655,-4.2537,-4.2637,-4.2608,-4.2608,-4.2637,-4.2637,-4.3114,-4.3998,-4.4623,-4.5571,-4.6647,-4.6172,-4.5792,-4.5442,-4.4321,-4.307,-4.173,-4.0341,-3.8434,-3.6222,0.0,0.0,0.0,0.0,-3.2794,-3.4064,-3.6027,-3.7213,-3.84,-4.0943,-4.2022,-4.2796,-4.4464,-4.6164,-4.7795,-4.9193,-5.0369,-5.1123,-5.0922,-5.0709,-5.038,-4.9797,-4.8658,-4.7411,-4.6202,-4.5369,-4.521,-4.6328,-4.6945,-4.7812,-4.9308,-4.9236,-4.8518,-4.7101,-4.7272,0.0,0.0,0.0,0.0,-4.5594,-4.6645,-4.7395,-4.7673,-4.9048,-4.9933,-5.024,-4.999,-5.0143,-5.0801,-5.0222,-5.0265,-5.0917,-5.1486,-5.1912,-5.2229,-5.3091,-5.3826,-5.4349,-5.4362,-5.4664,-5.5122,-5.4575,-5.3847,-5.3015,-5.2508,-5.1794,-5.1002,-5.0421,-4.9465,-4.8463,0.0,0.0,0.0,0.0,0.0,0.0,0.0,0.0,0.0,0.0,0.0,0.0,0.0,0.0,0.0,0.0,0.0,0.0,0.0,0.0,-3.2562,-3.371,-3.6337,-3.7819,-3.797,-3.9253,-4.0081,-4.0443,-4.0714,-4.0849,-4.0849,-4.118,-4.1488,-4.1824,-4.2725,-4.3651,-4.4481,-4.453,-4.4438,-4.4099,-4.2969,-4.1738,-4.0375,-3.895,-3.7076,0.0,0.0,0.0,0.0,0.0,-3.1364,-3.3486,-3.487,-3.7087,-3.9513,-4.1162,-4.264,-4.4364,-4.7112,-4.8913,-5.0353,-5.1755,-5.2703,-5.3006,-5.1916,-5.1264,-5.0481,-4.8992,-4.722,-4.5565,-4.4369,-4.3066,-4.2927,-4.5229,-4.5838,-4.6819,-4.9194,-4.9236,-4.8632,-4.757,-4.7709,-4.7695,0.0,0.0,0.0,-4.649,-4.7298,-4.8029,-4.8548,-4.9394,-5.0106,-5.0673,-5.0173,-5.0307,-5.1218,-5.0678,-5.0722,-5.1346,-5.2232,-5.2655,-5.2705,-5.3865,-5.4705,-5.5263,-5.5257,-5.5559,-5.5999,-5.549,-5.4742,-5.389,-5.3073,-5.2269,-5.1424,-5.0248,-4.9265,-4.8496,0.0,0.0,0.0,0.0,0.0,0.0,0.0,0.0,0.0,0.0,0.0,0.0,0.0,0.0,0.0,0.0,0.0,0.0,0.0,0.0,0.0,-3.2674,-3.4383,-3.5361,-3.5453,-3.6198,-3.6985,-3.7864,-3.8529,-3.8878,-3.8948,-3.9784,-3.9788,-3.9117,-4.0085,-4.0956,-4.1718,-4.1828,-4.2305,-4.2844,-4.1304,-4.0178,-3.9185,-3.6802,0.0,0.0,0.0,0.0,0.0,-2.8226,-2.9989,-3.2947,-3.3903,-3.8016,-4.2507,-4.2678,-4.4421,-4.6695,-4.849,-5.0694,-5.2741,-5.3613,-5.4408,-5.4518,-5.2807,-5.1169,-4.927,-4.67,-4.422,-4.203,0.0,0.0,-4.0082,-4.3442,-4.4751,-4.6508,-4.9824,-4.9691,-4.9194,0.0,0.0,0.0,0.0,0.0,0.0,-4.8231,0.0,-4.9394,-4.9394,-5.0231,-5.0712,-5.0712,-5.0712,-5.1097,-5.1934,-5.1982,-5.2048,-5.2116,-5.3094,-5.3575,-5.3614,-5.5258,-5.6037,-5.6098,-5.6098,-5.6098,-5.6098,-5.6098,-5.5594,-5.4731,-5.3955,-5.3157,-5.2201,-5.0494,-4.9328,-4.8477,0.0,0.0,0.0,0.0,0.0,0.0,0.0,0.0,0.0,0.0,0.0,0.0,0.0,0.0,0.0,0.0,0.0,0.0,0.0,0.0,0.0,0.0,0.0,0.0,-3.3638,-3.4432,-3.525,-3.613,-3.5733,-3.5857,-3.6484,-3.6124,-3.654,-3.7561,-3.7823,-3.8434,-3.9271,-3.9934,-3.9627,-3.8707,0.0,-3.773,-3.5893,0.0,0.0,0.0,0.0,0.0,0.0,-3.0654,-3.4197,-3.8365,-4.0479,-4.2166,-4.3853,-4.6354,-4.7548,-4.8698,-5.1623,-5.3328,-5.4465,-5.5337,-5.5716,-5.511,-5.2186,-5.0743,-4.8928,-4.515,-4.2946,-4.1184,0.0,0.0,0.0,-4.3538,-4.5159,0.0,-4.9897,-5.0612,0.0,-4.9251,0.0,-5.0165,-4.8909,-4.9444,0.0,0.0,-4.9606,-4.9394,-4.9394,-5.0231,-5.0712,-5.0712,-5.0712,-5.0808,-5.1029,-5.1738,-5.2108,-5.2186,-5.373,-5.4465,-5.4503,-5.5528,-5.6037,-5.6098,-5.6098,-5.6098,-5.6098,-5.6098,-5.5594,-5.4789,-5.4626,-5.3681,-5.2279,-5.1236,-4.9895,-4.858,0.0,0.0,0.0,0.0,0.0,0.0,0.0,0.0,0.0,0.0,0.0,0.0,0.0,0.0,0.0,0.0,0.0,0.0,0.0,0.0,0.0,0.0,0.0,-3.0171,-3.0326,-3.0772,-3.1422,-3.2258,-3.2894,0.0,-3.3953,-3.4253,-3.4722,-3.5329,-3.5387,-3.5683,-3.6197,-3.7054,0.0,0.0,0.0,0.0,0.0,0.0,0.0,0.0,0.0,0.0,0.0,0.0,0.0,-4.1907,-4.4486,-4.5527,-4.6322,-4.8948,-4.9738,-5.0448,-5.3423,-5.5091,-5.6038,-5.6171,-5.619,-5.5129,-5.1035,-4.8908,-4.6612,-4.2394,-4.0275,-3.869,-3.6986,-3.7661,0.0,0.0,0.0,0.0,-4.9749,-5.0926,-5.1116,0.0,-5.104,0.0,-4.9755,-5.0191,-5.0562,0.0,-5.0182,-4.9971,-4.9971,-5.0442,-5.0712,-5.0712,-5.1029,-5.1597,-5.2358,-5.2529,-5.2842,-5.3318,-5.4321,-5.4793,-5.4832,-5.5661,-5.6054,-5.6098,0.0,-5.5901,-5.5536,-5.5552,-5.5056,-5.4231,-5.3938,-5.3236,-5.2265,-5.108,-5.0017,-4.9124,0.0,0.0,0.0,0.0,0.0,0.0,0.0,0.0,0.0,0.0,0.0,0.0,0.0,0.0,0.0,0.0,0.0,0.0,0.0,0.0,0.0,0.0,-2.7406,-2.7603,-2.6925,-2.6907,-2.7297,-2.8096,-3.0169,0.0,0.0,0.0,0.0,0.0,0.0,0.0,0.0,0.0,0.0,0.0,0.0,0.0,0.0,0.0,0.0,0.0,0.0,0.0,-3.6122,-3.8918,-4.165,-4.4285,-4.683,-4.811,-4.9003,-5.0809,-5.1344,-5.1893,-5.4389,-5.6133,-5.7043,-5.6228,-5.5943,-5.4541,-4.9514,-4.6442,-4.343,-3.9109,-3.7138,-3.5673,-3.3956,-3.5226,-3.7347,-3.987,0.0,-4.5365,-4.9682,-5.0989,-5.158,-5.1821,-5.1854,-5.1499,-5.0593,-5.0566,-5.0582,-5.0521,-5.0633,-5.0712,-5.0712,-5.0712,-5.0712,-5.0712,-5.1491,-5.2636,-5.4159,-5.3715,-5.3896,-5.4714,-5.4892,-5.4909,-5.4832,-5.5686,-5.5974,-5.5788,0.0,0.0,-5.4653,-5.482,-5.4396,-5.3531,-5.2848,-5.2492,-5.2212,-5.0781,-5.0101,-4.979,0.0,0.0,0.0,0.0,0.0,0.0,0.0,0.0,0.0,0.0,-2.0073,-1.9635,0.0,0.0,0.0,0.0,0.0,0.0,0.0,0.0,0.0,0.0,-2.6246,-2.6979,-2.6907,-2.6907,-2.7297,-2.8096,-2.7912,0.0,0.0,0.0,0.0,0.0,0.0,0.0,0.0,0.0,0.0,0.0,0.0,0.0,0.0,0.0,0.0,0.0,0.0,-3.2175,-3.4601,-3.8452,-4.2328,-4.6002,-4.855,-4.9424,-4.9948,-5.2363,-5.262,-5.2668,-5.5265,-5.619,-5.619,-5.5337,-5.4636,-5.2817,-4.7776,-4.468,0.0,-3.6634,-3.5372,-3.4679,-3.3097,-3.5239,-3.8087,-4.0745,-4.2609,-4.5497,-5.0551,-5.1339,-5.1974,0.0,-5.3082,-5.2372,-5.1549,-5.0933,0.0,0.0,0.0,0.0,-5.0712,-5.0712,-5.0712,-5.0712,-5.153,-5.2155,-5.25,-5.3809,-5.4568,-5.4785,-5.5462,-5.5451,-5.4832,-5.5653,-5.5291,-5.4111,0.0,0.0,-5.3858,-5.4602,-5.441,-5.3669,-5.354,-5.3036,-5.2368,-5.2076,-5.1086,-4.9887,0.0,0.0,0.0,0.0,0.0,0.0,0.0,0.0,-2.2912,-2.4284,-2.4091,-2.3482,-2.2624,-2.3171,0.0,0.0,0.0,0.0,0.0,0.0,0.0,0.0,0.0,-2.6635,-2.6275,-2.6275,0.0,0.0,0.0,0.0,0.0,0.0,0.0,0.0,0.0,0.0,0.0,0.0,0.0,0.0,0.0,0.0,0.0,0.0,0.0,0.0,0.0,0.0,-3.3936,-3.6864,-4.0262,-4.4035,-4.8324,-5.0266,-5.1194,-5.2409,-5.2817,-5.3259,-5.4969,-5.5725,-5.5839,-5.5007,-5.3513,-5.0937,-4.5969,0.0,0.0,-3.4491,-3.3655,-3.3285,-3.2087,-3.4584,0.0,-3.9057,-4.1076,-4.3923,-4.8156,-4.9886,-5.1212,-5.2533,-5.2817,-5.2575,0.0,0.0,0.0,0.0,0.0,0.0,-5.0712,-5.0712,-5.1097,-5.1972,-5.1559,-5.2001,-5.3387,-5.3818,-5.4499,-5.5432,-5.5818,-5.5799,-5.5432,-5.5863,-5.5377,-5.4278,-5.5107,0.0,-5.2962,-5.3402,-5.3093,-5.2344,-5.2395,-5.2142,-5.1785,-5.1783,-5.127,-5.0575,0.0,0.0,0.0,0.0,0.0,0.0,0.0,-2.2259,-2.4284,-2.7052,-2.8069,-2.7734,-2.5597,-2.5003,-2.4762,0.0,0.0,0.0,0.0,0.0,0.0,0.0,0.0,0.0,-2.5466,0.0,0.0,0.0,0.0,0.0,0.0,0.0,0.0,0.0,0.0,0.0,0.0,0.0,0.0,0.0,0.0,0.0,0.0,0.0,0.0,0.0,0.0,0.0,-3.296,-3.5275,-3.7698,-4.0666,-4.6027,-4.922,-5.1083,-5.1437,-5.2178,-5.3073,-5.4126,-5.488,-5.5163,-5.4368,-5.2386,-4.9348,-4.4417,-4.0178,0.0,-3.308,-3.2291,-3.207,-3.1553,-3.3644,-3.5951,0.0,-3.9252,-4.1873,-4.593,-4.8441,-5.0304,0.0,-5.2422,0.0,-5.1775,0.0,0.0,0.0,0.0,0.0,-5.0702,-5.0712,-5.1337,-5.2636,-5.1761,-5.226,-5.4322,-5.4097,-5.4643,-5.6012,-5.6012,-5.5818,-5.5459,-5.5714,-5.5168,-5.4034,-5.4466,0.0,0.0,-5.2292,-5.1884,-5.1127,-5.1171,-5.1202,-5.1194,-5.1203,-5.1194,-5.1185,0.0,0.0,0.0,0.0,0.0,0.0,0.0,-2.3168,-2.543,-2.8653,-2.9765,-2.9913,-2.895,-2.7473,-2.6505,0.0,0.0,0.0,0.0,0.0,0.0,0.0,0.0,0.0,0.0,0.0,0.0,0.0,0.0,0.0,0.0,0.0,0.0,0.0,0.0,0.0,0.0,0.0,0.0,0.0,0.0,0.0,0.0,0.0,0.0,0.0,0.0,0.0,0.0,0.0,0.0,-3.6897,-4.0478,-4.4322,-4.7792,-4.9371,0.0,0.0,-5.3073,-5.356,-5.3447,-5.2635,-5.1107,-4.8485,-4.3479,0.0,-3.6371,-3.3072,-3.1822,-3.1516,-3.2179,-3.2539,-3.4045,-3.795,-3.8121,-4.0022,-4.6556,-4.8369,-4.9922,-5.2379,0.0,0.0,0.0,0.0,0.0,0.0,0.0,0.0,0.0,-5.0757,-5.0861,-5.1015,-5.241,-5.3267,-5.3518,-5.5011,-5.5849,-5.6012,-5.6012,-5.5197,-5.3759,-5.456,-5.3646,-5.152,0.0,0.0,0.0,-5.2078,-5.1915,-5.1196,-5.1196,-5.12,-5.1208,-5.1189,-5.1205,-5.1094,0.0,0.0,0.0,0.0,0.0,0.0,0.0,-2.1791,-2.4264,-2.8093,-2.9299,-3.0068,-3.0683,-2.886,-2.7133,0.0,0.0,0.0,0.0,0.0,0.0,0.0,0.0,0.0,0.0,0.0,0.0,0.0,0.0,0.0,0.0,0.0,0.0,0.0,0.0,0.0,0.0,0.0,0.0,0.0,0.0,0.0,0.0,0.0,0.0,0.0,0.0,0.0,0.0,0.0,0.0,0.0,-3.6375,-3.9139,0.0,0.0,-4.8198,-4.9608,-5.1312,-5.2137,-5.229,-5.1497,-4.9672,-4.7038,-4.3056,0.0,-3.6325,-3.3072,-3.2155,-3.1879,-3.1715,-3.2075,-3.3278,-3.5969,-3.6121,0.0,-4.0986,-4.3588,-4.6092,-4.8697,-4.9958,0.0,0.0,0.0,0.0,0.0,0.0,0.0,0.0,-5.1361,-5.1052,-5.1564,-5.1782,-5.2136,-5.2619,-5.3859,-5.4503,-5.4503,-5.5026,-5.4655,-5.3515,-5.3863,-5.2945,-5.1166,0.0,0.0,0.0,-5.1313,-5.1494,-5.1202,-5.1206,-5.1197,-5.1194,-5.1249,-5.1264,-5.1219,0.0,0.0,0.0,0.0,0.0,-1.6248,-1.8985,-2.0628,-2.3043,-2.7193,-2.8282,-2.9264,-3.0813,-2.8825,-2.7062,-2.6307,0.0,0.0,0.0,0.0,0.0,0.0,0.0,0.0,0.0,0.0,-2.6801,-2.6821,-2.6801,0.0,0.0,0.0,0.0,0.0,0.0,0.0,0.0,0.0,0.0,0.0,0.0,0.0,0.0,0.0,0.0,0.0,0.0,0.0,0.0,0.0,0.0,0.0,-3.3444,-3.507,-3.7692,0.0,-4.5546,-4.7474,-4.9402,-5.0528,-5.1054,-5.0767,-4.8833,-4.6129,0.0,0.0,-3.6023,-3.327,-3.2137,-3.1644,-3.1576,-3.1612,-3.236,-3.4548,-3.4472,-3.5116,-3.7849,-4.0553,-4.3109,0.0,0.0,0.0,0.0,0.0,0.0,0.0,0.0,0.0,0.0,-5.2254,-5.1762,-5.2121,-5.1576,-5.1418,-5.1747,-5.3172,-5.3633,-5.313,-5.4252,-5.4083,-5.2755,-5.2755,-5.2024,-5.0758,0.0,0.0,0.0,-5.0678,-5.0975,-5.12,-5.1203,-5.12,-5.124,-5.1278,-5.1295,-5.13,0.0,0.0,0.0,0.0,0.0,0.0,0.0,-2.014,-2.22,-2.6367,-2.6925,-2.7537,-2.9146,-2.7106,-2.6254,-2.7851,0.0,0.0,0.0,0.0,0.0,0.0,0.0,0.0,0.0,0.0,-2.6821,-2.6907,-2.6821,-2.6821,-2.6907,-2.6907,0.0,0.0,0.0,0.0,0.0,0.0,0.0,0.0,0.0,0.0,0.0,0.0,0.0,0.0,0.0,0.0,0.0,0.0,0.0,0.0,0.0,-3.2534,-3.4141,-3.918,-4.2403,-4.4886,-4.7435,-4.8709,-4.9549,-5.0469,-4.8833,-4.6129,-4.2774,-3.8843,-3.5429,-3.3736,-3.1543,-3.0433,-3.2089,-3.1037,-3.1014,-3.4358,-3.3505,0.0,-3.9266,-4.0802,0.0,0.0,0.0,0.0,0.0,0.0,0.0,0.0,0.0,0.0,0.0,-5.3453,-5.3072,-5.2221,-5.2182,-5.1776,-5.0917,-5.3498,-5.3923,-5.2229,-5.3962,-5.346,-5.1035,-5.1035,-5.0617,0.0,0.0,0.0,0.0,-5.027,-5.0428,-5.1189,-5.1194,-5.1245,-5.131,-5.131,-5.1304,-5.13,0.0,0.0,0.0,0.0,0.0,0.0,0.0,-1.6681,-1.8002,-2.2123,-2.2693,-2.3991,-2.7305,-2.5968,-2.5968,-2.8724,0.0,0.0,0.0,0.0,0.0,0.0,0.0,0.0,0.0,0.0,-2.8773,-2.928,-2.9865,-2.9887,-2.9371,-2.9413,-2.882,0.0,0.0,0.0,0.0,0.0,0.0,0.0,0.0,0.0,0.0,0.0,0.0,0.0,0.0,0.0,0.0,0.0,0.0,0.0,0.0,0.0,0.0,-3.3964,-3.7219,-4.0547,-4.251,-4.3236,-4.3362,-4.3182,-4.2519,-4.121,-3.8469,-3.6828,-3.5104,-3.2324,-3.1177,-3.0478,-2.9909,-2.9376,-2.9939,-3.2749,-3.2748,0.0,0.0,0.0,0.0,0.0,0.0,0.0,0.0,0.0,0.0,0.0,0.0,0.0,0.0,0.0,-5.3981,-5.3111,-5.2519,-5.1776,-5.0917,-5.178,-5.1331,-4.9609,-5.0811,-5.0963,-5.0183,-5.0183,0.0,0.0,0.0,0.0,0.0,-4.9768,-5.0056,-5.0319,-5.0359,-5.0752,-5.1233,-5.0622,-5.079,-5.13,0.0,0.0,0.0,0.0,0.0,0.0,0.0,-1.4668,-1.5733,-1.889,-1.9914,-2.1558,-2.4715,-2.4426,-2.5086,-2.7761,0.0,0.0,0.0,0.0,0.0,0.0,0.0,0.0,0.0,-2.8429,-2.9502,-2.9958,-3.0816,-3.0987,-3.0506,-3.0869,-3.0315,-2.8984,-2.8717,0.0,0.0,0.0,0.0,0.0,0.0,0.0,-3.0238,0.0,0.0,0.0,0.0,0.0,0.0,0.0,0.0,0.0,0.0,0.0,0.0,0.0,-3.2784,-3.5513,-3.844,-3.9488,-3.9733,-3.9577,-3.9107,0.0,-3.631,-3.5165,-3.3899,-3.1844,-3.0932,-3.0207,-2.9206,-2.8785,-2.9233,-3.1161,-3.1471,0.0,0.0,0.0,0.0,0.0,0.0,0.0,0.0,0.0,0.0,0.0,0.0,0.0,0.0,0.0,-5.4058,-5.3517,-5.2655,-5.1475,-4.9973,-5.0654,-4.9979,-4.7966,-4.951,-4.9931,-4.9304,-4.9304,0.0,0.0,0.0,0.0,0.0,-4.9453,-4.9805,-5.0408,-5.011,-5.0536,-5.1226,-5.0693,-5.0833,-5.13,0.0,0.0,0.0,0.0,0.0,0.0,0.0,0.0,0.0,-1.6626,-1.8337,-2.004,-2.1657,-2.2601,-2.3786,-2.5457,0.0,0.0,0.0,0.0,0.0,0.0,0.0,0.0,-2.679,-2.8556,-2.9447,-2.9355,-3.0409,-3.0906,-3.0876,-3.1741,-3.1648,-3.0721,-2.9922,-2.9021,-2.8087,-2.8087,-2.8592,-2.9386,-2.9323,-2.9334,0.0,0.0,0.0,0.0,0.0,0.0,0.0,0.0,0.0,0.0,0.0,0.0,0.0,0.0,0.0,0.0,0.0,-3.6777,-3.7673,-3.8421,-3.7533,-3.6273,-3.5465,-3.3494,0.0,-3.1767,-3.0612,-2.9633,-2.9689,-2.9099,-2.895,-3.0074,-3.0213,0.0,0.0,-3.692,0.0,0.0,0.0,0.0,0.0,0.0,0.0,0.0,0.0,0.0,0.0,0.0,-5.3467,-5.3409,-5.2635,-5.1045,-4.8597,-5.0126,-4.9702,-4.732,-4.9705,-5.0015,-4.8508,-4.8514,0.0,0.0,0.0,0.0,0.0,-4.9264,-4.9591,-5.1038,-5.0239,-5.0486,-5.13,-5.1222,-5.1242,-5.1304,0.0,0.0,0.0,0.0,0.0,0.0,0.0,0.0,0.0,0.0,-1.6645,-1.832,-1.9984,-2.1439,-2.2951,0.0,0.0,0.0,0.0,0.0,0.0,0.0,0.0,0.0,-2.7669,-2.9998,-3.1117,-3.0966,-3.3833,-3.4903,-3.4278,-3.5138,-3.4754,-3.3275,-3.18,-3.035,-2.8987,-2.8944,-2.9077,-2.9323,-2.9251,-2.9262,0.0,0.0,0.0,0.0,-2.9622,-2.9566,0.0,0.0,0.0,0.0,0.0,0.0,0.0,0.0,-2.753,-2.781,-2.8925,0.0,-3.053,-3.0111,-3.0225,-3.0217,0.0,-2.9223,-2.9092,-2.8472,-2.8573,-2.8993,-2.9652,-2.9118,-2.9715,-3.3166,0.0,0.0,0.0,0.0,0.0,0.0,0.0,0.0,0.0,0.0,0.0,0.0,0.0,0.0,0.0,0.0,-5.322,-5.2603,-5.238,-5.1633,-5.0333,-5.0167,-4.9439,-4.8206,-4.8844,-4.8971,-4.8588,-4.8572,0.0,0.0,0.0,0.0,-4.9186,-4.8818,-4.8924,-4.9305,-4.9146,-4.9991,-5.1222,-5.056,-5.0727,-5.1307,0.0,0.0,0.0,0.0,0.0,0.0,0.0,0.0,0.0,0.0,0.0,0.0,0.0,0.0,0.0,0.0,0.0,0.0,0.0,0.0,0.0,0.0,0.0,-2.7023,-2.7395,-2.9553,-3.0927,-3.1501,-3.3815,-3.5087,-3.5369,-3.6276,-3.58,-3.4105,-3.2043,-3.0428,-2.9302,-2.9197,-2.9207,-2.9302,-2.9229,0.0,0.0,0.0,0.0,0.0,-2.8792,-2.856,0.0,-2.8171,-2.845,-2.8589,0.0,0.0,0.0,0.0,-2.6368,-2.6405,-2.6358,-2.7876,-2.9344,-2.8875,-2.9139,-2.943,-2.8914,-2.8586,-2.8276,-2.7834,-2.8442,-2.9211,-2.9708,-2.977,-3.0748,0.0,-3.4264,0.0,0.0,0.0,0.0,0.0,0.0,0.0,0.0,0.0,0.0,0.0,0.0,0.0,0.0,0.0,-5.2159,-5.1719,-5.1731,-5.1317,-5.04,-4.9996,-4.9388,-4.8547,-4.899,-4.9202,-4.9207,-4.9199,0.0,0.0,0.0,0.0,-4.9187,-4.8413,-4.8358,-4.8713,-4.8355,-4.9243,-5.0688,-5.0221,-5.0605,-5.1343,0.0,0.0,0.0,0.0,0.0,0.0,0.0,0.0,0.0,0.0,0.0,0.0,0.0,0.0,0.0,0.0,0.0,0.0,0.0,0.0,0.0,0.0,0.0,-2.6951,-2.7083,-2.855,-3.0109,-3.1704,-3.2884,-3.4234,-3.5692,-3.675,-3.6146,-3.4049,-3.1651,-3.0109,-2.9291,-2.9175,-2.9186,-2.9291,-2.9211,0.0,0.0,0.0,0.0,0.0,0.0,0.0,0.0,-2.7605,-2.793,-2.7938,-2.6935,0.0,0.0,0.0,0.0,0.0,-2.5819,-2.8287,-3.0653,-3.0085,-3.0419,-3.078,-3.0328,-2.9383,-2.8557,-2.8426,-2.9194,-2.9992,-3.0311,-3.11,0.0,0.0,0.0,0.0,0.0,0.0,0.0,0.0,0.0,0.0,0.0,0.0,0.0,0.0,0.0,0.0,0.0,0.0,0.0,-5.0639,-5.0687,-5.0423,-4.982,-4.9931,-4.9652,-4.8982,-4.9745,-5.0023,-4.9906,-4.9776,-5.0106,0.0,0.0,0.0,-4.9484,-4.8003,-4.7872,-4.8534,-4.7797,-4.8568,-5.0098,-5.0102,-5.0641,-5.14,0.0,0.0,0.0,0.0,0.0,0.0,0.0,0.0,0.0,0.0,0.0,0.0,0.0,0.0,0.0,0.0,0.0,0.0,0.0,0.0,0.0,0.0,-2.6395,-2.7528,-2.8865,-2.9225,-3.0435,-3.2601,-3.4958,-3.6533,-3.7377,-3.8942,-3.7646,-3.3937,-3.2188,-3.0634,-2.9302,-2.9218,-2.9207,-2.92,-2.92,0.0,0.0,0.0,0.0,0.0,0.0,0.0,0.0,-2.62,-2.6942,-2.7724,-2.5568,0.0,0.0,0.0,0.0,0.0,-2.6349,-2.8676,-3.0049,-2.7242,-2.8708,-3.0254,-2.8156,-2.8568,-2.9223,-2.8538,-2.9673,-3.1243,-3.2674,-3.3695,-3.5322,0.0,0.0,0.0,0.0,0.0,0.0,0.0,0.0,0.0,0.0,0.0,0.0,0.0,0.0,0.0,0.0,0.0,0.0,-4.8968,-4.8929,-4.9219,-4.9876,-5.057,-5.0849,-5.0719,-5.0918,-5.06,-4.9887,-4.9192,-4.8929,0.0,0.0,-4.7672,-4.7774,-4.7501,-4.7521,-4.77,-4.7557,-4.8578,-5.0102,-5.0098,-5.0642,-5.1399,0.0,0.0,0.0,0.0,0.0,0.0,0.0,0.0,0.0,0.0,0.0,0.0,0.0,0.0,0.0,0.0,0.0,0.0,0.0,0.0,0.0,-2.6216,-2.7081,-2.8103,-2.9265,-2.976,-3.1358,-3.4151,-3.5434,-3.6856,-3.8395,-3.7863,-3.6065,-3.324,-3.1623,-3.0252,-2.9186,-2.913,-2.91,-2.9163,0.0,0.0,0.0,0.0,0.0,0.0,0.0,0.0,0.0,0.0,-2.5513,-2.5968,-2.486,0.0,0.0,0.0,0.0,0.0,-2.541,-2.7438,-2.8985,-2.7466,-2.9969,-3.2481,-3.1298,-3.1368,-3.1549,-3.1175,-3.2087,-3.332,0.0,0.0,-3.7816,-4.0764,0.0,0.0,0.0,0.0,0.0,0.0,0.0,0.0,0.0,0.0,0.0,0.0,0.0,0.0,0.0,0.0,0.0,0.0,-4.8545,-4.899,-4.9887,-5.0278,-5.0699,-5.1139,-5.0709,-5.0292,-4.987,-4.9071,-4.8672,-4.8604,0.0,-4.7408,-4.7369,-4.6933,-4.6777,-4.6797,-4.6804,-4.7577,-4.8803,-4.9752,-5.0352,-5.0695,0.0,0.0,0.0,0.0,0.0,0.0,0.0,0.0,0.0,0.0,0.0,0.0,0.0,0.0,0.0,0.0,0.0,0.0,0.0,0.0,-2.5475,-2.6692,-2.7598,-2.8639,-2.9817,-3.048,-3.229,-3.5322,-3.5625,-3.6756,-3.8617,-3.6176,-3.4201,-3.2618,-3.0992,-2.9844,-2.9112,-2.9044,-2.9044,-2.9089,0.0,0.0,0.0,0.0,0.0,0.0,0.0,0.0,0.0,0.0,0.0,0.0,0.0,0.0,0.0,-2.4685,-2.4369,-2.4332,-2.4917,-2.633,-2.7774,-2.8332,-3.108,-3.378,-3.4281,-3.4005,-3.3811,-3.44,-3.5191,-3.5919,0.0,-3.8064,0.0,-4.2321,0.0,0.0,0.0,0.0,0.0,0.0,0.0,0.0,0.0,0.0,0.0,0.0,0.0,0.0,0.0,0.0,0.0,0.0,-4.7986,-4.8436,-4.931,-4.9515,-5.0151,-5.1183,-5.0512,-5.01,-4.9867,-4.9061,-4.8588,-4.8355,-4.7486,-4.7124,-4.7065,-4.6449,-4.6193,-4.6206,-4.6212,-4.6757,-4.7713,-4.9226,-4.9801,-4.9807,0.0,0.0,0.0,0.0,0.0,0.0,0.0,0.0,0.0,0.0,0.0,0.0,0.0,0.0,0.0,0.0,0.0,0.0,0.0,0.0,-2.4357,-2.6776,-2.7599,-2.9084,-3.1376,-3.1614,-3.2917,-3.5395,-3.6155,-3.6939,-3.7646,-3.5106,-3.3474,-3.2643,-3.0962,-2.9821,-2.9189,-2.9112,-2.9108,-2.9089,-2.9089,0.0,0.0,0.0,0.0,0.0,0.0,0.0,0.0,0.0,0.0,0.0,0.0,0.0,-2.4574,-2.4518,-2.3925,-2.3814,-2.6172,-2.6422,-2.6516,-2.8751,-3.02,-3.1653,-3.3889,-3.4405,-3.5061,-3.7367,-3.8589,-3.9007,0.0,-4.0256,-4.2346,0.0,0.0,0.0,0.0,0.0,0.0,0.0,0.0,0.0,0.0,0.0,0.0,0.0,0.0,0.0,0.0,0.0,0.0,0.0,0.0,-4.6698,-4.7568,-4.839,-4.96,-5.1202,-5.1139,-5.0683,-4.9867,-4.908,-4.826,-4.7443,-4.6633,-4.6293,-4.6274,-4.6216,-4.6203,-4.6206,-4.6272,-4.6835,-4.7703,-4.8573,-4.8888,-4.8891,0.0,0.0,0.0,0.0,0.0,0.0,0.0,0.0,0.0,0.0,0.0,0.0,0.0,0.0,0.0,0.0,0.0,0.0,0.0,0.0,-2.421,-2.6677,-2.7567,-2.8648,-3.0072,-3.1661,-3.3691,-3.6149,-3.6965,-3.7479,-3.7678,-3.5158,-3.3828,-3.3397,-3.1219,-3.0373,-3.0495,-2.9474,-2.9327,-2.9749,-2.9253,-2.9028,0.0,0.0,0.0,0.0,0.0,0.0,0.0,0.0,-2.2621,-2.2417,-2.2203,-2.3209,-2.4403,-2.3909,-2.3529,-2.3473,-2.4439,-2.5213,-2.6079,-2.7493,-2.8908,-3.0737,-3.3769,-3.567,-3.7377,-3.9396,-4.049,-4.1029,0.0,0.0,-4.2554,0.0,0.0,0.0,0.0,0.0,0.0,0.0,0.0,0.0,0.0,0.0,0.0,0.0,0.0,0.0,0.0,0.0,0.0,0.0,0.0,-4.7588,-4.9002,-4.9343,-4.9819,-5.0461,-4.9902,-4.9464,-4.9114,-4.7766,-4.6964,-4.6633,-4.6329,-4.6203,-4.6196,-4.6203,-4.6215,-4.6253,-4.6288,-4.6827,-4.7634,-4.793,-4.8055,-4.8061,0.0,0.0,0.0,0.0,0.0,0.0,0.0,0.0,0.0,0.0,0.0,0.0,0.0,0.0,0.0,0.0,0.0,0.0,-2.2196,-2.2568,-2.373,-2.588,-2.7049,-2.8024,-2.8833,-3.1013,-3.3099,-3.5056,-3.5853,-3.6247,-3.6184,-3.4485,-3.3671,-3.3528,-3.1562,-3.0955,-3.133,-2.9701,-2.934,-2.9769,-2.923,-2.9028,0.0,0.0,0.0,0.0,0.0,0.0,0.0,0.0,-2.1904,-2.1554,-2.1504,-2.2505,-2.3651,-2.3361,-2.3454,-2.3611,-2.3367,-2.4309,-2.5613,-2.6702,-2.822,-3.0356,-3.3721,-3.6206,-3.8515,-4.104,-4.1811,-4.1976,-4.1814,0.0,0.0,0.0,0.0,0.0,0.0,0.0,0.0,0.0,0.0,0.0,0.0,0.0,0.0,0.0,0.0,0.0,0.0,0.0,0.0,0.0,0.0,0.0,-4.9575,-4.9852,-4.9876,-4.9619,-4.9028,-4.8588,-4.8273,-4.7124,-4.6452,-4.6206,-4.6206,-4.6193,-4.6206,-4.6215,-4.6253,-4.629,-4.6302,-4.6659,-4.7191,-4.7195,-4.7182,-4.7187,0.0,0.0,0.0,0.0,0.0,0.0,0.0,0.0,0.0,0.0,0.0,0.0,0.0,0.0,0.0,0.0,0.0,0.0,-2.0654,-2.1515,-2.2706,-2.4318,-2.5996,-2.7278,-2.8059,-2.9649,-3.0876,-3.1691,-3.2506,-3.2859,-3.281,-3.2804,-3.2798,-3.2761,-3.1888,-3.1507,-3.1384,-2.977,-2.9062,-2.9023,-2.9085,-2.9062,-2.8822,0.0,0.0,0.0,0.0,0.0,0.0,0.0,-2.1936,-2.0912,-2.2625,-2.2632,-2.2176,-2.2953,-2.3795,-2.4304,-2.3508,-2.3939,-2.5018,-2.669,-2.84,-3.0506,-3.3768,-3.5764,-3.8103,-4.2309,-4.26,-4.1858,-4.1055,-4.1668,0.0,0.0,0.0,0.0,0.0,0.0,0.0,0.0,0.0,0.0,0.0,0.0,0.0,0.0,0.0,0.0,0.0,0.0,0.0,0.0,0.0,0.0,-4.8682,-4.9559,-4.9586,-4.8787,-4.8787,-4.8339,-4.7497,-4.7482,-4.7025,-4.6206,-4.6206,-4.6206,-4.6206,-4.6275,-4.6292,-4.6302,-4.6309,-4.6293,-4.6295,-4.6305,-4.6308,-4.6308,0.0,0.0,0.0,0.0,0.0,0.0,0.0,0.0,0.0,0.0,0.0,0.0,0.0,0.0,0.0,0.0,0.0,0.0,-2.1381,-2.1762,-2.2397,-2.3434,-2.5587,-2.6614,-2.6272,-2.7288,-2.9103,-3.1691,-3.1932,-3.2351,-3.2949,-3.2883,-3.2847,-3.2798,-3.2539,-3.2054,-3.1311,-2.9701,-2.934,-2.9806,-2.9248,-2.9017,-2.8895,0.0,0.0,0.0,0.0,0.0,0.0,0.0,0.0,0.0,-2.1398,-2.2444,-2.3402,-2.1948,-2.2495,-2.3432,-2.2651,-2.3923,-2.5834,-2.7466,-3.0912,-3.4319,-3.5911,-3.7072,-3.8696,-4.1787,-4.1801,-4.1211,-4.1083,0.0,0.0,0.0,0.0,0.0,0.0,0.0,0.0,0.0,0.0,0.0,0.0,0.0,0.0,0.0,0.0,0.0,0.0,0.0,0.0,0.0,0.0,0.0,-4.876,-4.9037,-4.8729,-4.7891,-4.7891,-4.7754,-4.7482,-4.6872,-4.6433,-4.6206,-4.6195,-4.6226,-4.6275,-4.629,-4.6302,-4.6309,-4.6293,-4.6299,-4.6305,-4.6306,-4.6308,-4.6211,0.0,0.0,0.0,0.0,0.0,0.0,0.0,0.0,0.0,0.0,0.0,0.0,0.0,0.0,0.0,0.0,0.0,0.0,0.0,-2.2196,-2.2759,-2.351,-2.529,-2.6324,-2.6442,-2.662,-2.7693,-2.9717,-2.9743,-3.0194,-3.1091,-3.2349,-3.2919,-3.292,-3.3543,-3.2976,-3.1433,-3.012,-2.9442,-2.9272,-2.9106,-2.8826,-2.8436,0.0,0.0,0.0,0.0,0.0,0.0,0.0,0.0,0.0,-2.1263,-2.1957,-2.271,-2.1606,-2.2439,-2.3692,-2.3558,-2.5369,-2.7746,-2.9705,-3.3007,-3.618,-3.7689,-3.8658,-3.9683,0.0,-4.1237,-4.0853,-4.0585,0.0,0.0,0.0,0.0,0.0,0.0,0.0,0.0,0.0,0.0,0.0,0.0,0.0,0.0,0.0,0.0,0.0,0.0,0.0,0.0,0.0,0.0,0.0,-4.8787,-4.8806,-4.8358,-4.7501,-4.7501,-4.7313,-4.6969,-4.6433,-4.6212,-4.6242,-4.6231,-4.6262,-4.6292,-4.6302,-4.6308,-4.6294,-4.6299,-4.6303,-4.6307,-4.6308,-4.6074,-4.5701,0.0,0.0,0.0,0.0,0.0,0.0,0.0,0.0,0.0,0.0,0.0,0.0,0.0,0.0,0.0,0.0,0.0,0.0,0.0,0.0,-2.3395,-2.4063,-2.5189,-2.6463,-2.7874,-2.7106,-2.6663,-2.6593,-2.6668,-2.7162,-2.8172,-3.1314,-3.2785,-3.2841,-3.4377,-3.3673,-3.1279,-3.0357,-2.9071,-2.7735,-2.8482,-2.8283,-2.7486,-2.6686,0.0,0.0,0.0,0.0,0.0,0.0,0.0,0.0,-2.1785,-2.133,-2.0931,-2.1575,-2.3007,-2.4547,-2.5364,-2.7447,-3.0015,-3.2649,-3.4776,-3.6843,-3.9176,-4.0215,-4.0685,-4.0697,0.0,-4.0637,0.0,0.0,0.0,0.0,0.0,0.0,0.0,0.0,0.0,0.0,0.0,0.0,0.0,0.0,0.0,0.0,0.0,0.0,0.0,0.0,0.0,0.0,0.0,0.0,-4.844,-4.844,-4.8089,0.0,-4.7372,-4.6973,-4.6209,-4.6206,-4.6242,-4.6306,-4.6306,-4.6292,-4.6302,-4.629,-4.6294,-4.6296,-4.6305,-4.6307,-4.6288,-4.621,-4.568,-4.4973,0.0,0.0,0.0,0.0,0.0,0.0,0.0,0.0,0.0,0.0,0.0,0.0,0.0,0.0,0.0,0.0,0.0,0.0,0.0,0.0,-2.2528,-2.3298,-2.5894,-2.7503,-2.7882,-2.7069,-2.6334,-2.5757,-2.5836,-2.6625,-2.8135,-3.0163,-3.1091,-3.1084,-3.2001,-3.1036,-2.8625,-2.7111,-2.6262,-2.5948,-2.6131,-2.6076,-2.5817,-2.5026,-2.4612,0.0,0.0,0.0,0.0,0.0,0.0,0.0,-2.1013,-2.1158,-2.1359,-2.034,-2.1631,-2.3608,-2.4511,-2.6581,-2.9395,-3.3191,-3.6458,-3.9046,-4.0259,-4.019,-3.9877,-3.9924,-4.0007,-4.0019,0.0,0.0,0.0,0.0,0.0,0.0,0.0,0.0,0.0,0.0,0.0,0.0,0.0,0.0,0.0,0.0,0.0,0.0,0.0,0.0,0.0,0.0,0.0,-4.4858,-4.5732,-4.5732,-4.5991,0.0,-4.6471,-4.6401,-4.6277,-4.6228,-4.6238,-4.6298,-4.6298,-4.6303,-4.6291,-4.6293,-4.6299,-4.6305,-4.6306,-4.6308,-4.621,-4.5526,-4.5152,-4.4797,0.0,0.0,0.0,0.0,0.0,0.0,0.0,0.0,0.0,0.0,0.0,0.0,0.0,0.0,0.0,0.0,0.0,0.0,0.0,0.0,0.0,-2.4211,-2.6565,-2.7676,-2.733,-2.6499,-2.5894,-2.5501,-2.4737,-2.5615,-2.8104,-3.0168,-3.134,-3.17,-3.2103,-3.068,-2.7898,-2.662,-2.5372,-2.433,-2.4679,-2.4596,-2.4209,-2.3796,-2.3125,-2.2373,-2.1994,0.0,0.0,0.0,0.0,0.0,0.0,0.0,-2.1091,-2.0337,-2.0981,-2.2414,-2.4511,-2.6916,-3.001,-3.4948,-3.7835,-3.9582,-4.0077,-3.9552,-3.9012,-3.9112,-3.9471,0.0,0.0,0.0,0.0,0.0,0.0,0.0,0.0,0.0,0.0,0.0,0.0,0.0,0.0,0.0,0.0,0.0,0.0,0.0,0.0,0.0,0.0,0.0,-4.3393,-4.4013,-4.4889,-4.4908,-4.534,-4.6206,-4.6206,-4.6233,-4.6303,-4.6264,-4.6273,-4.6306,-4.6306,-4.6291,-4.6297,-4.6301,-4.6304,-4.6268,-4.584,-4.5683,-4.5564,-4.4702,-4.4113,-4.362,0.0,0.0,0.0,0.0,0.0,0.0,0.0,0.0,0.0,0.0,0.0,0.0,0.0,0.0,0.0,0.0,0.0,0.0,0.0,0.0,0.0,0.0,-2.6696,-2.7248,-2.6714,-2.5757,-2.5289,-2.529,-2.375,-2.4791,-2.8247,-3.0317,-3.1818,-3.2755,-3.2495,-3.0601,-2.7593,-2.644,-2.469,-2.2724,-2.3206,-2.2996,-2.2381,-2.2233,-2.1315,-2.0178,-2.0812,-2.0665,-2.0281,-2.1021,0.0,0.0,0.0,0.0,-2.037,-2.0356,-2.0519,-2.1345,-2.4278,-2.7438,-3.1169,-3.6384,-3.8433,0.0,-3.927,-3.8777,-3.8249,-3.8105,0.0,0.0,0.0,0.0,0.0,0.0,0.0,0.0,0.0,0.0,0.0,0.0,0.0,0.0,0.0,0.0,0.0,0.0,0.0,0.0,0.0,0.0,-4.2114,-4.2167,-4.283,-4.3596,-4.4453,-4.4612,-4.5121,-4.5982,-4.614,-4.6245,-4.629,-4.6302,-4.6308,-4.6293,-4.6294,-4.6201,-4.6088,-4.6072,-4.5995,-4.5781,-4.5058,-4.4782,-4.4664,-4.3798,-4.3011,-4.2382,0.0,0.0,0.0,0.0,0.0,0.0,0.0,0.0,0.0,0.0,0.0,0.0,0.0,0.0,0.0,0.0,0.0,0.0,-1.9756,0.0,0.0,-2.4293,-2.5297,-2.6108,-2.67,-2.5177,-2.4395,-2.446,-2.3483,-2.5075,-2.9056,-2.9436,-3.0443,-3.1814,-3.0424,-2.8367,-2.5782,-2.3524,-2.1961,-2.0973,-2.0374,-2.0052,-1.9878,-1.9136,-1.8702,-1.8419,-1.7791,-1.7931,-1.846,-1.8632,-1.9103,0.0,0.0,0.0,-1.9357,-1.873,-1.9571,-2.0954,-2.2174,-2.6944,-3.2295,0.0,-3.7162,-3.8315,0.0,0.0,-3.7851,0.0,0.0,0.0,0.0,0.0,0.0,0.0,0.0,0.0,0.0,0.0,0.0,0.0,0.0,0.0,0.0,0.0,0.0,0.0,0.0,0.0,0.0,-4.1112,-4.1198,-4.127,-4.1387,-4.1849,-4.2733,-4.3482,-4.4309,-4.5174,-4.5924,-4.6295,-4.629,-4.6297,-4.6297,-4.6294,-4.6299,-4.5873,-4.5173,-4.5175,-4.4726,-4.4042,-4.3922,-4.3879,-4.3777,-4.2897,-4.2498,-4.2288,0.0,0.0,0.0,0.0,0.0,0.0,0.0,0.0,0.0,0.0,0.0,0.0,0.0,0.0,0.0,-1.8154,-1.7856,-1.8355,-2.0056,-2.0812,-2.1896,-2.3501,-2.4377,-2.4773,-2.4681,-2.3962,-2.3372,-2.2955,-2.2075,-2.3989,-2.8478,-2.8993,-3.1101,-3.4321,-3.1336,-2.9169,-2.7481,-2.3604,-2.1215,-1.9959,-1.9116,-1.9309,-1.9925,-1.819,-1.8091,-1.8717,-1.7455,-1.6952,-1.7014,-1.7933,-1.8442,-1.8768,-1.9291,0.0,0.0,0.0,-1.8426,-1.922,-2.1943,-2.5837,-2.9973,0.0,-3.5483,-3.6851,-3.7447,0.0,-3.7275,0.0,0.0,0.0,0.0,0.0,0.0,0.0,0.0,0.0,0.0,0.0,0.0,0.0,0.0,0.0,0.0,0.0,0.0,0.0,0.0,0.0,-4.0252,-4.0308,-4.0552,-4.1086,-4.1093,-4.1517,-4.2391,-4.2785,-4.3414,-4.428,-4.4655,-4.4832,-4.4833,-4.4838,-4.5113,-4.556,-4.5562,-4.5077,-4.4277,-4.4277,-4.4042,-4.3649,-4.3156,-4.2977,-4.2876,-4.1993,-4.1672,-4.162,0.0,0.0,0.0,0.0,0.0,0.0,0.0,0.0,0.0,0.0,0.0,0.0,0.0,0.0,0.0,0.0,-1.691,-1.7719,-1.9956,-2.007,-2.0802,-2.2427,-2.3269,-2.3416,-2.2805,-2.279,-2.2411,-2.1594,-2.0936,-2.3115,-2.7911,-2.8595,-3.1651,-3.6411,-3.2801,-3.0286,-2.8505,-2.4389,-2.1673,-2.0055,-1.9205,-1.9457,-2.022,-1.9036,-1.932,-2.0162,-1.8576,-1.7503,-1.6966,-1.7949,-1.812,-1.8036,-1.8909,-1.8686,0.0,0.0,0.0,-1.7496,-2.0997,0.0,-2.6664,-3.0348,-3.2832,-3.4689,0.0,0.0,0.0,0.0,0.0,0.0,0.0,0.0,0.0,0.0,0.0,0.0,0.0,0.0,0.0,0.0,0.0,0.0,0.0,0.0,0.0,0.0,0.0,0.0,-3.9338,-3.9439,-3.9861,-4.0742,-4.0771,-4.1195,-4.2066,-4.2285,-4.2837,-4.3699,-4.3701,-4.3703,-4.3707,-4.3709,-4.3925,-4.4355,-4.457,-4.418,-4.3376,-4.3374,-4.3236,-4.2979,-4.2325,-4.2067,-4.1988,-4.1339,-4.1094,-4.1079,0.0,0.0,0.0,0.0,0.0,0.0,0.0,0.0,0.0,0.0,0.0,0.0,-1.7257,-1.7077,-1.7027,-1.709,-1.6391,-1.6663,-1.8314,-1.8365,-1.9072,-2.0745,-2.1602,0.0,-2.1955,-2.1966,-2.1565,-2.0771,-2.0725,-2.3177,-2.7896,-2.8085,-3.115,-3.6399,-3.3882,-3.0639,-2.6907,-2.5132,-2.3405,-2.181,-2.0994,-2.0263,-1.9891,-2.2039,-2.292,-2.2772,-2.11,-2.0,-1.9205,-1.8522,-1.7755,-1.7198,-1.8017,-1.8218,-1.7909,0.0,0.0,0.0,-1.8079,-2.046,0.0,-2.5637,-2.868,-3.1519,0.0,0.0,0.0,0.0,0.0,0.0,0.0,0.0,0.0,0.0,0.0,0.0,0.0,0.0,0.0,0.0,0.0,0.0,0.0,0.0,0.0,0.0,0.0,0.0,-3.8463,-3.854,-3.8962,-3.9845,-3.9867,-4.0294,-4.1156,-4.1986,-4.2849,-4.3709,-4.3691,-4.3691,-4.3691,-4.3691,-4.3261,-4.2573,-4.3416,-4.3279,-4.2474,-4.2465,-4.197,-4.1226,-4.1185,-4.1174,-4.1154,-4.1115,-4.1059,-4.1016,0.0,0.0,0.0,0.0,0.0,0.0,0.0,0.0,0.0,0.0,0.0,0.0,0.0,-1.6626,-1.6527,-1.7113,-1.689,-1.7176,-1.8228,-1.8321,-1.8835,-1.9945,-2.0756,-2.1186,-2.1186,-2.1158,-2.0736,-1.9937,-1.9926,-2.1604,-2.4847,-2.5928,-2.7516,-2.9488,-3.0283,-3.0126,-2.8988,-2.4705,-2.2542,-2.1922,-2.1108,-2.1861,-2.3412,-2.3175,-2.4404,0.0,0.0,0.0,0.0,-2.1348,-1.9804,-1.7914,0.0,0.0,0.0,0.0,-1.5442,-1.6155,0.0,0.0,0.0,-2.2903,-2.5668,-2.8093,-2.9256,0.0,0.0,0.0,0.0,0.0,0.0,0.0,0.0,0.0,0.0,0.0,0.0,0.0,0.0,0.0,0.0,0.0,0.0,0.0,0.0,0.0,0.0,0.0,-3.7608,-3.765,-3.8065,-3.8931,-3.8976,-3.9401,-4.0318,-4.1142,-4.1713,-4.2029,-4.2031,-4.2031,-4.203,-4.2029,-4.185,-4.1551,-4.1297,-4.1337,-4.157,-4.1563,-4.1379,-4.1097,-4.11,-4.1108,-4.1103,-4.1103,-4.1064,-4.0997,0.0,0.0,0.0,0.0,0.0,0.0,0.0,0.0,0.0,-1.5211,0.0,0.0,0.0,0.0,-1.6835,-1.7174,-1.6926,-1.7101,-1.7876,-1.7696,-1.805,-1.9122,-1.9936,-2.0359,-2.0352,-2.0574,-2.017,-1.9098,-1.9392,-2.0626,-2.2724,-2.3813,-2.4903,-2.5965,-2.6617,-2.7807,-2.9087,-2.5253,-2.3322,-2.2821,-2.2553,-2.3557,-2.5282,-2.5773,0.0,0.0,0.0,0.0,0.0,0.0,0.0,0.0,0.0,0.0,0.0,0.0,0.0,0.0,-1.6207,0.0,0.0,0.0,0.0,-2.4605,-2.6854,0.0,0.0,0.0,0.0,0.0,0.0,0.0,0.0,0.0,0.0,0.0,0.0,0.0,0.0,0.0,0.0,0.0,0.0,0.0,0.0,0.0,0.0,0.0,-3.6735,-3.676,-3.7177,-3.8079,-3.8387,-3.8828,-3.9462,-3.9993,-4.0251,-4.0253,-4.0254,-4.0409,-4.0698,-4.0698,-4.0849,-4.1052,-4.0171,-4.0288,-4.1072,-4.0787,-4.0836,-4.11,-4.1081,-4.107,-4.1061,-4.1075,-4.1036,-4.0949,0.0,0.0,0.0,0.0,0.0,0.0,0.0,0.0,0.0,-1.603,0.0,0.0,0.0,0.0,0.0,-1.7323,-1.6494,-1.6356,-1.7158,-1.6399,-1.6632,-1.8209,-1.9041,-1.9475,-1.9509,-2.027,-1.9878,-1.8306,-1.9149,-2.0333,-2.1808,-2.1872,-2.3586,-2.6458,-2.3363,-2.3715,-2.6588,-2.6637,-2.5819,-2.4555,0.0,-2.5206,-2.5206,0.0,0.0,0.0,-3.0697,-2.9596,0.0,-2.7217,0.0,0.0,0.0,0.0,0.0,0.0,0.0,0.0,0.0,0.0,0.0,0.0,0.0,0.0,0.0,0.0,0.0,0.0,0.0,0.0,0.0,0.0,0.0,0.0,0.0,0.0,0.0,0.0,0.0,0.0,0.0,0.0,0.0,0.0,0.0,0.0,0.0,-3.5882,-3.594,-3.5947,-3.633,-3.7232,-3.8112,-3.8567,-3.8568,-3.8613,-3.8632,-3.8593,-3.8649,-3.9094,-3.9909,-3.9894,-4.0317,-4.1016,-4.0118,-4.0216,-4.0955,-4.0114,-4.0276,-4.1053,-4.0961,-4.0948,-4.0963,-4.0926,-4.0945,-4.0827,0.0,0.0,0.0,0.0,0.0,0.0,0.0,0.0,-1.6798,0.0,0.0,0.0,-1.7286,-1.846,-1.9211,-1.896,-1.8758,-1.8211,-1.7188,-1.6944,-1.7031,-1.7411,-1.8247,-1.8984,-1.9562,-1.9784,-1.9383,-1.8289,-1.8537,-1.8883,-1.9314,-1.9911,-2.0663,-2.1525,-2.1811,-2.1774,-2.1488,-2.0923,0.0,-2.4369,-2.2792,-2.4872,0.0,0.0,0.0,0.0,0.0,-3.2066,-3.0639,0.0,-2.7931,-2.4321,0.0,0.0,0.0,0.0,0.0,0.0,-1.5088,0.0,0.0,0.0,0.0,0.0,0.0,0.0,0.0,0.0,0.0,0.0,0.0,0.0,0.0,0.0,0.0,0.0,0.0,0.0,0.0,0.0,0.0,0.0,0.0,0.0,0.0,0.0,-3.4471,-3.5503,-3.6774,-3.6843,-3.6692,-3.638,-3.721,-3.7668,-3.7654,-3.8906,-3.9218,-3.8612,-3.9837,-4.0223,-3.9909,-3.9842,-3.9951,-4.0079,-3.8571,-3.8405,-3.9204,-3.8967,-3.9348,-4.0026,-3.9364,-3.9501,-3.9972,-3.9342,-3.952,-3.9926,0.0,0.0,0.0,0.0,0.0,0.0,0.0,0.0,-1.8832,0.0,0.0,0.0,-1.9292,-2.0425,-2.1052,-2.0681,-2.0038,-1.9094,-1.7764,-1.7067,-1.6664,-1.6594,-1.7083,-1.7882,-1.9026,-1.9063,-1.8636,-1.7801,-1.8135,-1.7968,-1.7318,-1.8128,-1.8503,-1.8522,-1.9133,-1.9059,-1.8411,0.0,0.0,0.0,-2.3238,0.0,0.0,-3.0394,-3.1815,0.0,0.0,0.0,-3.2252,-3.2609,-2.9819,0.0,0.0,0.0,0.0,0.0,0.0,-1.6926,-1.5647,-1.5963,0.0,0.0,0.0,0.0,-1.9195,-2.0511,0.0,0.0,0.0,0.0,0.0,0.0,0.0,0.0,0.0,0.0,0.0,0.0,0.0,0.0,0.0,0.0,0.0,0.0,0.0,0.0,-3.3894,-3.5054,-3.6099,-3.6153,-3.5937,-3.5469,-3.6296,-3.6753,-3.6757,-3.8125,-3.8552,-3.8079,-3.9047,-3.945,-3.9291,-3.891,-3.892,-3.9182,-3.7807,-3.7472,-3.7891,-3.7516,-3.8295,-3.9609,-3.8735,-3.8934,-3.9582,-3.8691,-3.8674,-3.9044,0.0,0.0,0.0,0.0,0.0,0.0,0.0,0.0,0.0,0.0,-2.2327,-2.2391,-2.261,-2.3106,-2.3188,-2.2551,-2.0963,-1.964,-1.8809,-1.7179,-1.6195,-1.6038,-1.5945,-1.6613,-1.8129,-1.824,-1.7912,-1.7096,-1.782,-1.743,-1.6056,-1.6669,-1.6929,-1.6817,0.0,0.0,-1.6483,0.0,0.0,-2.0871,-2.4668,-2.6665,0.0,0.0,-3.2462,-3.224,-3.3596,-3.3634,-3.3135,-3.364,-3.0833,0.0,0.0,0.0,0.0,0.0,-1.7096,-1.7566,-1.6557,-1.6966,-1.7979,0.0,0.0,0.0,-2.1183,-2.0744,-2.0421,0.0,0.0,0.0,0.0,0.0,0.0,0.0,0.0,0.0,0.0,0.0,0.0,0.0,0.0,0.0,0.0,0.0,-3.1902,-3.2007,-3.3637,-3.4647,-3.47,-3.4702,-3.4695,-3.4696,-3.5443,-3.5857,-3.5859,-3.6813,-3.7255,-3.7165,-3.7333,-3.7751,-3.8326,-3.7544,-3.761,-3.8308,-3.743,-3.7014,-3.6903,-3.6118,-3.7238,-3.933,-3.8455,-3.8641,-3.9302,-3.8364,-3.8079,-3.8152,0.0,0.0,0.0,0.0,0.0,0.0,0.0,0.0,-2.3605,-2.3076,-2.3053,-2.3816,-2.5754,-2.4953,-2.4459,-2.4945,-2.3502,-2.1939,-2.0447,-1.8838,-1.7616,-1.6904,-1.6255,-1.6347,-1.7312,-1.7974,-1.7912,-1.7096,-1.7263,-1.717,-1.6854,-1.6353,-1.5796,-1.5189,0.0,0.0,0.0,0.0,0.0,-1.8989,-2.1131,0.0,-2.9973,-3.0753,-3.2184,-3.3707,-3.3427,-3.3625,-3.3766,-3.1979,-2.9902,-2.7587,0.0,0.0,0.0,-2.0737,0.0,0.0,0.0,0.0,0.0,0.0,0.0,0.0,-1.7881,-1.8213,-1.8916,0.0,0.0,0.0,0.0,0.0,0.0,0.0,0.0,0.0,0.0,0.0,0.0,0.0,0.0,0.0,0.0,0.0,-3.1262,-3.2018,-3.37,-3.4694,-3.469,-3.4697,-3.4707,-3.47,-3.486,-3.4941,-3.4941,-3.6519,-3.6942,-3.6265,-3.7624,-3.7981,-3.7457,-3.7288,-3.7292,-3.7391,-3.6478,-3.6067,-3.604,-3.5861,-3.6509,-3.7514,-3.6656,-3.6845,-3.7486,-3.6542,-3.6682,-3.7235,0.0,0.0,0.0,0.0,0.0,0.0,0.0,0.0,-2.5595,-2.5194,-2.5554,-2.629,-2.7522,-2.6943,-2.6439,-2.6411,-2.4927,-2.3294,-2.1615,-1.9952,-1.8292,-1.6583,-1.6125,-1.6285,-1.7132,-1.712,-1.7318,-1.7795,0.0,0.0,-1.653,-1.611,-1.5912,-1.595,0.0,0.0,0.0,0.0,-1.7864,-1.9273,-2.2529,0.0,-3.0145,-3.1381,-3.262,-3.3659,-3.3291,-3.3448,-3.3478,-3.098,-2.9392,0.0,0.0,-2.5335,-2.4908,0.0,-2.2311,-2.2451,0.0,0.0,0.0,-2.0047,0.0,0.0,0.0,-1.9691,-1.9645,0.0,0.0,0.0,0.0,0.0,0.0,0.0,0.0,0.0,0.0,0.0,0.0,0.0,0.0,0.0,0.0,0.0,-3.1092,-3.2038,-3.2909,-3.3585,-3.4028,-3.4877,-3.5356,-3.5346,-3.576,-3.5996,-3.5993,-3.6866,-3.705,-3.6604,-3.7446,-3.7625,-3.7197,-3.6751,-3.6534,-3.6487,-3.6005,-3.5788,-3.5739,-3.5791,-3.6041,-3.6353,-3.5969,-3.6299,-3.693,-3.6028,-3.5979,-3.6343,-1.9893,0.0,0.0,0.0,0.0,0.0,0.0,0.0,-2.6646,-2.7009,-2.7802,-2.8465,-2.8802,-2.8961,-2.883,-2.8269,-2.6624,-2.5026,-2.3676,-2.1428,-1.9286,-1.7399,-1.6557,-1.6544,-1.7404,-1.6581,-1.6747,-1.7993,0.0,0.0,0.0,0.0,0.0,0.0,0.0,0.0,0.0,0.0,0.0,-2.077,0.0,-2.741,-2.878,-3.1573,-3.2657,-3.2769,-3.3108,-3.312,-3.2613,-3.0386,-2.9174,-2.8301,-2.6567,-2.6279,0.0,0.0,0.0,0.0,0.0,0.0,0.0,0.0,0.0,-2.2273,0.0,0.0,0.0,-2.2353,0.0,0.0,0.0,0.0,0.0,0.0,0.0,0.0,0.0,0.0,0.0,0.0,0.0,0.0,0.0,0.0,-3.0519,-3.1759,-3.1395,-3.1796,-3.3313,-3.4571,-3.54,-3.5739,-3.6601,-3.6971,-3.6809,-3.7132,-3.7173,-3.6952,-3.6952,-3.6949,-3.6904,-3.6038,-3.5694,-3.5763,-3.5617,-3.5612,-3.5708,-3.5773,-3.5751,-3.5713,-3.5757,-3.6188,-3.6653,-3.5959,-3.554,-3.5436,-2.0249,-2.0166,0.0,0.0,0.0,0.0,0.0,0.0,-2.5308,-2.674,-2.7632,-2.8702,-3.019,-3.0979,-3.1667,-3.2281,-3.0198,0.0,-2.858,0.0,-2.193,-2.2349,-1.8896,-1.7374,-1.8236,-1.7417,-1.6711,-1.6198,0.0,0.0,0.0,0.0,0.0,0.0,-1.5378,0.0,0.0,0.0,-2.0795,0.0,-2.5132,-2.56,0.0,-2.9471,-3.0993,-3.12,-3.2793,-3.2512,-3.1195,0.0,-2.9244,-2.8309,0.0,-2.7107,-2.7818,0.0,0.0,0.0,0.0,0.0,0.0,0.0,-2.3506,0.0,0.0,0.0,-2.062,-1.8708,0.0,0.0,0.0,0.0,0.0,0.0,0.0,0.0,0.0,0.0,0.0,0.0,0.0,0.0,0.0,0.0,0.0,-3.077,-2.8863,-2.9282,-3.3195,-3.2868,-3.3241,-3.4805,-3.5681,-3.5772,-3.4998,-3.6521,-3.6875,-3.605,-3.6047,-3.6015,-3.5924,-3.5127,-3.5104,-3.5679,-3.4971,-3.5055,-3.5708,-3.5775,-3.5757,-3.5693,-3.5718,-3.5771,-3.5824,-3.5673,-3.5129,-3.4455,-1.9156,-1.9738,0.0,0.0,0.0,0.0,0.0,0.0,0.0,-2.8126,-2.9077,-3.041,0.0,0.0,0.0,0.0,0.0,-3.1211,0.0,0.0,-2.4627,-2.4035,0.0,0.0,-1.9848,-1.8043,-1.72,-1.7402,-1.5921,0.0,0.0,0.0,0.0,0.0,-1.6881,0.0,-1.8459,0.0,-2.1022,0.0,0.0,0.0,0.0,-2.8849,-3.0815,-3.0921,-3.1252,-3.1242,-3.09,0.0,-2.8601,0.0,0.0,0.0,0.0,0.0,0.0,0.0,0.0,0.0,0.0,0.0,0.0,0.0,-2.2059,0.0,-2.1334,0.0,0.0,0.0,0.0,0.0,0.0,0.0,0.0,0.0,0.0,0.0,0.0,0.0,0.0,0.0,0.0,0.0,0.0,0.0,0.0,-2.8972,-3.1791,-3.3476,-3.4707,-3.543,-3.6305,-3.6589,-3.6207,-3.6389,-3.6289,-3.5908,-3.5869,-3.583,-3.5775,-3.4928,-3.4684,-3.4933,-3.4622,-3.4657,-3.4927,-3.551,-3.5392,-3.4883,-3.4894,-3.4894,-3.4878,-3.4812,-3.4205,-3.3423,-1.8297,-1.9411,-2.0521,0.0,0.0,0.0,0.0,0.0,0.0,0.0,0.0,0.0,-3.4071,-3.433,0.0,0.0,-3.5016,-3.3523,0.0,0.0,-2.6785,0.0,0.0,0.0,0.0,0.0,-1.7783,-1.7812,0.0,0.0,0.0,0.0,0.0,0.0,0.0,-1.9581,-2.1037,0.0,-2.2236,-2.2762,-2.3393,-2.3919,-2.4756,-2.8671,-3.0668,-3.1271,-3.0485,-3.0595,-3.0868,-2.9193,-2.8271,0.0,-2.8195,0.0,0.0,0.0,0.0,0.0,-2.458,0.0,0.0,0.0,0.0,0.0,0.0,0.0,0.0,0.0,0.0,0.0,0.0,0.0,0.0,0.0,0.0,0.0,0.0,0.0,0.0,0.0,0.0,0.0,0.0,0.0,0.0,0.0,-2.7075,0.0,-3.074,-3.3457,-3.5156,-3.5624,-3.6729,-3.7186,-3.6921,-3.6484,-3.6128,-3.5872,-3.583,-3.5786,-3.575,-3.4636,-3.424,-3.4386,-3.3964,-3.3858,-3.4022,-3.4698,-3.4555,-3.394,-3.3928,-3.3756,-3.357,-3.3744,-3.3224,-3.244,-1.8242,-1.9066,-1.9613,0.0,0.0,0.0,0.0,0.0,0.0,0.0,0.0,0.0,0.0,0.0,0.0,0.0,0.0,-3.6036,-3.4305,0.0,-2.8082,0.0,0.0,-2.3247,0.0,0.0,0.0,0.0,0.0,0.0,0.0,0.0,0.0,0.0,-1.9276,-2.0156,-2.1168,-2.3559,-2.5525,-2.6998,-2.7035,-2.8012,-2.9382,0.0,-3.0085,-3.2222,-3.1298,0.0,0.0,-2.9271,-2.8684,0.0,0.0,0.0,0.0,0.0,0.0,0.0,0.0,0.0,0.0,-2.3236,0.0,0.0,0.0,0.0,-2.2216,0.0,0.0,0.0,0.0,0.0,0.0,-1.7834,0.0,0.0,0.0,0.0,0.0,0.0,0.0,0.0,0.0,0.0,0.0,-2.6728,-2.3977,0.0,-3.0585,-3.1736,-3.3002,-3.4688,-3.6417,-3.6852,-3.5951,-3.6754,-3.6706,-3.5799,-3.5811,-3.576,-3.5654,-3.3989,-3.3664,-3.4316,-3.2697,-3.2426,-3.3133,-3.3098,-3.3064,-3.3037,-3.2962,-3.2397,-3.1691,-3.2523,-3.2286,-3.1536,-1.9319,-1.9908,0.0,0.0,0.0,0.0,0.0,-2.3657,0.0,0.0,0.0,0.0,0.0,-3.8203,-3.9063,0.0,0.0,-3.8639,-3.6981,-3.3773,0.0,0.0,0.0,-2.7484,0.0,0.0,0.0,0.0,0.0,0.0,0.0,0.0,0.0,0.0,0.0,-2.0226,0.0,0.0,0.0,0.0,0.0,-2.8207,-2.9662,0.0,0.0,-3.0572,-3.0352,-3.0292,0.0,-2.9699,-2.9139,-2.8654,-2.8434,-2.7804,-2.7146,-2.7167,-2.6788,0.0,0.0,0.0,-2.5178,-2.375,0.0,0.0,0.0,0.0,0.0,0.0,0.0,0.0,0.0,0.0,-1.8899,-1.8617,-1.7909,0.0,0.0,0.0,0.0,0.0,0.0,0.0,0.0,0.0,0.0,-2.4213,-2.3356,-2.4335,0.0,-3.0212,-3.1828,-3.2947,-3.4679,-3.5405,-3.5039,-3.5338,-3.5039,-3.4139,-3.4108,-3.4046,-3.395,-3.2803,-3.2411,-3.2647,-3.2076,-3.1959,-3.2221,-3.2764,-3.2626,-3.2071,-3.2,-3.1421,-3.0729,-3.1573,-3.1293,-3.051,-2.0669,0.0,0.0,0.0,0.0,0.0,0.0,0.0,0.0,0.0,-3.1765,0.0,-3.849,0.0,-3.9532,0.0,-4.0536,-3.9426,-3.7473,-3.5532,0.0,-3.4528,-3.2424,0.0,0.0,0.0,0.0,0.0,0.0,-2.0182,0.0,0.0,0.0,0.0,0.0,-2.0695,-2.1582,0.0,-2.4576,0.0,0.0,-2.8786,0.0,0.0,-2.9816,-2.978,0.0,-2.9876,-2.9901,-2.9907,-2.9374,-2.8734,-2.8799,-2.7852,-2.6826,-2.7094,-2.6631,-2.599,-2.5895,-2.5507,0.0,-2.4045,-2.3231,0.0,-2.1555,0.0,0.0,0.0,0.0,0.0,0.0,0.0,0.0,-1.9023,-1.7615,0.0,0.0,-1.5833,0.0,0.0,0.0,0.0,0.0,0.0,-2.0631,-2.2926,-2.2557,-2.3476,0.0,0.0,-3.0945,-3.2061,-3.3794,-3.4675,-3.4598,-3.46,-3.4144,-3.3262,-3.3206,-3.3146,-3.3059,-3.2197,-3.1795,-3.1781,-3.1449,-3.1273,-3.1281,-3.1781,-3.1661,-3.113,-3.1049,-3.0641,-3.0185,-3.0685,-3.0475,-2.9926,-2.2148,0.0,0.0,0.0,-2.1574,0.0,0.0,0.0,-2.8771,0.0,-3.2254,-3.4486,-3.7946,-3.8333,-3.8695,-3.9589,-3.9664,-3.8626,-3.6155,-3.5225,0.0,0.0,-3.3106,-3.1873,-3.0953,0.0,0.0,0.0,0.0,0.0,0.0,0.0,0.0,0.0,-2.0934,0.0,-2.2342,-2.3956,-2.5705,-2.7503,-2.9114,-2.9731,-2.9698,-2.9794,0.0,-2.9839,-2.9806,-2.9849,-2.9897,-2.9859,-2.9387,-2.878,-2.8722,-2.8148,-2.7389,-2.6632,-2.6957,-2.7217,-2.5621,-2.5181,-2.5006,-2.4162,0.0,0.0,0.0,0.0,-2.3832,0.0,0.0,0.0,0.0,0.0,0.0,-1.9153,-1.7736,-1.6353,0.0,0.0,0.0,0.0,0.0,0.0,0.0,-1.9477,-1.9461,-2.2672,-2.1523,-2.2129,0.0,0.0,0.0,-3.1929,-3.3665,-3.4545,-3.4464,-3.4507,-3.4061,-3.3141,-3.3102,-3.3084,-3.3005,-3.2185,-3.1774,-3.1679,-3.0786,-3.0392,-3.0386,-3.0216,-3.0196,-3.0273,-3.0097,-3.0,-2.9964,-2.9924,-2.9857,-2.9782,-2.2315,-2.2312,-2.251,0.0,-2.2417,-2.3094,0.0,0.0,0.0,0.0,-3.3977,-3.5739,-3.9702,-4.0184,-4.029,-4.0491,-4.0535,0.0,0.0,0.0,0.0,-3.7378,-3.5799,-3.4269,-3.285,-3.1017,0.0,-2.6312,0.0,0.0,-2.295,0.0,0.0,0.0,0.0,0.0,-2.1531,-2.3184,-2.5586,-2.8244,-2.8053,-2.8686,0.0,0.0,-2.8952,-2.9085,-2.9674,-2.9899,-2.9829,-2.9266,-2.8966,-2.8589,-2.7387,-2.6867,-2.6689,-2.651,-2.6163,-2.5893,-2.6092,-2.5677,-2.5157,-2.4927,-2.4267,-2.3601,0.0,0.0,0.0,0.0,0.0,0.0,0.0,0.0,0.0,0.0,0.0,0.0,0.0,0.0,0.0,0.0,0.0,0.0,0.0,-1.9186,-2.0028,-2.0253,-2.1073,0.0,0.0,0.0,0.0,-3.0094,-3.1854,-3.273,-3.2674,-3.3268,-3.3118,-3.2244,-3.2821,-3.2769,-3.214,-3.1895,-3.1455,-3.0818,-3.0466,-3.034,-3.0333,-2.9602,-2.9672,-3.0157,-2.936,-2.9326,-2.971,-2.9808,-2.9782,-2.971,-2.2879,0.0,0.0,-2.5095,0.0,0.0,-2.802,0.0,0.0,-3.4076,-3.5218,0.0,-3.8956,-3.9914,-4.0208,-3.9832,-3.9806,0.0,-3.8066,0.0,0.0,-3.7322,-3.6429,-3.5528,-3.4615,-3.2647,0.0,-2.8959,0.0,0.0,-2.3093,0.0,0.0,0.0,0.0,-2.0015,0.0,-2.3666,-2.5588,-2.7006,-2.7286,0.0,0.0,-2.8463,-2.8392,-2.873,-2.8875,-2.8913,-2.8833,-2.8429,-2.8032,-2.7596,-2.6696,-2.6155,-2.5885,-2.592,-2.5609,-2.5343,-2.5806,-2.5592,-2.5243,-2.5233,-2.4927,-2.451,-2.412,-2.4423,-2.4762,0.0,0.0,0.0,0.0,0.0,0.0,0.0,0.0,0.0,0.0,0.0,0.0,0.0,0.0,0.0,0.0,0.0,-1.9836,0.0,0.0,0.0,0.0,0.0,0.0,-2.8877,-3.1337,-3.2425,-3.2,-3.2826,-3.2788,-3.1904,-3.2324,-3.2265,-3.1751,-3.173,-3.1445,-3.0953,-3.0471,-3.0491,-3.0772,-2.9849,-2.9758,-3.0054,-2.9007,-2.8801,-2.9092,-2.9092,-2.9298,-2.9522,-2.3695,0.0,0.0,0.0,0.0,0.0,0.0,-3.1398,0.0,-3.4395,0.0,-3.7064,-3.7179,-3.85,-3.91,-3.8392,0.0,-3.7646,-3.6174,-3.6787,-3.6881,-3.6109,-3.6134,-3.6128,-3.6015,-3.3808,0.0,0.0,0.0,0.0,0.0,0.0,0.0,0.0,0.0,0.0,0.0,-2.4506,-2.5518,0.0,-2.6612,-2.7725,-2.848,-2.7711,-2.7837,-2.8313,-2.7744,-2.756,-2.7601,-2.7501,-2.6988,-2.6384,-2.6275,-2.5763,-2.5209,-2.5212,-2.5262,-2.5302,-2.5238,-2.5264,-2.5313,-2.5312,-2.5366,-2.521,-2.4439,-2.4283,-2.4543,-2.548,-2.437,0.0,0.0,0.0,0.0,0.0,0.0,0.0,0.0,0.0,0.0,0.0,0.0,0.0,0.0,0.0,0.0,0.0,0.0,0.0,0.0,0.0,0.0,0.0,-3.113,0.0,-3.1848,0.0,-3.269,-3.1893,-3.1946,-3.1871,-3.1703,-3.1621,-3.154,-3.1386,-3.0566,-3.0581,-3.1157,-3.0175,-2.968,-2.9509,-2.8898,-2.8535,-2.8343,-2.824,-2.8629,-2.913,0.0,0.0,0.0,0.0,0.0,-3.1459,-3.344,-3.3441,-3.3565,-3.4481,-3.61,-3.7167,-3.719,-3.7513,-3.7651,-3.7524,-3.75,0.0,0.0,0.0,0.0,-3.7057,-3.7068,-3.6757,-3.6106,-3.505,-3.3411,0.0,0.0,0.0,0.0,0.0,0.0,0.0,0.0,0.0,-2.2337,-2.3651,0.0,-2.6012,-2.5601,-2.6374,-2.7699,-2.6839,-2.6637,-2.6791,-2.6664,-2.7071,-2.7574,-2.6917,-2.659,-2.6366,-2.5631,-2.5343,-2.5283,-2.5287,-2.5337,-2.5384,-2.5365,-2.5374,-2.5373,-2.5373,-2.5397,-2.5352,-2.5215,-2.5212,-2.5507,-2.6386,-2.5765,-2.5175,-2.5647,0.0,0.0,0.0,0.0,0.0,0.0,0.0,0.0,0.0,0.0,0.0,0.0,0.0,0.0,0.0,0.0,0.0,0.0,0.0,0.0,0.0,0.0,0.0,0.0,0.0,0.0,-3.1835,-3.2526,-3.2499,-3.1772,-3.1666,-3.1213,-3.0509,-3.0297,-3.0252,-3.0213,-2.8615,-2.7479,-2.69,-2.8757,-2.8942,-2.8164,-2.8192,-2.8216,-2.8326,0.0,0.0,0.0,0.0,0.0,0.0,0.0,-3.4872,0.0,-3.5295,-3.6034,-3.6427,-3.6052,-3.6774,-3.7146,-3.6759,-3.6703,-3.6503,-3.6075,-3.6068,-3.606,-3.606,-3.6111,0.0,-3.5485,-3.4756,-3.3323,-3.1157,0.0,0.0,-2.1779,0.0,0.0,0.0,0.0,-2.0978,0.0,0.0,0.0,-2.5641,-2.5216,-2.5831,-2.6891,-2.606,-2.6021,-2.6352,-2.5966,-2.6104,-2.6397,-2.5967,-2.582,-2.5768,-2.5362,-2.5278,-2.5231,-2.4808,-2.4739,-2.4786,-2.4778,-2.4779,-2.4896,-2.5348,-2.5441,-2.5457,-2.5453,-2.5476,-2.5637,-2.6074,-2.5839,-2.5402,-2.4956,-2.3889,0.0,0.0,0.0,0.0,0.0,0.0,0.0,0.0,0.0,0.0,0.0,0.0,0.0,0.0,0.0,0.0,0.0,0.0,0.0,0.0,0.0,0.0,0.0,0.0,0.0,-3.1751,-3.2177,-3.2343,-3.2327,-3.2216,-3.1924,-3.146,-3.0944,-3.0679,-3.053,-2.9196,-2.8096,-2.7346,-2.8437,-2.8557,-2.8029,-2.754,-2.7321,-2.7324,0.0,-3.1145,0.0,0.0,-3.3677,0.0,-3.4405,-3.6372,-3.7411,-3.6093,-3.5975,-3.5792,-3.5209,-3.6156,-3.6573,-3.6008,-3.5902,-3.5627,-3.4983,-3.4927,-3.4936,-3.4946,-3.521,-3.5238,-3.4945,-3.4555,-3.331,0.0,0.0,0.0,0.0,0.0,0.0,0.0,0.0,0.0,0.0,0.0,-2.5209,-2.5373,-2.538,-2.5685,-2.6098,-2.5637,-2.5738,-2.6064,-2.5494,-2.5282,-2.5287,-2.5247,-2.5222,-2.5233,-2.5273,-2.5317,-2.5154,-2.4335,-2.4148,-2.4192,-2.4208,-2.4196,-2.4411,-2.5283,-2.5503,-2.5492,-2.5494,-2.5518,-2.5547,-2.5592,-2.5604,-2.5338,-2.4458,-2.3927,0.0,0.0,0.0,0.0,0.0,0.0,0.0,0.0,0.0,0.0,0.0,0.0,0.0,0.0,0.0,0.0,0.0,0.0,0.0,0.0,0.0,-2.9954,-3.0122,0.0,-3.2234,0.0,-3.1666,-3.1968,-3.2534,-3.2638,-3.2446,-3.2012,-3.1427,-3.0822,-3.0234,-2.9842,-2.8839,-2.7613,-2.8145,-2.8019,-2.7468,-2.6822,-2.6455,-2.6316,0.0,0.0,0.0,0.0,0.0,0.0,0.0,-3.8544,-3.8852,-3.6319,-3.6056,-3.6068,-3.5994,-3.5524,-3.5201,-3.5125,-3.5162,-3.517,-3.5094,-3.502,-3.5011,-3.5075,-3.5789,-3.5846,-3.5103,-3.5785,-3.4556,0.0,0.0,0.0,0.0,0.0,0.0,0.0,0.0,0.0,0.0,-2.5037,-2.5571,-2.6289,-2.6289,-2.5881,-2.5377,-2.6045,-2.5872,-2.5302,-2.5236,-2.525,-2.5311,-2.5287,-2.5283,-2.5298,-2.5303,-2.5341,-2.5224,-2.4344,-2.416,-2.4208,-2.4192,-2.4196,-2.4411,-2.5283,-2.5503,-2.5499,-2.5493,-2.5547,-2.5587,-2.5598,-2.5603,-2.5328,-2.446,-2.4888,-2.4572,0.0,0.0,0.0,0.0,0.0,0.0,0.0,0.0,0.0,0.0,0.0,0.0,0.0,0.0,0.0,0.0,0.0,0.0,-2.4341,0.0,-2.7516,-2.8244,-2.9858,0.0,-3.1608,-3.1552,-3.1557,-3.1637,-3.2313,-3.1738,-3.0273,-3.0854,-2.975,-2.7671,-2.9036,-2.7746,-2.5149,-2.8064,-2.7779,-2.5814,-2.6395,-2.6015,-2.5339,0.0,0.0,0.0,0.0,0.0,0.0,0.0,-3.691,-3.6844,-3.6255,-3.6663,-3.6615,-3.5619,-3.5229,-3.5066,-3.5066,-3.5084,-3.5092,-3.5092,-3.5101,-3.5101,-3.5092,-3.5451,-3.547,-3.5111,-3.5479,-3.4257,0.0,0.0,0.0,0.0,0.0,0.0,0.0,0.0,-2.525,-2.6638,-2.6091,-2.6384,-2.709,-2.6084,-2.5497,-2.5233,-2.5556,-2.5502,-2.5261,-2.5257,-2.5307,-2.5366,-2.5366,-2.537,-2.5356,-2.5356,-2.5373,-2.5134,-2.3774,-2.3392,-2.3426,-2.3468,-2.3489,-2.3815,-2.5214,-2.5564,-2.5564,-2.555,-2.5582,-2.5593,-2.5599,-2.5603,-2.5481,-2.5145,-2.4972,-2.456,0.0,0.0,0.0,0.0,0.0,0.0,0.0,0.0,0.0,0.0,0.0,0.0,0.0,0.0,0.0,0.0,0.0,0.0,-2.3445,0.0,-2.7666,-2.7993,-3.0111,-3.1032,-3.0765,-3.0732,-3.0949,-3.1401,-3.2131,-3.202,-3.1214,-3.0509,-2.9551,-2.8568,-2.9173,-2.8599,-2.7392,-2.8123,-2.7721,-2.6677,-2.5958,-2.5423,-2.507,-3.7822,0.0,-3.6492,0.0,-3.6787,-3.6044,-3.7233,-3.672,-3.6338,-3.6671,-3.7042,-3.6814,-3.5587,-3.5254,-3.5129,-3.5129,-3.5129,-3.5138,-3.5136,-3.5155,-3.5155,-3.5136,-3.516,0.0,-3.5136,-3.5181,-3.4206,-3.2165,-3.1287,0.0,0.0,0.0,0.0,0.0,-2.6129,-2.7262,-2.8001,-2.7396,-2.7338,-2.7599,-2.6421,-2.5635,-2.5223,-2.5469,-2.5458,-2.5292,-2.5307,-2.5341,-2.5398,-2.5398,-2.5407,-2.5397,-2.5407,-2.5391,-2.5112,-2.369,-2.3283,-2.3243,-2.305,-2.3185,-2.3663,-2.4891,-2.5392,-2.5601,-2.5601,-2.559,-2.5599,-2.5596,-2.563,-2.5632,-2.563,-2.5166,-2.4619,-2.4093,0.0,0.0,0.0,0.0,0.0,0.0,-2.2168,-2.1366,-2.0991,0.0,0.0,0.0,0.0,0.0,0.0,0.0,0.0,0.0,0.0,0.0,0.0,-3.0037,-3.1028,-3.0552,-3.0519,-3.0887,-3.1634,-3.187,-3.1864,-3.1613,-3.0139,-2.9302,-2.8975,-2.9146,-2.8875,-2.8342,-2.783,-2.7296,-2.6665,-2.5658,-2.5103,-2.4825,-3.863,-3.8774,-3.9042,-3.9916,-4.003,-4.003,-4.0049,-3.9376,-3.8575,-3.7784,-3.7,-3.6466,-3.6301,-3.5651,-3.52,-3.52,-3.52,-3.5198,-3.5201,-3.5145,-3.5136,0.0,0.0,-3.5198,-3.5201,-3.5201,-3.4808,-3.3975,0.0,0.0,-3.0077,0.0,-2.6364,-2.6402,-2.73,-2.8134,-2.8872,-2.8872,-2.8415,-2.7701,-2.7682,-2.6673,-2.5288,-2.6165,-2.599,-2.5311,-2.5311,-2.5346,-2.5398,-2.5398,-2.5406,-2.5397,-2.5395,-2.5404,-2.5232,-2.442,-2.4187,-2.4015,-2.3221,-2.363,-2.4279,-2.4235,-2.4917,-2.5601,-2.5601,-2.559,-2.5607,-2.5605,-2.5654,-2.5708,-2.5701,-2.5683,-2.5115,-2.3403,0.0,0.0,0.0,0.0,0.0,0.0,-2.162,-2.0914,-2.1709,0.0,0.0,0.0,0.0,0.0,0.0,0.0,0.0,-2.2872,-2.5375,0.0,-2.6612,-2.9014,-3.0614,-3.1381,-3.1257,-3.161,-3.236,-3.1365,-3.0843,-3.0663,-2.9725,-2.8783,-2.7974,-2.8713,-2.7988,-2.6479,-2.7073,-2.6285,-2.4902,-2.5552,-2.5164,-2.4518,-3.9757,-3.9786,-3.9833,-4.0109,-3.97,-3.9157,-3.8547,-3.7783,-3.696,-3.612,-3.581,-3.5646,-3.555,-3.5348,-3.5204,0.0,-3.5204,-3.5193,0.0,-3.5176,-3.5176,-3.5201,-3.5193,-3.5193,-3.5209,-3.5209,-3.4808,-3.3995,0.0,0.0,0.0,-2.965,-2.9306,-2.986,-2.9556,-2.9543,-2.9754,-2.9194,-2.881,-2.8535,-2.7993,-2.7115,-2.6184,-2.6453,-2.6076,-2.537,-2.537,-2.5384,-2.54,-2.54,-2.5429,-2.548,-2.5472,-2.5464,-2.529,-2.4439,-2.4198,-2.4015,-2.3221,-2.3209,-2.3553,-2.4135,-2.4491,-2.4865,-2.546,-2.5595,-2.5595,-2.56,-2.5646,-2.5704,-2.5701,-2.5698,-2.5515,-2.497,0.0,0.0,0.0,0.0,0.0,0.0,-2.1731,-2.151,0.0,-2.1312,0.0,0.0,0.0,0.0,0.0,0.0,0.0,0.0,-2.5897,0.0,-2.7415,-2.9225,-3.0242,-3.0441,-3.0357,-3.0665,-3.1289,-3.0269,-3.006,-3.0443,-2.9544,-2.892,-2.8534,-2.8724,-2.8391,-2.7668,-2.6679,-2.6236,-2.6042,-2.508,-2.4796,-2.5048,-4.0253,-4.0253,-4.0244,-4.0244,-3.9824,-3.9308,-3.8764,-3.7988,-3.7288,-3.675,-3.643,-3.6257,-3.617,-3.619,0.0,-3.5725,-3.5957,-3.6014,-3.5717,-3.5976,-3.5861,-3.522,-3.5507,-3.5545,-3.5209,0.0,0.0,-3.4445,-3.3902,-3.3077,-3.1986,-3.1436,-3.1131,-3.103,-3.0476,-3.0234,-3.0196,-2.9711,-2.9308,-2.8994,-2.8489,-2.761,-2.6591,-2.6591,-2.6107,-2.5402,-2.5402,-2.5423,-2.5433,-2.5441,-2.5476,-2.5499,-2.551,-2.551,-2.5394,-2.4888,-2.4723,-2.4539,-2.3703,-2.3722,-2.4024,-2.4247,-2.4554,-2.4922,-2.5484,-2.5593,-2.5609,-2.5634,-2.5675,-2.569,-2.5693,-2.5706,-2.5694,-2.5696,-2.5154,-2.4531,-2.3984,0.0,0.0,0.0,0.0,0.0,0.0,-2.2369,0.0,0.0,0.0,0.0,0.0,0.0,0.0,-2.3814,-2.6487,0.0,-2.8248,-2.9483,-3.0049,-2.9959,-3.0101,-3.018,-3.0197,-2.9848,-2.9725,-2.9773,-2.9165,-2.8803,-2.8637,-2.8505,-2.8393,-2.8094,-2.6601,-2.6272,-2.6479,-2.5335,-2.5125,-2.553,-4.0215,-4.0263,0.0,0.0,-4.031,0.0,-4.0221,-3.9588,-3.907,-3.9016,-3.8353,-3.7885,-3.7808,-3.7866,-3.7581,-3.6746,0.0,0.0,0.0,-3.7295,-3.6971,-3.5362,-3.6069,-3.6107,-3.5237,-3.5209,-3.5209,-3.5218,-3.5218,-3.4408,-3.2893,-3.2819,-3.1938,-3.0388,-3.0331,-3.0292,-3.0292,-3.0299,-2.9876,-2.919,-2.919,-2.8187,-2.6689,-2.6689,-2.6145,-2.5401,-2.5401,-2.5433,-2.5496,-2.5491,-2.5499,-2.5506,-2.5511,-2.5512,-2.5528,-2.5579,-2.559,-2.541,-2.4533,-2.4907,-2.5318,-2.4499,-2.4966,-2.5593,-2.5604,-2.5609,-2.5615,-2.5691,-2.5704,-2.5693,-2.5698,-2.5708,-2.5677,-2.5622,-2.4257,-2.3125,-2.2948,0.0,0.0,0.0,0.0,0.0,0.0,-2.3447,-2.4338,0.0,0.0,0.0,0.0,0.0,-2.374,-2.5427,-2.7099,-2.8338,-2.9065,-2.9735,-3.0003,-2.987,-3.0299,-3.0036,-2.9215,-2.9879,-2.9684,-2.8773,-2.8644,-2.8505,-2.8353,-2.8168,-2.8042,-2.7869,-2.6801,-2.6359,-2.6338,-2.6124,-2.5958,-2.5922,0.0,0.0,-4.0299,-4.0291,-4.0346,-4.0161,-3.9493,-3.9212,-3.8873,-3.8257,-3.802,-3.7886,-3.7885,-3.8476,-3.8764,-3.8512,-3.7995,-3.7627,-3.7426,-3.7643,-3.7296,-3.6233,-3.6452,-3.6173,-3.5297,-3.5273,-3.5293,-3.5278,-3.5278,-3.4776,-3.3782,-3.3116,-3.2253,-3.1263,-3.0606,-3.0292,-3.0298,-3.0355,-3.0271,-3.0084,-3.0084,-2.9088,-2.7599,-2.7599,-2.6689,-2.5401,-2.5401,-2.5441,-2.5491,-2.5495,-2.554,-2.5586,-2.5586,-2.5571,-2.5571,-2.5607,-2.559,-2.5407,-2.454,-2.4499,-2.4624,-2.4353,-2.4966,-2.5607,-2.5664,-2.5675,-2.5681,-2.5705,-2.5696,-2.5704,-2.5705,-2.5696,-2.5487,-2.4824,-2.4355,-2.3414,-2.1479,-2.12,0.0,0.0,-2.1689,-2.2806,-2.3638,-2.4622,-2.4696,0.0,0.0,0.0,0.0,0.0,-2.4562,-2.6191,-2.7873,-2.9085,-2.9827,-2.9872,-2.9726,-2.9435,-2.9556,-2.9407,-2.9055,-2.9076,-2.8925,-2.8637,-2.8458,-2.83,-2.8168,-2.795,-2.7806,-2.7589,-2.6584,-2.6467,-2.6789,-2.5892,-2.5865,-2.6269,-4.0353,-4.0353,-4.021,-3.982,-4.0104,-3.9994,-3.8772,-3.8903,-3.9004,-3.8585,-3.8531,-3.8677,-3.9037,-3.9506,-3.9767,-3.9706,-3.9242,-3.8614,-3.783,-3.8544,-3.8074,-3.6044,-3.676,-3.6596,-3.5327,-3.5304,-3.532,-3.5357,-3.5315,-3.4697,-3.355,-3.3069,-3.2205,-3.1027,-3.0571,-3.0358,-3.0394,-3.0425,-3.045,-3.045,-3.045,-2.9431,-2.7957,-2.7957,-2.6912,-2.5445,-2.5445,-2.5479,-2.5498,-2.5543,-2.5567,-2.5592,-2.5604,-2.5593,-2.5593,-2.5598,-2.562,-2.5535,-2.507,-2.4962,-2.4988,-2.4955,-2.5297,-2.5662,-2.5697,-2.5705,-2.5693,-2.5701,-2.5705,-2.5709,-2.5694,-2.5701,-2.541,-2.4531,-2.4078,-2.3172,-2.1391,-2.0837,0.0,-2.106,-2.1901,-2.2935,-2.418,-2.5033,-2.5114,-2.4163,0.0,0.0,-2.4571,-2.5332,-2.6013,-2.6488,-2.7707,-2.8706,-2.9445,-2.9583,-2.9522,-2.9251,-2.9149,-2.9033,-2.8863,-2.8682,-2.8562,-2.8445,-2.8246,-2.8053,-2.7853,-2.7689,-2.7524,-2.7321,-2.6671,-2.6598,-2.6791,-2.6068,-2.5963,-2.6154,-4.0243,-4.0224,-3.9936,-3.9073,-3.9542,-3.9567,-3.8197,-3.8577,-3.9092,-3.929,-3.9316,-3.9622,-4.0427,-4.0515,-4.0441,-4.0257,-4.0257,-3.9627,-3.8191,-3.9427,-3.8813,-3.5641,-3.6926,-3.6972,-3.5361,-3.533,-3.5372,-3.5412,-3.5379,-3.4567,-3.309,-3.2968,-3.2083,-3.0615,-3.0461,-3.0458,-3.0504,-3.0504,-3.0504,-3.0504,-3.0504,-2.9506,-2.7997,-2.7997,-2.6962,-2.5495,-2.5495,-2.5518,-2.5522,-2.5577,-2.5592,-2.5607,-2.5604,-2.5605,-2.5607,-2.5607,-2.5654,-2.5699,-2.5697,-2.5697,-2.5699,-2.5701,-2.5708,-2.5699,-2.569,-2.5693,-2.5698,-2.5693,-2.5693,-2.5694,-2.57,-2.5703,-2.5331,-2.4196,-2.3507,-2.2657,-2.1396,0.0,-1.9992,-2.1616,-2.1859,-2.2574,-2.4302,-2.5194,-2.5646,-2.5584,-2.6259,0.0,0.0,-2.708,-2.7064,-2.6303,-2.723,-2.8056,-2.8628,-2.9064,-2.9177,-2.896,-2.8796,-2.8694,-2.8657,-2.8518,-2.8393,-2.8273,-2.8039,-2.781,-2.7572,-2.7404,-2.7231,-2.7054,-2.6841,-2.6674,-2.6537,-2.6329,-2.6081,-2.586,-3.9517,-3.9391,-3.9114,-3.823,-3.8247,-3.8266,-3.7967,-3.8065,-3.8455,-3.9194,-3.9357,-3.968,-4.0509,-4.0586,-4.0309,-3.962,-3.9562,-3.9369,-3.8947,-3.9261,-3.8574,-3.6576,-3.6749,-3.643,-3.5479,-3.5463,-3.5469,-3.5474,-3.5534,-3.5014,-3.3974,-3.3305,-3.2474,-3.156,-3.0807,-3.0499,-3.0504,-3.0504,-3.0504,-3.0504,-3.0504,-2.9506,-2.7997,-2.7997,-2.6962,-2.5495,-2.5495,-2.5544,-2.5596,-2.5592,-2.5607,-2.5604,-2.5591,-2.5602,-2.5607,-2.5675,-2.5697,-2.5697,-2.563,-2.5654,-2.5701,-2.5708,-2.5699,-2.569,-2.5703,-2.5705,-2.5708,-2.5698,-2.57,-2.5702,-2.5703,-2.5703,-2.4938,-2.2587,-2.2718,-2.2025,-1.8938,0.0,-2.0675,-2.1679,-2.2396,-2.3456,-2.5149,-2.5993,-2.6414,-2.6415,-2.6493,-2.6521,-2.65,-2.5928,-2.5498,-2.5247,-2.7376,-2.8474,-2.8362,-2.8333,-2.8188,-2.7926,-2.7846,-2.8052,-2.8518,-2.8327,-2.8237,-2.8196,-2.7824,-2.7602,-2.7496,-2.7185,-2.7007,-2.6909,-2.6708,-2.6521,-2.6313,-2.6063,-2.5824,-2.5616,-3.8657,-3.8614,-3.8337,-3.745,-3.7709,-3.7737,-3.6793,-3.7096,-3.7713,-3.8581,-3.873,-3.9238,-4.046,-4.0595,-4.0279,-3.9462,-3.9405,-3.8954,-3.7938,-3.8351,-3.7884,-3.6176,-3.6516,-3.6368,-3.5567,-3.5547,-3.531,-3.4841,-3.4879,-3.4191,-3.2843,-3.2474,-3.1874,-3.1079,-3.0674,-3.053,-3.0545,-3.0545,-3.0545,-3.0545,-3.054,-2.9833,-2.8698,-2.8226,-2.7299,-2.6185,-2.5725,-2.5576,-2.5604,-2.5601,-2.5595,-2.5608,-2.5602,-2.5628,-2.5654,-2.5683,-2.5707,-2.5685,-2.5662,-2.5689,-2.5697,-2.5701,-2.5692,-2.5701,-2.5706,-2.5692,-2.5698,-2.5702,-2.5703,-2.5703,-2.5701,-2.5696,-2.5141,-2.3464,-2.3143,0.0,0.0,-2.0973,-2.1684,-2.2984,-2.3436,-2.4119,-2.5337,-2.572,-2.6067,-2.6455,-2.6468,-2.6625,-2.7013,-2.6244,-2.5735,-2.5601,-2.6673,-2.7357,-2.7597,-2.7426,-2.7235,-2.6995,-2.733,-2.7574,-2.7746,-2.795,-2.8007,-2.7908,-2.7554,-2.7293,-2.7101,-2.6908,-2.6742,-2.6555,-2.6434,-2.6258,-2.6063,-2.5824,-2.5581,-2.5298,-3.7848,-3.7803,-3.7533,-3.6665,-3.707,-3.7083,-3.5801,-3.618,-3.6978,-3.8066,-3.8201,-3.8756,-4.0217,-4.0346,-3.9934,-3.893,-3.8833,-3.8195,-3.6639,-3.7173,-3.6954,-3.5655,-3.6189,-3.6228,-3.5617,-3.5604,-3.527,-3.4602,-3.4614,-3.3828,-3.2293,-3.2105,-3.1581,-3.0796,-3.0603,-3.0559,-3.0598,-3.0598,-3.0602,-3.0568,-3.0378,-2.9822,-2.8997,-2.8138,-2.7304,-2.6509,-2.5837,-2.5607,-2.559,-2.5608,-2.56,-2.5607,-2.5611,-2.5658,-2.5705,-2.5694,-2.5697,-2.5699,-2.5697,-2.5705,-2.5694,-2.5694,-2.5704,-2.5692,-2.5694,-2.5698,-2.5702,-2.5703,-2.5702,-2.5701,-2.5693,-2.5702,-2.5356,-2.4261,0.0,0.0,0.0,-2.2457,-2.2702,-2.437,-2.4325,-2.449,-2.5303,-2.551,-2.5806,-2.6356,-2.6396,-2.66,-2.7144,-2.641,-2.5987,-2.6034,-2.6153,-2.6437,-2.6925,-2.6947,-2.6843,-2.6609,-2.7097,-2.7412,-2.7562,-2.772,-2.7742,-2.7627,-2.7276,-2.6783,-2.6283,-2.6505,-2.6369,-2.6009,-2.6101,-2.6023,-2.5805,-2.5562,-2.5298,-2.4993,-3.7134,-3.6941,-3.6646,-3.5823,-3.5733,-3.5733,-3.5617,-3.5641,-3.6294,-3.7986,-3.8199,-3.8578,-3.9564,-3.9625,-3.8922,-3.7316,-3.7179,-3.6781,-3.5833,-3.585,-3.5792,-3.5617,-3.5655,-3.5655,-3.5598,-3.5608,-3.557,-3.5501,-3.5574,-3.5088,-3.4094,-3.3343,-3.2522,-3.1676,-3.0922,-3.0598,-3.0598,-3.0598,-3.0592,-3.0537,-2.972,-2.8904,-2.8097,-2.7223,-2.6393,-2.5683,-2.5627,-2.5608,-2.5608,-2.56,-2.5604,-2.5609,-2.5666,-2.5691,-2.5694,-2.5705,-2.5693,-2.5697,-2.569,-2.5698,-2.5706,-2.5706,-2.5694,-2.57,-2.5703,-2.5703,-2.5703,-2.5697,-2.5692,-2.5708,-2.5702,-2.5707,-2.5145,-2.3474,0.0,0.0,-2.3027,-2.2904,-2.3515,-2.512,-2.46,-2.4417,-2.5221,-2.5973,-2.6399,-2.6397,-2.6346,-2.6279,-2.6218,-2.5435,-2.5258,-2.5794,-2.6478,-2.6804,-2.6723,-2.7385,-2.7549,-2.7235,-2.7169,-2.7767,-2.8924,-2.7957,-2.7509,-2.7496,-2.7037,-2.601,-2.4746,-2.5866,-2.5843,-2.5138,-2.5724,-2.5805,-2.5581,-2.5259,-2.4993,-2.4775,-3.6214,-3.6132,-3.603,-3.5725,-3.5667,-3.5667,-3.5667,-3.6123,-3.6894,-3.81,-3.8725,-3.9389,-4.0239,-3.9885,-3.9085,-3.7913,-3.7302,-3.6638,-3.5752,-3.5703,-3.5692,-3.5656,-3.5656,-3.5405,-3.4864,-3.4867,-3.435,-3.332,-3.3335,-3.2885,-3.2,-3.1694,-3.137,-3.1045,-3.0735,-3.06,-3.0561,-3.007,-2.9869,-2.9784,-2.8911,-2.8369,-2.8019,-2.7173,-2.6662,-2.6345,-2.579,-2.5957,-2.6336,-2.5835,-2.6018,-2.6376,-2.5857,-2.5707,-2.5693,-2.5703,-2.5707,-2.571,-2.5694,-2.5694,-2.5829,-2.6379,-2.6091,-2.584,-2.6386,-2.6091,-2.5697,-2.5704,-2.5702,-2.5698,-2.5701,-2.571,-2.5461,-2.4752,0.0,-2.4349,-2.4483,-2.4063,-2.4161,-2.5277,-2.5066,-2.4952,-2.5203,-2.547,-2.5837,-2.63,-2.5737,-2.557,-2.6015,-2.5546,-2.539,-2.5607,-2.6776,-2.7135,-2.657,-2.6728,-2.6686,-2.6433,-2.6685,-2.6986,-2.735,-2.7284,-2.6907,-2.6303,-2.6064,-2.5514,-2.4846,-2.5345,-2.5468,-2.5375,-2.5619,-2.553,-2.5259,-2.491,-2.471,-2.4564,-3.5732,-3.5713,-3.5786,-3.6057,-3.6115,-3.6193,-3.6464,-3.7027,-3.7613,-3.8224,-3.8825,-3.9315,-3.9602,-3.9156,-3.8452,-3.7584,-3.6973,-3.6362,-3.5776,-3.5708,-3.5689,-3.5692,-3.5692,-3.5421,-3.4826,-3.4565,-3.3873,-3.2715,-3.2443,-3.1851,-3.1002,-3.1017,-3.0862,-3.0637,-3.061,-3.0606,-3.0567,-3.0029,-2.9807,-2.9737,-2.8855,-2.8365,-2.8046,-2.7201,-2.6919,-2.6851,-2.6256,-2.6599,-2.7215,-2.6399,-2.6503,-2.6901,-2.63,-2.6113,-2.6041,-2.5771,-2.5696,-2.5699,-2.5702,-2.5702,-2.5838,-2.6445,-2.6133,-2.5857,-2.6458,-2.6121,-2.5703,-2.5705,-2.5683,-2.566,-2.5679,-2.5665,-2.5649,-2.5604,-2.5081,-2.4959,-2.5766,-2.5128,-2.4863,-2.5649,-2.5466,-2.5231,-2.5172,-2.5126,-2.5304,-2.582,-2.5203,-2.5103,-2.5837,-2.5588,-2.5617,-2.6072,-2.7004,-2.7326,-2.7005,-2.6929,-2.6733,-2.645,-2.675,-2.6891,-2.688,-2.6918,-2.657,-2.5864,-2.5681,-2.5211,-2.4625,-2.5105,-2.5255,-2.5234,-2.5354,-2.5227,-2.4954,-2.4574,-2.4405,-2.4312,-3.5799,-3.5742,-3.596,-3.6838,-3.6993,-3.7284,-3.8151,-3.8306,-3.8321,-3.8292,-3.8307,-3.7991,-3.7203,-3.709,-3.674,-3.5885,-3.5807,-3.5806,-3.5803,-3.5742,-3.5708,-3.5708,-3.5708,-3.5708,-3.5689,-3.4909,-3.4497,-3.4478,-3.361,-3.2732,-3.1895,-3.1898,-3.1456,-3.07,-3.0637,-3.0606,-3.0606,-3.0673,-3.0695,-3.0616,-2.9742,-2.891,-2.8099,-2.7223,-2.6946,-2.7004,-2.7004,-2.7557,-2.8189,-2.7308,-2.702,-2.7026,-2.7014,-2.7003,-2.6813,-2.5969,-2.5719,-2.5703,-2.5703,-2.5702,-2.57,-2.572,-2.5716,-2.5691,-2.5702,-2.5694,-2.5704,-2.5703,-2.5652,-2.5604,-2.5604,-2.5593,-2.5604,-2.5599,-2.5544,-2.5786,-2.6577,-2.5932,-2.5669,-2.6403,-2.5731,-2.5162,-2.5108,-2.5101,-2.5037,-2.4898,-2.4832,-2.5038,-2.556,-2.5354,-2.5889,-2.735,-2.7135,-2.7357,-2.8081,-2.8295,-2.8132,-2.7602,-2.7526,-2.769,-2.8066,-2.7063,-2.6572,-2.6469,-2.6136,-2.5116,-2.38,-2.5134,-2.5183,-2.4427,-2.4782,-2.4859,-2.4735,-2.4271,-2.4051,-2.3961,-3.585,-3.585,-3.5924,-3.6176,-3.6721,-3.723,-3.7498,-3.8536,-3.9056,-3.8455,-3.8909,-3.8967,-3.8101,-3.7471,-3.6993,-3.6721,-3.6149,-3.5795,-3.5807,-3.5838,-3.5811,-3.5778,-3.5722,-3.5437,-3.4879,-3.4016,-3.3288,-3.269,-3.1841,-3.1312,-3.1066,-3.1059,-3.0934,-3.0698,-3.0678,-3.0678,-3.0633,-3.0088,-2.9866,-2.9775,-2.8909,-2.8413,-2.8111,-2.7279,-2.7326,-2.7764,-2.7204,-2.7953,-2.8994,-2.7497,-2.7814,-2.8718,-2.8101,-2.7067,-2.617,-2.6504,-2.6171,-2.5701,-2.5694,-2.5707,-2.584,-2.6452,-2.6155,-2.585,-2.6401,-2.6077,-2.581,-2.6425,-2.6036,-2.5783,-2.6404,-2.6018,-2.5576,-2.5538,-2.5472,-2.5509,-2.5758,-2.5476,-2.5348,-2.5568,-2.5276,-2.5051,-2.5018,-2.4938,-2.4849,-2.4768,-2.452,-2.4672,-2.5356,-2.563,-2.6201,-2.7171,-2.7576,-2.7734,-2.7692,-2.7777,-2.7733,-2.7526,-2.7263,-2.7142,-2.7097,-2.6673,-2.6098,-2.5425,-2.5234,-2.4793,-2.4238,-2.4681,-2.4836,-2.4817,-2.4879,-2.4659,-2.4251,-2.3894,-2.3653,-2.3473,-3.5882,-3.5901,-3.5999,-3.6326,-3.6812,-3.7396,-3.8077,-3.9039,-3.9501,-3.8988,-3.9101,-3.8891,-3.8026,-3.715,-3.6637,-3.663,-3.6137,-3.5841,-3.5841,-3.5875,-3.5872,-3.5842,-3.5799,-3.5545,-3.5023,-3.419,-3.3503,-3.2963,-3.1783,-3.1236,-3.1242,-3.0892,-3.0745,-3.0737,-3.0748,-3.0748,-3.07,-3.0229,-3.0002,-2.9964,-2.9448,-2.9024,-2.8655,-2.8174,-2.8315,-2.8689,-2.8207,-2.8937,-2.9902,-2.8499,-2.8505,-2.8921,-2.8066,-2.7051,-2.625,-2.6422,-2.6106,-2.5692,-2.5699,-2.5707,-2.5896,-2.6759,-2.6305,-2.5962,-2.7154,-2.6724,-2.6237,-2.6784,-2.6468,-2.6131,-2.6314,-2.5926,-2.5557,-2.5505,-2.5433,-2.5388,-2.537,-2.5273,-2.5198,-2.516,-2.5076,-2.498,-2.4971,-2.4834,-2.4696,-2.4545,-2.4589,-2.4901,-2.5615,-2.6087,-2.6652,-2.7348,-2.7621,-2.76,-2.7312,-2.7261,-2.7246,-2.7247,-2.6925,-2.6674,-2.6521,-2.6313,-2.5833,-2.5222,-2.508,-2.4897,-2.4673,-2.4639,-2.4687,-2.4786,-2.4614,-2.4251,-2.3788,-2.3508,-2.329,-2.3105,-3.5915,-3.5911,-3.6142,-3.6878,-3.7053,-3.7676,-3.933,-3.9661,-3.9719,-3.97,-3.8994,-3.817,-3.7296,-3.6429,-3.5903,-3.5911,-3.5895,-3.5905,-3.5905,-3.5905,-3.5905,-3.5905,-3.5905,-3.5868,-3.5807,-3.501,-3.4554,-3.4473,-3.2895,-3.2077,-3.1974,-3.1254,-3.0872,-3.0804,-3.0804,-3.0804,-3.0806,-3.0798,-3.0802,-3.0804,-3.0794,-3.0312,-2.9609,-2.9533,-2.9596,-2.97,-2.9623,-3.0158,-3.0771,-2.9889,-2.8978,-2.8066,-2.7343,-2.7067,-2.6846,-2.6044,-2.5764,-2.5696,-2.5689,-2.5692,-2.5907,-2.6787,-2.6357,-2.614,-2.7821,-2.7539,-2.6971,-2.7094,-2.6951,-2.6578,-2.5858,-2.5603,-2.5492,-2.5484,-2.5423,-2.537,-2.5297,-2.5239,-2.5166,-2.5108,-2.5037,-2.4957,-2.4877,-2.4746,-2.4545,-2.4294,-2.4774,-2.5357,-2.6024,-2.6535,-2.7034,-2.7546,-2.74,-2.7169,-2.6889,-2.6724,-2.6725,-2.6842,-2.6538,-2.6349,-2.626,-2.6008,-2.5768,-2.5559,-2.5371,-2.5201,-2.5029,-2.4862,-2.4661,-2.4416,-2.4109,-2.3739,-2.3341,-2.3135,-2.2957,-2.2777,-3.5968,-3.597,-3.6029,-3.6202,-3.6767,-3.7547,-3.8602,-3.9332,-3.9775,-3.9789,-3.9034,-3.8174,-3.7301,-3.6418,-3.5894,-3.5903,-3.5891,-3.5908,-3.59,-3.59,-3.5894,-3.5901,-3.5894,-3.5891,-3.5889,-3.5042,-3.428,-3.3579,-3.3206,-3.2344,-3.1089,-3.16,-3.1456,-3.079,-3.0802,-3.0802,-3.0792,-3.0794,-3.0794,-3.0796,-3.0798,-3.0682,-3.045,-2.9818,-2.9979,-3.0468,-2.9833,-3.0169,-3.0776,-2.9881,-2.8574,-2.7362,-2.7866,-2.7551,-2.6962,-2.6775,-2.6236,-2.5696,-2.564,-2.5626,-2.5982,-2.7523,-2.7226,-2.6825,-2.7957,-2.8,-2.8023,-2.872,-2.7764,-2.692,-2.7373,-2.6339,-2.5417,-2.541,-2.5375,-2.5297,-2.5228,-2.5164,-2.5107,-2.5031,-2.4929,-2.4795,-2.4689,-2.4442,-2.4257,-2.4152,-2.4068,-2.4298,-2.4909,-2.6091,-2.6395,-2.57,-2.7288,-2.7411,-2.5911,-2.6219,-2.6435,-2.6521,-2.6383,-2.6207,-2.5972,-2.5828,-2.5551,-2.5204,-2.5166,-2.495,-2.4625,-2.4645,-2.4441,-2.4088,-2.3903,-2.3566,-2.3113,-2.2762,-2.2457,-2.21,-3.5994,-3.5992,-3.5992,-3.6005,-3.6354,-3.7056,-3.8307,-3.8534,-3.8863,-3.9689,-3.8685,-3.7705,-3.7251,-3.6458,-3.5941,-3.5946,-3.5941,-3.5941,-3.5946,-3.5948,-3.5943,-3.5958,-3.5943,-3.5943,-3.5958,-3.5502,-3.5023,-3.4542,-3.4155,-3.3522,-3.2645,-3.2285,-3.1868,-3.1409,-3.0998,-3.0827,-3.0855,-3.0855,-3.0856,-3.0841,-3.0841,-3.0841,-3.0803,-3.0379,-3.0478,-3.0791,-3.0366,-3.0504,-3.0779,-2.9882,-2.8728,-2.7631,-2.7662,-2.7087,-2.6376,-2.6341,-2.6015,-2.5632,-2.5602,-2.59,-2.6448,-2.7348,-2.7485,-2.7729,-2.9071,-2.8706,-2.8295,-2.9175,-2.8266,-2.7333,-2.7339,-2.6868,-2.6241,-2.5437,-2.5592,-2.5666,-2.5166,-2.5069,-2.5025,-2.4917,-2.4783,-2.461,-2.4381,-2.4154,-2.3988,-2.3904,-2.4026,-2.4355,-2.5009,-2.5604,-2.5961,-2.6053,-2.6725,-2.6705,-2.5933,-2.6146,-2.6136,-2.5921,-2.5956,-2.5917,-2.5791,-2.546,-2.5153,-2.4819,-2.4315,-2.4081,-2.4042,-2.3665,-2.3501,-2.3458,-2.3334,-2.2979,-2.254,-2.2273,-2.1803,-2.1251,-3.5992,-3.6007,-3.6004,-3.5997,-3.5995,-3.6522,-3.8063,-3.7673,-3.7788,-3.939,-3.8218,-3.7221,-3.7223,-3.6481,-3.5994,-3.599,-3.599,-3.5992,-3.5994,-3.5992,-3.5992,-3.5994,-3.5994,-3.5992,-3.599,-3.5992,-3.5903,-3.5682,-3.5178,-3.4774,-3.4456,-3.3145,-3.2392,-3.2064,-3.1347,-3.0982,-3.0909,-3.0909,-3.0892,-3.0894,-3.0894,-3.0894,-3.0894,-3.0895,-3.0895,-3.0896,-3.0897,-3.0702,-3.0332,-2.9603,-2.8777,-2.7915,-2.7039,-2.6376,-2.587,-2.5665,-2.5595,-2.5625,-2.578,-2.6232,-2.672,-2.7039,-2.7438,-2.8214,-2.9858,-2.9066,-2.8186,-2.8902,-2.8319,-2.7444,-2.6703,-2.6935,-2.6776,-2.5384,-2.5728,-2.5869,-2.5088,-2.4954,-2.4891,-2.4757,-2.4602,-2.4372,-2.4087,-2.3878,-2.3739,-2.3667,-2.4171,-2.4701,-2.5227,-2.5537,-2.5982,-2.6642,-2.6332,-2.6135,-2.6095,-2.6067,-2.5889,-2.5554,-2.5458,-2.5451,-2.5532,-2.4929,-2.4527,-2.425,-2.3234,-2.2983,-2.3278,-2.2558,-2.2483,-2.2799,-2.2618,-2.2273,-2.1864,-2.165,-2.1104,-2.0434,-3.5992,-3.5991,-3.6008,-3.6007,-3.6007,-3.6339,-3.7314,-3.7353,-3.7646,-3.8623,-3.7896,-3.729,-3.7294,-3.6511,-3.5998,-3.6009,-3.6009,-3.5992,-3.6,-3.5994,-3.5992,-3.6,-3.6001,-3.5998,-3.6009,-3.5998,-3.5639,-3.485,-3.5516,-3.5053,-3.3599,-3.4108,-3.3548,-3.2094,-3.1978,-3.1533,-3.0894,-3.0894,-3.0894,-3.0894,-3.0894,-3.0894,-3.0895,-3.0896,-3.0897,-3.0898,-3.0839,-2.9876,-2.8614,-2.8449,-2.7816,-2.6949,-2.6069,-2.6234,-2.66,-2.5829,-2.56,-2.576,-2.6521,-2.6229,-2.6049,-2.7559,-2.7408,-2.7134,-2.8133,-2.8135,-2.7957,-2.8073,-2.7332,-2.6642,-2.6462,-2.5849,-2.5285,-2.5051,-2.5068,-2.5045,-2.4856,-2.4791,-2.47,-2.4553,-2.4275,-2.4018,-2.3858,-2.3707,-2.3611,-2.3539,-2.4021,-2.4321,-2.4279,-2.667,-2.7093,-2.5001,-2.7182,-2.7376,-2.5276,-2.5385,-2.5715,-2.6238,-2.517,-2.4726,-2.489,-2.4065,-2.3489,-2.3071,-2.2249,-2.2001,-2.2213,-2.2083,-2.2213,-2.244,-2.2053,-2.1746,-2.141,-2.0822,-2.0308,-1.9875,-3.5996,-3.5996,-3.5996,-3.5995,-3.5995,-3.6288,-3.7165,-3.6891,-3.6891,-3.7767,-3.7102,-3.6574,-3.6576,-3.6223,-3.6007,-3.6004,-3.6004,-3.6005,-3.6008,-3.6006,-3.6005,-3.6008,-3.6008,-3.6007,-3.6004,-3.6007,-3.581,-3.5431,-3.5812,-3.5614,-3.4857,-3.4744,-3.4028,-3.2805,-3.2316,-3.1655,-3.0896,-3.0896,-3.0897,-3.0898,-3.0898,-3.0898,-3.0898,-3.0898,-3.0878,-3.0836,-3.0809,-3.0312,-2.962,-2.9101,-2.8675,-2.8113,-2.6758,-2.6588,-2.6828,-2.6432,-2.5987,-2.5773,-2.6611,-2.6547,-2.6283,-2.6583,-2.664,-2.6617,-2.6525,-2.6447,-2.6664,-2.7638,-2.7102,-2.6407,-2.6314,-2.6331,-2.6013,-2.5,-2.5175,-2.5264,-2.4706,-2.4567,-2.4451,-2.4248,-2.3958,-2.3736,-2.3649,-2.347,-2.333,-2.3229,-2.374,-2.3979,-2.3718,-2.5248,-2.596,-2.5514,-2.5796,-2.5769,-2.5388,-2.4924,-2.4716,-2.478,-2.4594,-2.4741,-2.5145,-2.4122,-2.3258,-2.2515,-2.1554,-2.1288,-2.1459,-2.0965,-2.1187,-2.1793,-2.1496,-2.1044,-2.0547,-2.0118,-1.9708,-1.9317]},{"header":{"parameterUnit":"m.s-1","parameterCategory":1,"la1":30.6,"la2":28.766,"lo1":-90.7593,"lo2":-88.6598,"dy":0.0162,"dx":0.0183,"nx":116,"ny":114,"refTime":"2023-08-01T12:00:00:Z","depth":0,"parameterNumber":3,"parameterNumberName":"V-component_of_WINDS"},"data":[0.0,0.0,0.0,0.0,0.0,0.0,0.0,0.0,0.0,0.0,0.0,0.0,0.0,0.0,0.0,0.0,0.0,0.0,0.0,0.0,0.0,0.0,0.0,0.0,0.0,0.0,0.0,0.0,0.0,0.0,0.0,0.0,0.0,0.0,0.0,0.0,0.0,0.0,0.0,0.0,0.0,0.0,0.0,0.0,0.0,0.0,0.0,0.0,0.0,0.0,0.0,0.0,0.0,0.0,0.0,0.0,0.0,0.0,0.0,0.0,0.0,0.0,0.0,0.0,0.0,0.0,0.0,0.0,0.0,0.0,0.0,0.0,0.0,0.0,0.0,0.0,0.0,0.0,0.0,0.0,0.0,0.0,0.0,0.0,0.0,0.0,0.0,0.0,0.0,0.0,0.0,0.0,0.0,0.0,0.0,0.0,0.0,0.0,0.0,0.0,0.0,0.0,0.0,0.0,0.0,0.0,0.0,0.0,0.0,0.0,0.0,0.0,0.0,0.0,0.0,0.0,0.0,0.0,0.0,0.0,0.0,0.0,0.0,0.0,0.0,0.0,0.0,0.0,0.0,0.0,0.0,0.0,0.0,0.0,0.0,0.0,0.0,0.0,0.0,0.0,0.0,0.0,0.0,0.0,0.0,0.0,0.0,0.0,0.0,0.0,0.0,0.0,0.0,0.0,0.0,0.0,0.0,0.0,0.0,0.0,0.0,0.0,0.0,0.0,0.0,0.0,0.0,0.0,0.0,0.0,0.0,0.0,0.0,0.0,0.0,0.0,0.0,0.0,0.0,0.0,0.0,0.0,0.0,0.0,0.0,0.0,0.0,0.0,0.0,0.0,0.0,0.0,0.0,0.0,0.0,0.0,0.0,0.0,0.0,0.0,0.0,0.0,0.0,0.0,0.0,0.0,0.0,0.0,0.0,0.0,0.0,0.0,0.0,0.0,0.0,0.0,0.0,0.0,0.0,0.0,0.0,0.0,0.0,0.0,0.0,0.0,0.0,0.0,0.0,0.0,0.0,0.0,0.0,0.0,0.0,0.0,0.0,0.0,0.0,0.0,0.0,0.0,0.0,0.0,0.0,0.0,0.0,0.0,0.0,0.0,0.0,0.0,0.0,0.0,0.0,0.0,0.0,0.0,0.0,0.0,0.0,0.0,0.0,0.0,0.0,0.0,0.0,0.0,0.0,0.0,0.0,0.0,0.0,0.0,0.0,0.0,0.0,0.0,0.0,0.0,0.0,0.0,0.0,0.0,0.0,0.0,0.0,0.0,0.0,0.0,0.0,0.0,0.0,0.0,0.0,0.0,0.0,0.0,0.0,0.0,0.0,0.0,0.0,0.0,0.0,0.0,0.0,0.0,0.0,0.0,0.0,0.0,0.0,0.0,0.0,0.0,0.0,0.0,0.0,0.0,0.0,0.0,0.0,0.0,0.0,0.0,0.0,0.0,0.0,0.0,0.0,0.0,0.0,0.0,0.0,0.0,0.0,0.0,0.0,0.0,0.0,0.0,0.0,0.0,0.0,0.0,0.0,0.0,0.0,0.0,0.0,0.0,0.0,0.0,0.0,0.0,0.0,0.0,0.0,0.0,0.0,0.0,0.0,0.0,0.0,0.0,0.0,0.0,0.0,0.0,0.0,0.0,0.0,0.0,0.0,0.0,0.0,0.0,0.0,0.0,0.0,0.0,0.0,0.0,0.0,0.0,0.0,0.0,0.0,0.0,0.0,0.0,0.0,0.0,0.0,0.0,0.0,0.0,0.0,0.0,0.0,0.0,0.0,0.0,0.0,0.0,0.0,0.0,0.0,0.0,0.0,0.0,0.0,0.0,0.0,0.0,0.0,0.0,0.0,0.0,0.0,0.0,0.0,0.0,0.0,0.0,0.0,0.0,0.0,0.0,0.0,0.0,0.0,0.0,0.0,0.0,0.0,0.0,0.0,0.0,0.0,0.0,0.0,0.0,0.0,0.0,0.0,0.0,0.0,0.0,0.0,0.0,0.0,0.0,0.0,0.0,0.0,0.0,0.0,0.0,0.0,0.0,0.0,0.0,0.0,0.0,0.0,0.0,0.0,0.0,0.0,0.0,0.0,0.0,0.0,0.0,0.0,0.0,0.0,0.0,0.0,0.0,0.0,0.0,0.0,0.0,0.0,0.0,0.0,0.0,0.0,0.0,0.0,0.0,0.0,0.0,0.0,0.0,0.0,0.0,0.0,0.0,0.0,0.0,0.0,0.0,0.0,0.0,0.0,0.0,0.0,0.0,0.0,0.0,0.0,0.0,0.0,0.0,0.0,0.0,0.0,0.0,0.0,0.0,0.0,0.0,0.0,0.0,0.0,0.0,0.0,0.0,0.0,0.0,0.0,0.0,0.0,0.0,0.0,0.0,0.0,0.0,0.0,0.0,0.0,0.0,0.0,0.0,0.0,0.0,0.0,0.0,0.0,0.0,0.0,0.0,0.0,0.0,0.0,0.0,0.0,0.0,0.0,0.0,0.0,0.0,0.0,0.0,0.0,0.0,0.0,0.0,0.0,0.0,0.0,0.0,0.0,0.0,0.0,0.0,0.0,0.0,0.0,0.0,0.0,0.0,0.0,0.0,0.0,0.0,0.0,0.0,0.0,0.0,0.0,0.0,0.0,0.0,0.0,0.0,0.0,0.0,0.0,0.0,0.0,0.0,0.0,0.0,0.0,0.0,0.0,0.0,0.0,0.0,0.0,0.0,0.0,0.0,0.0,0.0,0.0,0.0,0.0,0.0,0.0,0.0,0.0,0.0,0.0,0.0,0.0,0.0,0.0,0.0,0.0,0.0,0.0,0.0,0.0,0.0,0.0,0.0,0.0,0.0,0.0,0.0,0.0,0.0,0.0,0.0,0.0,0.0,0.0,0.0,0.0,0.0,0.0,0.0,0.0,0.0,0.0,0.0,0.0,0.0,0.0,0.0,0.0,0.0,0.0,0.0,0.0,0.0,0.0,0.0,0.0,0.0,0.0,0.0,0.0,0.0,0.0,0.0,0.0,0.0,0.0,0.0,0.0,0.0,0.0,0.0,0.0,0.0,0.0,0.0,0.0,0.0,0.0,0.0,0.0,0.0,0.0,0.0,0.0,0.0,0.0,0.0,0.0,0.0,0.0,0.0,0.0,0.0,0.0,0.0,0.0,0.0,0.0,0.0,0.0,0.0,0.0,0.0,0.0,0.0,0.0,0.0,0.0,0.0,0.0,0.0,0.0,0.0,0.0,0.0,0.0,0.0,0.0,0.0,0.0,0.0,0.0,0.0,0.0,0.0,0.0,0.0,0.0,0.0,0.0,0.0,0.0,0.0,0.0,0.0,0.0,0.0,0.0,0.0,0.0,0.0,0.0,0.0,0.0,0.0,0.0,0.0,0.0,0.0,0.0,0.0,0.0,0.0,0.0,0.0,0.0,0.0,0.0,0.0,0.0,0.0,0.0,0.0,0.0,0.0,0.0,0.0,0.0,0.0,0.0,0.0,0.0,0.0,0.0,0.0,0.0,0.0,0.0,0.0,0.0,0.0,0.0,0.0,0.0,0.0,0.0,0.0,0.0,0.0,0.0,0.0,0.0,0.0,0.0,0.0,0.0,0.0,0.0,0.0,0.0,0.0,0.0,0.0,0.0,0.0,0.0,0.0,0.0,0.0,0.0,0.0,0.0,0.0,0.0,0.0,0.0,0.0,0.0,0.0,0.0,0.0,0.0,0.0,0.0,0.0,0.0,0.0,0.0,0.0,0.0,0.0,0.0,0.0,0.0,0.0,0.0,0.0,0.0,0.0,0.0,0.0,0.0,0.0,0.0,0.0,0.0,0.0,0.0,0.0,0.0,0.0,0.0,0.0,0.0,0.0,0.0,0.0,0.0,0.0,0.0,0.0,0.0,0.0,0.0,0.0,0.0,0.0,0.0,0.0,0.0,0.0,0.0,0.0,0.0,0.0,0.0,0.0,0.0,0.0,0.0,0.0,0.0,0.0,0.0,0.0,0.0,0.0,0.0,0.0,0.0,0.0,0.0,0.0,0.0,0.0,0.0,0.0,0.0,0.0,0.0,0.0,0.0,0.0,0.0,0.0,0.0,0.0,0.0,0.0,0.0,0.0,0.0,0.0,0.0,0.0,0.0,0.0,0.0,0.0,0.0,0.0,0.0,0.0,0.0,0.0,0.0,0.0,0.0,0.0,0.0,0.0,0.0,0.0,0.0,0.0,0.0,0.0,0.0,0.0,0.0,0.0,0.0,0.0,0.0,0.0,0.0,0.0,0.0,0.0,0.0,0.0,0.0,0.0,0.0,0.0,0.0,0.0,0.0,0.0,0.0,0.0,0.0,0.0,0.0,0.0,0.0,0.0,0.0,0.0,0.0,0.0,0.0,0.0,0.0,0.0,0.0,0.0,0.0,0.0,0.0,0.0,0.0,0.0,0.0,0.0,0.0,0.0,0.0,0.0,0.0,0.0,0.0,0.0,0.0,0.0,0.0,0.0,0.0,0.0,0.0,0.0,0.0,0.0,0.0,0.0,0.0,0.0,0.0,0.0,0.0,0.0,0.0,0.0,0.0,0.0,0.0,0.0,0.0,0.0,0.0,0.0,0.0,0.0,0.0,0.0,0.0,0.0,0.0,0.0,0.0,0.0,0.0,0.0,0.0,0.0,0.0,0.0,0.0,0.0,0.0,0.0,0.0,0.0,0.0,0.0,0.0,0.0,0.0,0.0,0.0,0.0,0.0,0.0,0.0,0.0,0.0,0.0,0.0,0.0,0.0,0.0,0.0,0.0,0.0,0.0,0.0,0.0,0.0,0.0,0.0,0.0,0.0,0.0,0.0,0.0,0.0,0.0,0.0,0.0,0.0,0.0,0.0,0.0,0.0,0.0,0.0,0.0,0.0,0.0,0.0,0.0,0.0,0.0,0.0,0.0,0.0,0.0,0.0,0.0,0.0,0.0,0.0,0.0,0.0,0.0,0.0,0.0,0.0,0.0,0.0,0.0,0.0,0.0,0.0,0.0,0.0,0.0,0.0,0.0,0.0,0.0,0.0,0.0,0.0,0.0,0.0,0.0,0.0,0.0,0.0,0.0,0.0,0.0,0.0,0.0,0.0,0.0,0.0,0.0,0.0,0.0,0.0,0.0,0.0,0.0,0.0,0.0,0.0,0.0,0.0,0.0,0.0,0.0,0.0,0.0,0.0,0.0,0.0,0.0,0.0,0.0,0.0,0.0,0.0,0.0,0.0,0.0,0.0,0.0,0.0,0.0,0.0,0.0,0.0,0.0,0.0,0.0,0.0,0.0,0.0,0.0,0.0,0.0,0.0,0.0,0.0,0.0,0.0,0.0,0.0,0.0,0.0,0.0,0.0,0.0,0.0,0.0,0.0,0.0,0.0,0.0,0.0,0.0,0.0,0.0,0.0,0.0,0.0,0.0,0.0,0.0,0.0,0.0,0.0,0.0,0.0,0.0,0.0,0.0,0.0,0.0,0.0,0.0,0.0,0.0,0.0,0.0,0.0,0.0,0.0,0.0,0.0,0.0,0.0,0.0,0.0,0.0,0.0,0.0,0.0,0.0,0.0,0.0,0.0,0.0,0.0,0.0,0.0,0.0,0.0,0.0,0.0,0.0,0.0,0.0,0.0,0.0,0.0,0.0,0.0,0.0,0.0,0.0,0.0,0.0,0.0,0.0,0.0,0.0,0.0,0.0,0.0,0.0,0.0,0.0,0.0,0.0,0.0,0.0,0.0,0.0,0.0,0.0,0.0,0.0,0.0,0.0,0.0,0.0,0.0,0.0,0.0,0.0,0.0,0.0,0.0,0.0,0.0,0.0,0.0,0.0,0.0,0.0,0.0,0.0,0.0,0.0,0.0,0.0,0.0,0.0,0.0,0.0,0.0,0.0,0.0,0.0,0.0,0.0,0.0,0.0,0.0,0.0,0.0,0.0,0.0,0.0,0.0,0.0,0.0,0.0,0.0,0.0,0.0,0.0,0.0,0.0,0.0,0.0,0.0,0.0,0.0,0.0,0.0,0.0,0.0,0.0,0.0,0.0,0.0,0.0,0.0,0.0,0.0,0.0,0.0,0.0,0.0,0.0,0.0,0.0,-0.3698,0.0,0.0,0.0,0.0,0.0,0.0,0.0,0.0,0.0,0.0,0.0,0.0,0.0,0.0,0.0,0.0,0.0,0.0,0.0,0.0,0.0,0.0,0.0,0.0,0.0,0.0,0.0,0.0,0.0,0.0,0.0,0.0,0.0,0.0,0.0,0.0,0.0,0.0,0.0,-0.6934,-0.7465,-0.8311,-0.8156,-0.786,-0.7429,0.0,0.0,0.0,0.0,0.0,0.0,0.0,0.0,0.0,0.0,0.0,0.0,0.0,0.0,0.0,0.0,0.0,0.0,0.0,0.0,0.0,0.0,0.0,0.0,0.0,0.0,0.0,0.0,0.0,0.0,0.0,0.0,0.0,0.0,0.0,0.0,0.0,0.0,0.0,0.0,0.0,0.0,0.0,0.0,0.0,0.0,0.0,0.0,0.0,0.0,0.0,0.0,0.0,0.0,0.0,0.0,0.0,0.0,0.0,0.0,0.0,0.0,0.0,0.0,0.0,0.0,0.0,0.0,0.0,0.0,0.0,-0.4213,0.0,0.0,0.0,0.0,0.0,0.0,0.0,0.0,0.0,0.0,0.0,0.0,0.0,0.0,0.0,0.0,0.0,0.0,0.0,0.0,0.0,0.0,0.0,0.0,0.0,0.0,0.0,0.0,0.0,0.0,0.0,0.0,0.0,0.0,0.0,0.0,0.0,-0.7209,-0.7589,-0.8436,-0.9707,-0.9744,-0.926,-0.8344,-0.8084,0.0,0.0,0.0,0.0,0.0,0.0,0.0,0.0,0.0,0.0,0.0,0.0,0.0,0.0,0.0,0.0,0.0,0.0,0.0,0.0,0.0,0.0,0.0,0.0,0.0,0.0,0.0,0.0,0.0,0.0,0.0,0.0,0.0,0.0,0.0,0.0,0.0,0.0,0.0,0.0,0.0,0.0,0.0,0.0,0.0,0.0,0.0,0.0,0.0,0.0,0.0,0.0,0.0,0.0,0.0,0.0,0.0,0.0,0.0,0.0,0.0,0.0,0.0,0.0,-0.461,-0.4816,-0.493,-0.5058,-0.5126,-0.5031,-0.4885,-0.4731,0.0,0.0,0.0,0.0,0.0,0.0,0.0,0.0,0.0,0.0,0.0,0.0,0.0,0.0,0.0,0.0,0.0,0.0,0.0,0.0,0.0,0.0,0.0,0.0,0.0,0.0,0.0,0.0,0.0,0.0,0.0,0.0,0.0,0.0,-0.7192,-0.7412,-0.7704,-0.8775,-0.9604,-1.0207,-1.0406,-1.0519,-1.0525,-0.9707,-0.9182,-0.8921,0.0,0.0,0.0,0.0,0.0,0.0,0.0,0.0,0.0,0.0,0.0,0.0,0.0,0.0,0.0,0.0,0.0,0.0,0.0,0.0,0.0,0.0,0.0,0.0,0.0,0.0,0.0,0.0,0.0,0.0,0.0,0.0,0.0,0.0,0.0,0.0,0.0,0.0,0.0,0.0,0.0,-0.3326,-0.3691,0.0,0.0,0.0,0.0,0.0,0.0,0.0,0.0,0.0,0.0,0.0,0.0,0.0,0.0,-0.4504,-0.4976,-0.5143,-0.5072,-0.5243,-0.5347,-0.5317,-0.5317,-0.5325,-0.5377,-0.552,0.0,-0.5332,-0.4942,0.0,0.0,0.0,0.0,0.0,0.0,0.0,0.0,0.0,0.0,0.0,0.0,0.0,0.0,0.0,0.0,0.0,0.0,0.0,0.0,0.0,0.0,0.0,0.0,0.0,0.0,0.0,0.0,0.0,0.0,0.0,0.0,-0.7112,-0.7456,-0.8027,-0.8797,-0.9992,-1.064,-1.0855,-1.1122,-1.1273,-1.1377,-1.08,-1.042,-1.0158,-0.9388,0.0,0.0,0.0,0.0,0.0,0.0,0.0,0.0,0.0,0.0,0.0,0.0,0.0,0.0,0.0,0.0,0.0,0.0,0.0,0.0,0.0,0.0,0.0,0.0,0.0,0.0,0.0,0.0,0.0,0.0,0.0,0.0,0.0,0.0,0.0,0.0,0.0,0.0,0.0,-0.3337,-0.3938,-0.4064,-0.4207,-0.425,0.0,0.0,0.0,0.0,0.0,0.0,0.0,0.0,0.0,-0.5012,-0.5277,-0.5351,-0.5212,-0.5383,-0.551,-0.5589,-0.5588,-0.5615,-0.567,-0.5741,-0.57,-0.5575,-0.5662,-0.5712,-0.5723,-0.5507,-0.5312,-0.5127,0.0,0.0,0.0,0.0,0.0,-0.4887,0.0,0.0,0.0,0.0,0.0,0.0,0.0,0.0,0.0,0.0,0.0,0.0,0.0,0.0,0.0,-0.9551,0.0,0.0,0.0,0.0,0.0,0.0,0.0,-0.7112,-0.7176,-0.7822,-0.8684,-0.976,-1.0785,-1.1337,-1.1402,-1.1677,-1.1823,-1.1852,-1.1684,-1.1415,-1.1128,-1.0284,-0.9445,-0.8573,0.0,0.0,0.0,0.0,0.0,0.0,0.0,0.0,0.0,0.0,0.0,0.0,0.0,0.0,0.0,0.0,0.0,0.0,0.0,0.0,0.0,0.0,0.0,0.0,0.0,0.0,0.0,0.0,0.0,0.0,0.0,0.0,0.0,0.0,0.0,0.0,0.0,-0.3912,-0.4481,-0.4449,-0.4856,-0.4969,0.0,0.0,0.0,0.0,0.0,0.0,-0.544,-0.5638,-0.5759,-0.5785,-0.5898,-0.5941,-0.5869,-0.5854,-0.5927,-0.604,-0.5954,-0.5957,-0.6043,-0.6059,-0.5961,-0.582,-0.5715,-0.5786,-0.5912,-0.5823,-0.5758,-0.5661,-0.555,-0.5484,-0.5433,-0.5583,-0.5542,-0.5532,0.0,0.0,0.0,0.0,0.0,0.0,0.0,0.0,0.0,0.0,0.0,0.0,0.0,0.0,-0.9494,-1.0544,-1.0424,-1.0426,0.0,0.0,0.0,0.0,-0.7592,-0.7192,-0.7373,-0.8517,-0.9502,-1.0256,-1.0951,-1.1418,-1.1688,-1.1964,-1.2161,-1.2351,-1.2335,-1.2083,-1.163,-1.0852,-1.008,-0.9261,-0.8386,0.0,0.0,0.0,0.0,0.0,0.0,0.0,0.0,0.0,0.0,0.0,0.0,0.0,0.0,0.0,0.0,0.0,0.0,0.0,0.0,0.0,0.0,0.0,0.0,0.0,0.0,0.0,0.0,0.0,0.0,0.0,0.0,0.0,0.0,0.0,0.0,0.0,0.0,-0.5137,-0.5619,0.0,0.0,0.0,0.0,-0.5448,-0.5623,-0.5883,-0.6148,-0.6339,-0.6491,-0.6545,-0.669,-0.6588,-0.6292,-0.6593,-0.6629,-0.6446,-0.6394,-0.6394,-0.6444,-0.61,-0.5969,-0.6056,-0.5831,-0.5793,-0.5895,-0.5627,-0.5737,-0.6069,-0.5918,-0.6011,-0.6242,-0.6252,-0.6334,-0.6429,0.0,0.0,0.0,0.0,0.0,0.0,0.0,0.0,0.0,0.0,0.0,0.0,0.0,-0.947,-1.0461,-1.0984,-1.154,-1.1714,-1.1374,0.0,0.0,0.0,-0.834,-0.8031,-0.8802,-0.9378,-1.0019,-1.0735,-1.1451,-1.1768,-1.1709,-1.1913,-1.212,-1.2331,-1.189,-1.1733,-1.1819,-1.144,-1.0702,-0.9723,-0.896,-0.7943,0.0,0.0,0.0,0.0,0.0,0.0,0.0,0.0,0.0,0.0,0.0,0.0,0.0,0.0,0.0,0.0,0.0,0.0,0.0,0.0,0.0,0.0,0.0,0.0,0.0,0.0,0.0,0.0,0.0,0.0,0.0,0.0,0.0,0.0,0.0,0.0,0.0,-0.5825,-0.618,0.0,-0.6119,-0.6147,-0.6219,-0.6408,-0.6675,-0.6907,-0.7104,-0.7168,-0.7222,-0.7263,-0.727,-0.7216,-0.7051,-0.7112,-0.7041,-0.6945,-0.6716,-0.6582,-0.6633,-0.6327,-0.6187,-0.6086,-0.6081,-0.601,-0.589,-0.5808,-0.595,-0.6291,-0.6322,-0.6478,-0.6678,-0.658,-0.6576,-0.6614,0.0,0.0,0.0,0.0,0.0,0.0,0.0,0.0,0.0,0.0,0.0,-0.8236,-0.8728,-1.0052,-1.1137,-1.166,-1.2158,-1.2284,-1.1993,0.0,0.0,0.0,-0.8986,-0.8794,-0.9665,-0.9997,-1.0433,-1.0982,-1.1662,-1.1937,-1.1822,-1.1863,-1.2067,-1.2415,-1.164,-1.1469,-1.1694,-1.1512,-1.0925,-1.0035,-0.9468,-0.859,-0.7538,0.0,0.0,0.0,0.0,0.0,0.0,0.0,0.0,0.0,0.0,0.0,0.0,0.0,0.0,0.0,0.0,0.0,0.0,0.0,0.0,0.0,0.0,0.0,0.0,0.0,0.0,0.0,0.0,0.0,0.0,0.0,0.0,0.0,0.0,0.0,-0.5889,-0.6239,-0.6603,-0.6777,-0.658,-0.6784,-0.7012,-0.7115,-0.7392,-0.7543,-0.7597,-0.76,-0.7599,-0.759,-0.7541,-0.7509,-0.7443,-0.7412,-0.7391,-0.7338,-0.6957,-0.6821,-0.6865,-0.6511,-0.6314,-0.6203,-0.6206,-0.6138,-0.6024,-0.5983,-0.6144,-0.6412,-0.6499,-0.665,-0.686,-0.6842,-0.6809,-0.6724,0.0,0.0,0.0,0.0,0.0,0.0,0.0,0.0,0.0,0.0,-0.7445,-0.8337,-0.9913,-1.061,-1.1418,-1.259,-1.2234,-1.2155,-1.2674,-1.1307,0.0,0.0,-0.9497,-0.9402,-0.9938,-1.0372,-1.0762,-1.0993,-1.1467,-1.1817,-1.2083,-1.1814,-1.2047,-1.2623,-1.1743,-1.1336,-1.1252,-1.1069,-1.0725,-1.0283,-0.9857,-0.9182,-0.8298,0.0,0.0,0.0,0.0,0.0,0.0,0.0,0.0,0.0,0.0,0.0,0.0,0.0,0.0,0.0,0.0,0.0,0.0,0.0,0.0,0.0,0.0,0.0,0.0,0.0,0.0,0.0,0.0,0.0,0.0,0.0,0.0,0.0,-0.5306,-0.5912,-0.6356,-0.6411,-0.7021,-0.7268,-0.694,-0.735,-0.7611,-0.7617,-0.7743,-0.776,-0.7628,-0.7596,-0.76,-0.7603,-0.748,-0.7443,-0.7443,-0.7569,-0.7603,-0.7603,-0.722,-0.7076,-0.7191,-0.6576,-0.6336,-0.6373,-0.6195,-0.6162,-0.6309,-0.614,-0.6228,-0.6382,-0.6403,-0.6574,-0.6799,-0.7013,-0.6966,-0.6795,0.0,0.0,0.0,0.0,0.0,0.0,0.0,0.0,0.0,0.0,-0.8091,-0.9135,-0.981,-1.1095,-1.2142,-1.2656,-1.2397,-1.2349,-1.2681,0.0,0.0,0.0,-1.0373,-1.0577,-1.0906,-1.0912,-1.1009,-1.1209,-1.1553,-1.1641,-1.1576,-1.1466,-1.15,-1.1674,-1.1073,-1.0878,-1.1008,-1.0855,-1.0582,-1.0279,-1.0018,-0.9442,-0.861,0.0,0.0,0.0,0.0,0.0,0.0,0.0,0.0,0.0,0.0,0.0,0.0,0.0,0.0,0.0,0.0,0.0,0.0,0.0,0.0,0.0,0.0,0.0,0.0,0.0,0.0,0.0,0.0,0.0,0.0,0.0,0.0,-0.6443,-0.6205,-0.6499,-0.689,-0.7228,-0.7415,-0.7546,-0.7567,-0.7682,-0.7845,-0.8069,-0.8018,-0.8007,-0.8082,-0.7959,-0.7942,-0.8103,-0.8095,-0.8064,-0.8064,-0.8075,-0.8106,-0.8106,-0.7557,-0.7354,-0.7388,-0.6791,-0.6491,-0.6381,-0.6317,-0.6312,-0.6314,-0.6281,-0.6213,-0.6208,-0.6285,-0.6448,-0.6659,-0.6828,-0.6922,-0.701,0.0,0.0,0.0,0.0,0.0,0.0,0.0,0.0,0.0,0.0,-0.8313,-0.9424,-1.0228,-1.1315,-1.218,-1.2662,-1.2367,-1.2119,-1.2041,0.0,0.0,0.0,-1.1122,-1.1322,-1.1593,-1.1505,-1.1451,-1.145,-1.1634,-1.1663,-1.1528,-1.119,-1.1161,-1.1252,-1.0634,-1.0521,-1.0772,-1.0524,-1.0342,-1.0168,-1.0038,-0.9644,-0.9076,-0.8379,-0.7829,-0.739,-0.732,-0.692,-0.6523,-0.673,0.0,0.0,0.0,0.0,0.0,0.0,0.0,0.0,0.0,0.0,0.0,0.0,0.0,0.0,0.0,0.0,0.0,0.0,0.0,0.0,0.0,0.0,0.0,0.0,-0.709,-0.7596,-0.7506,-0.7438,-0.7424,-0.7658,-0.7787,-0.7822,-0.7804,-0.7966,-0.8125,-0.8311,-0.8239,-0.8225,-0.8318,-0.8139,-0.8029,-0.817,-0.8174,-0.8174,-0.8174,-0.8238,-0.8238,-0.8177,-0.7682,-0.7498,-0.7446,-0.7033,-0.673,0.0,-0.6617,-0.6548,-0.6339,-0.6339,-0.6295,0.0,0.0,0.0,0.0,0.0,-0.683,-0.7144,0.0,0.0,0.0,0.0,0.0,0.0,0.0,0.0,0.0,0.0,0.0,-0.9485,-1.0825,-1.1272,-1.1793,-1.2548,-1.2131,-1.1603,0.0,0.0,0.0,-1.1968,-1.1781,-1.1773,-1.2034,-1.2064,-1.1948,-1.1698,-1.1725,-1.1709,-1.162,-1.1011,-1.0925,-1.1166,-1.0407,-1.0274,-1.0592,-1.0222,-1.0051,-1.0028,-1.0004,-0.9828,-0.9498,-0.876,-0.8458,-0.8397,-0.8268,-0.7836,-0.7393,-0.7455,0.0,0.0,0.0,0.0,0.0,0.0,0.0,0.0,0.0,0.0,0.0,0.0,0.0,0.0,0.0,0.0,0.0,0.0,0.0,0.0,0.0,0.0,0.0,0.0,-0.8121,-0.8607,-0.8889,-0.8542,-0.8126,-0.8018,-0.8122,-0.816,-0.791,-0.8213,-0.8389,-0.8407,-0.8411,-0.8411,-0.8411,0.0,0.0,0.0,0.0,-0.7988,-0.7988,-0.8177,-0.8191,-0.7992,-0.7739,-0.754,-0.744,-0.7293,-0.7014,-0.6692,-0.7007,-0.683,-0.6408,-0.6408,-0.6398,-0.6415,-0.6379,-0.6372,-0.6408,-0.6408,-0.6738,0.0,0.0,0.0,0.0,0.0,0.0,0.0,0.0,0.0,0.0,-0.7955,-0.8911,-0.9875,-1.0754,-1.118,-1.1597,-1.2023,-1.1576,-1.1317,0.0,0.0,-1.1896,-1.2524,-1.2147,-1.204,-1.2334,-1.1943,-1.1747,-1.1698,-1.1932,-1.1817,-1.1349,-1.1085,-1.086,-1.0724,-1.0554,-1.0545,-1.057,-1.0531,-1.0403,-1.0241,-1.0066,-0.9828,-0.9531,-0.9078,-0.8791,-0.8596,-0.824,-0.8042,-0.7957,-0.7952,-0.7803,-0.7555,-0.7276,0.0,0.0,0.0,0.0,0.0,0.0,0.0,0.0,0.0,0.0,0.0,0.0,0.0,0.0,0.0,0.0,0.0,0.0,0.0,0.0,-0.8415,-0.8815,-0.9107,-0.9289,-0.9385,-0.9354,-0.9131,-0.8816,-0.8585,-0.8531,-0.8442,-0.8485,-0.8617,-0.8628,-0.8628,-0.8628,-0.8377,0.0,-0.7992,-0.7988,-0.7988,-0.7988,-0.8019,-0.8039,-0.7982,0.0,0.0,-0.7817,-0.7472,-0.7251,-0.7078,-0.713,-0.6955,-0.6584,-0.6584,-0.6473,-0.6373,-0.6333,-0.6362,-0.6408,-0.6408,-0.6599,-0.6885,0.0,0.0,0.0,0.0,0.0,0.0,0.0,0.0,0.0,0.0,-0.889,-0.9669,-1.0411,-1.0619,-1.0728,-1.0857,-1.0392,0.0,0.0,-1.1304,-1.174,-1.2303,-1.2228,-1.2231,-1.2237,-1.2117,-1.2,-1.1921,-1.2035,-1.1905,-1.1487,-1.1271,-1.1045,-1.0798,-1.1059,-1.1157,-1.1157,-1.1017,-1.0912,-1.075,-1.0443,-1.014,-0.987,-0.9363,-0.9104,-0.8961,-0.878,-0.8562,-0.8413,-0.8495,-0.8307,-0.8016,-0.7813,-0.7581,-0.7283,0.0,0.0,0.0,0.0,0.0,0.0,0.0,0.0,0.0,0.0,0.0,0.0,0.0,0.0,-0.7722,0.0,0.0,-0.9058,-0.9404,-0.9649,-0.9836,-0.9908,-1.0109,-1.0044,-0.9455,-0.908,-0.8827,-0.8725,-0.8625,-0.8663,-0.8747,-0.8827,-0.8842,-0.8758,-0.8549,-0.8272,-0.7995,-0.8113,-0.8052,-0.7894,-0.797,-0.7975,-0.8013,-0.7728,-0.7684,-0.7843,-0.7586,-0.7331,-0.7105,-0.7265,-0.7085,-0.6711,-0.6711,-0.6673,-0.6613,-0.6559,-0.6612,-0.6689,-0.6474,-0.6689,-0.7082,0.0,0.0,0.0,0.0,0.0,0.0,0.0,0.0,0.0,0.0,-0.868,-0.9286,-0.9972,-0.9848,-0.973,0.0,0.0,0.0,0.0,-1.1077,-1.1612,-1.2169,-1.245,-1.2462,-1.2316,-1.2472,-1.2458,-1.2257,-1.2259,-1.2142,-1.1806,-1.1628,-1.1439,-1.1263,-1.1579,-1.1761,-1.1801,-1.1515,-1.138,-1.1268,-1.0865,-1.0567,-1.0308,-0.963,-0.9319,-0.9272,-0.9152,-0.8918,-0.8668,-0.8976,-0.873,-0.8291,-0.8296,-0.822,-0.8036,-0.761,-0.7522,0.0,0.0,0.0,0.0,0.0,0.0,0.0,0.0,0.0,-0.7212,-0.7993,-0.8419,-0.8794,-0.9292,-0.9583,-0.9827,-1.0167,-1.0314,-1.0391,-1.0427,-1.0603,-1.0411,-0.9678,-0.9335,-0.9064,-0.878,-0.8725,-0.8726,-0.8726,-0.8961,-0.9037,-0.8737,-0.8656,-0.8443,-0.8096,-0.8231,-0.8155,-0.7837,-0.7952,-0.7973,-0.7896,-0.7686,-0.7636,-0.7777,-0.7668,-0.7442,-0.7127,-0.7262,-0.7141,-0.6836,-0.6812,-0.6801,-0.6801,-0.6801,-0.6862,-0.6941,-0.6604,-0.6811,-0.7223,0.0,0.0,0.0,0.0,0.0,0.0,0.0,0.0,0.0,0.0,0.0,0.0,0.0,0.0,0.0,0.0,0.0,0.0,-1.1574,-1.1972,-1.2398,-1.2967,-1.3042,-1.3093,-1.3064,-1.3107,-1.3005,-1.2706,-1.2916,-1.2775,-1.2335,-1.2115,-1.2086,-1.2128,-1.1979,-1.2007,-1.222,-1.1927,-1.1588,-1.1176,-1.1012,-1.0791,-1.0471,-0.9804,-0.9446,-0.9235,-0.8673,-0.8458,-0.8515,-0.9096,-0.8858,-0.8418,-0.9125,-0.8984,-0.8535,-0.8477,-0.8102,-0.7744,-0.7647,-0.7706,-0.7744,-0.7837,-0.7809,-0.8092,0.0,0.0,-0.8922,-0.9223,-0.9688,-0.9853,-0.9405,-0.9774,-1.0167,-1.0208,-1.0314,-1.0435,-1.0643,-1.068,-1.0619,-1.0321,-0.9719,-0.9298,-0.9093,-0.8675,-0.8432,-0.8432,-0.8969,-0.9057,-0.8496,-0.8866,-0.8864,-0.8306,-0.8384,-0.8302,-0.7987,-0.8003,-0.7809,-0.7447,-0.7419,-0.7489,-0.7642,-0.7598,-0.7598,-0.7526,-0.7193,-0.7032,-0.6956,-0.6847,-0.6801,-0.6801,-0.6801,-0.6861,-0.6983,-0.6806,-0.67,-0.6722,0.0,0.0,0.0,0.0,0.0,0.0,0.0,0.0,0.0,0.0,0.0,0.0,0.0,0.0,0.0,0.0,0.0,0.0,-1.0707,-1.156,-1.2117,-1.2213,-1.2711,-1.2808,-1.2524,-1.2818,-1.2839,-1.2561,-1.2654,-1.2608,-1.2416,-1.2321,-1.24,-1.2581,-1.2546,-1.2684,-1.2924,-1.235,-1.1999,-1.1776,-1.1298,-1.0934,-1.0518,-0.9886,-0.9489,-0.9211,-0.8608,-0.8403,0.0,0.0,-0.8774,-0.8649,-0.9227,-0.909,-0.8785,-0.8832,-0.8772,-0.8723,-0.9048,-0.91,-0.9083,0.0,-0.9373,-0.96,-1.0109,-0.9955,-0.9804,-1.025,-1.0322,-1.0221,-0.9972,-1.0168,-1.0322,0.0,-1.0383,-1.0493,-1.0668,-1.0607,-1.0477,-1.0298,-0.9648,-0.9208,-0.9086,-0.8675,-0.8382,-0.8382,-0.8747,-0.8819,-0.8578,-0.8776,-0.8771,-0.8453,-0.8452,-0.8312,-0.7864,-0.779,-0.7698,-0.7526,-0.7358,-0.7387,-0.7607,-0.7438,-0.7365,-0.7429,-0.7267,-0.723,-0.7285,-0.7163,-0.7003,-0.689,-0.698,-0.6931,-0.6843,-0.6818,-0.6771,-0.6717,0.0,0.0,0.0,0.0,0.0,0.0,0.0,0.0,0.0,0.0,0.0,0.0,0.0,0.0,0.0,0.0,0.0,0.0,0.0,-1.1168,-1.1788,-1.1804,-1.2551,-1.2785,-1.2288,-1.2915,-1.3034,-1.2702,-1.2797,-1.2797,-1.2702,-1.2702,-1.2827,-1.3117,-1.3066,-1.3225,-1.3483,-1.273,-1.2387,-1.235,-1.1761,-1.1221,-1.0752,-1.0091,-0.9649,-0.9202,-0.8548,-0.8327,0.0,0.0,-0.8588,-0.8615,-0.9041,-0.9033,-0.8951,-0.9156,-0.9389,-0.962,-0.9932,-1.0075,0.0,-1.0325,-1.0564,-1.0718,-1.0725,-1.0542,-1.0523,-1.0833,-1.0662,-1.0432,-1.0334,-1.0249,-1.0282,-1.0282,-1.0318,-1.0493,-1.0668,-1.0546,-1.0367,-1.0237,-0.9539,-0.906,-0.9011,-0.86,-0.8283,-0.8283,-0.857,-0.8717,-0.8575,-0.88,-0.881,-0.855,-0.8584,-0.8391,-0.7841,-0.775,-0.7639,-0.7493,-0.7268,-0.7285,-0.7491,-0.7354,-0.7304,-0.7328,-0.7328,-0.7437,-0.751,-0.7423,-0.7197,-0.6989,-0.7073,-0.6964,-0.6695,-0.6748,-0.6805,-0.6737,0.0,0.0,0.0,0.0,0.0,0.0,0.0,0.0,0.0,0.0,0.0,0.0,0.0,0.0,0.0,0.0,0.0,0.0,0.0,-1.1174,-1.1742,-1.2253,-1.3041,-1.3326,-1.3087,-1.3873,-1.4004,-1.348,-1.3727,-1.3727,-1.348,-1.348,-1.361,-1.3849,-1.3308,-1.3327,-1.3735,-1.298,-1.2658,-1.2607,-1.2405,-1.1945,-1.1199,-1.0543,-0.9856,-0.9202,-0.8401,0.0,0.0,0.0,-0.8277,-0.8197,-0.8751,-0.8906,0.0,-0.9598,-0.995,-1.0104,-0.9779,-1.0246,-1.0784,-1.0783,-1.1014,-1.1242,-1.1163,-1.1231,-1.1163,-1.0856,-1.0712,-1.0475,-1.0062,-0.9937,-0.99,-0.99,-1.0201,-1.0493,-1.0668,-1.0546,-1.0367,-1.0237,-0.9539,-0.9015,0.0,-0.8336,-0.7988,-0.7988,-0.8566,-0.8723,-0.833,-0.9012,-0.9187,-0.871,-0.8849,-0.8592,-0.7983,-0.798,-0.7703,-0.721,-0.721,-0.7217,-0.7334,-0.7453,-0.751,-0.7513,-0.7513,-0.7516,-0.7519,-0.7513,-0.7385,-0.728,-0.6995,-0.6812,-0.6712,-0.6707,-0.673,-0.6801,0.0,0.0,0.0,0.0,0.0,0.0,0.0,0.0,0.0,0.0,0.0,0.0,0.0,0.0,0.0,0.0,0.0,0.0,0.0,-1.0874,-1.1422,-1.1676,-1.2631,-1.2982,-1.2595,-1.3184,-1.331,-1.2985,-1.3078,-1.3078,-1.2985,-1.2985,-1.3027,-1.3137,-1.2954,-1.2906,-1.3046,-1.2642,-1.2324,-1.2123,-1.1928,-1.1541,-1.1035,-1.048,-0.9895,-0.9241,0.0,0.0,0.0,0.0,-0.8139,-0.8375,-0.8816,-0.9063,-0.9308,-0.9924,-1.0283,-1.0571,-1.0983,-1.135,-1.1751,-1.2037,-1.2325,-1.2451,-1.2284,-1.1999,-1.1689,-1.1611,-1.0899,-1.0294,-1.0243,-0.985,-0.9661,-0.9847,-1.0139,-1.0381,-1.0481,-1.0634,-1.0534,-1.0065,-0.9725,0.0,0.0,0.0,0.0,-0.7988,-0.833,-0.8464,-0.846,-0.8759,-0.8917,-0.8859,-0.8815,-0.8504,-0.7989,-0.7898,-0.7624,-0.7213,-0.7236,-0.7296,-0.7282,-0.7462,-0.7565,-0.7638,-0.7398,-0.75,-0.7747,-0.7427,-0.7269,-0.7156,-0.6971,-0.6704,-0.6432,-0.6358,-0.6293,-0.6273,0.0,0.0,0.0,0.0,0.0,0.0,0.0,0.0,0.0,0.0,0.0,0.0,0.0,0.0,0.0,0.0,0.0,0.0,0.0,0.0,-1.0895,-1.1157,-1.1982,-1.2288,-1.1881,-1.2423,-1.2589,-1.2413,-1.2593,-1.2684,-1.2684,-1.2738,-1.2734,-1.2637,-1.2554,-1.2517,-1.2597,-1.2349,-1.2167,-1.2075,-1.1765,-1.1379,-1.096,-1.0391,-0.9761,0.0,0.0,0.0,0.0,0.0,-0.782,-0.8349,-0.8694,-0.9247,-0.9852,-1.0263,-1.0631,-1.1061,-1.1746,-1.2195,-1.2554,-1.2904,-1.314,-1.3216,-1.2824,-1.2366,-1.1945,-1.1705,-1.0793,-1.0049,-0.9938,-0.9498,-0.9222,-0.9665,-0.99,-1.0165,-1.0456,-1.0634,-1.0559,-1.0111,-0.9924,-0.9704,0.0,0.0,0.0,-0.8197,-0.834,-0.8469,-0.856,-0.871,-0.8835,-0.8878,-0.879,-0.8588,-0.8227,-0.814,-0.7864,-0.7388,-0.7399,-0.7342,-0.7407,-0.757,-0.7627,-0.7582,-0.7336,-0.7438,-0.7683,-0.7367,-0.7207,-0.7095,-0.6869,-0.6534,-0.62,-0.6003,-0.5831,-0.5686,0.0,0.0,0.0,0.0,0.0,0.0,0.0,0.0,0.0,0.0,0.0,0.0,0.0,0.0,0.0,0.0,0.0,0.0,0.0,0.0,0.0,-1.0616,-1.1172,-1.1319,-1.1093,-1.1587,-1.1884,-1.1893,-1.2379,-1.2632,-1.2608,-1.2687,-1.2545,-1.2334,-1.2112,-1.2132,-1.2308,-1.2142,-1.2181,-1.2285,-1.1844,-1.1379,-1.0867,-1.0249,0.0,0.0,0.0,0.0,0.0,-0.7005,-0.7442,-0.8253,-0.8453,-0.9478,-1.0598,-1.0641,-1.1075,-1.1642,-1.2034,-1.2639,-1.315,-1.3367,-1.3566,-1.353,-1.28,-1.2344,-1.1886,-1.1212,-1.0412,-0.9655,0.0,0.0,-0.8794,-0.9333,-0.9563,-0.9939,-1.059,-1.0562,-1.0456,0.0,0.0,0.0,0.0,0.0,0.0,-0.8559,0.0,-0.871,-0.871,-0.8801,-0.8885,-0.8885,-0.8885,-0.8837,-0.8691,-0.8641,-0.836,-0.7789,-0.758,-0.7529,-0.7535,-0.7766,-0.7689,-0.7385,-0.7385,-0.7385,-0.7385,-0.7385,-0.7319,-0.7145,-0.6744,-0.635,-0.5948,-0.5753,-0.5457,-0.5149,0.0,0.0,0.0,0.0,0.0,0.0,0.0,0.0,0.0,0.0,0.0,0.0,0.0,0.0,0.0,0.0,0.0,0.0,0.0,0.0,0.0,0.0,0.0,0.0,-1.0808,-1.1146,-1.1411,-1.1609,-1.1438,-1.1435,-1.1591,-1.1303,-1.1215,-1.1349,-1.1293,-1.1293,-1.1353,-1.1451,-1.1316,-1.1053,0.0,-1.0774,-1.0165,0.0,0.0,0.0,0.0,0.0,0.0,-0.7679,-0.8566,-0.961,-1.0093,-1.0513,-1.0934,-1.1557,-1.1855,-1.2085,-1.2871,-1.3296,-1.358,-1.3797,-1.3892,-1.374,-1.2951,-1.2358,-1.1803,-1.0892,-1.0113,-0.9413,0.0,0.0,0.0,-0.9354,-1.0167,0.0,-1.072,-1.1105,0.0,-1.0469,0.0,-1.0491,-1.0006,-0.9723,0.0,0.0,-0.8858,-0.871,-0.871,-0.8801,-0.8885,-0.8885,-0.8885,-0.8787,-0.8539,-0.8194,-0.7846,-0.745,-0.7551,-0.7655,-0.766,-0.7804,-0.7689,-0.7385,-0.7385,-0.7385,-0.7385,-0.7385,-0.7319,-0.7152,-0.6889,-0.6413,-0.5956,-0.5611,-0.5299,-0.5106,0.0,0.0,0.0,0.0,0.0,0.0,0.0,0.0,0.0,0.0,0.0,0.0,0.0,0.0,0.0,0.0,0.0,0.0,0.0,0.0,0.0,0.0,0.0,-0.9912,-0.9817,-0.9961,-1.0172,-1.0442,-1.0569,0.0,-1.0787,-1.0677,-1.0616,-1.0633,-1.044,-1.0401,-1.0379,-1.0581,0.0,0.0,0.0,0.0,0.0,0.0,0.0,0.0,0.0,0.0,0.0,0.0,0.0,-1.074,-1.1298,-1.1562,-1.1764,-1.2374,-1.2516,-1.2578,-1.332,-1.3736,-1.3972,-1.4005,-1.401,-1.3745,-1.2724,-1.1968,-1.1244,-1.0325,-0.953,-0.8843,-0.8496,-0.8608,0.0,0.0,0.0,0.0,-1.1029,-1.1407,-1.1449,0.0,-1.0791,0.0,-1.0349,-0.987,-0.9599,0.0,-0.9074,-0.8811,-0.8811,-0.8838,-0.8885,-0.8885,-0.8998,-0.8924,-0.8762,-0.832,-0.7956,-0.7671,-0.7695,-0.7701,-0.7706,-0.7699,-0.7566,-0.7385,0.0,-0.7235,-0.7311,-0.719,-0.7065,-0.6899,-0.6563,-0.6183,-0.5724,-0.5425,-0.5257,-0.5163,0.0,0.0,0.0,0.0,0.0,0.0,0.0,0.0,0.0,0.0,0.0,0.0,0.0,0.0,0.0,0.0,0.0,0.0,0.0,0.0,0.0,0.0,-0.9004,-0.8969,-0.8716,-0.871,-0.8836,-0.9095,-0.973,0.0,0.0,0.0,0.0,0.0,0.0,0.0,0.0,0.0,0.0,0.0,0.0,0.0,0.0,0.0,0.0,0.0,0.0,0.0,-0.9552,-0.9974,-1.0723,-1.1608,-1.222,-1.2498,-1.2787,-1.314,-1.3099,-1.2998,-1.3561,-1.3996,-1.4222,-1.4019,-1.3948,-1.3599,-1.2288,-1.1364,-1.0527,-0.9615,-0.8873,-0.8277,-0.8074,-0.8132,-0.8494,-0.9113,0.0,-1.0317,-1.1413,-1.1479,-1.1435,-1.1429,-1.0904,-1.0595,-1.0638,-0.9886,-0.9489,-0.9706,-0.9213,-0.8885,-0.8885,-0.8885,-0.8885,-0.8885,-0.9079,-0.9104,-0.9002,-0.8568,-0.8295,-0.8116,-0.7837,-0.7717,-0.7706,-0.7517,-0.7431,-0.7345,0.0,0.0,-0.7135,-0.6913,-0.6679,-0.6513,-0.6138,-0.5807,-0.5488,-0.5281,-0.5211,-0.5178,0.0,0.0,0.0,0.0,0.0,0.0,0.0,0.0,0.0,0.0,-0.7207,-0.7098,0.0,0.0,0.0,0.0,0.0,0.0,0.0,0.0,0.0,0.0,-0.8782,-0.8929,-0.871,-0.871,-0.8836,-0.9095,-0.8901,0.0,0.0,0.0,0.0,0.0,0.0,0.0,0.0,0.0,0.0,0.0,0.0,0.0,0.0,0.0,0.0,0.0,0.0,-0.8734,-0.919,-1.0213,-1.1292,-1.2219,-1.2669,-1.2955,-1.3267,-1.3603,-1.3547,-1.3437,-1.3843,-1.401,-1.401,-1.3797,-1.3622,-1.3169,-1.1912,-1.1088,0.0,-0.888,-0.8615,-0.8406,-0.7717,-0.8419,-0.9188,-0.9407,-1.018,-1.087,-1.1381,-1.1617,-1.1641,0.0,-1.1041,-1.0715,-1.0546,-0.9843,0.0,0.0,0.0,0.0,-0.8885,-0.8885,-0.8885,-0.8885,-0.8854,-0.8669,-0.8374,-0.8222,-0.8034,-0.776,-0.7856,-0.7793,-0.7706,-0.776,-0.7525,-0.7064,0.0,0.0,-0.6732,-0.6765,-0.656,-0.6174,-0.61,-0.5867,-0.5504,-0.5473,-0.5369,-0.5188,0.0,0.0,0.0,0.0,0.0,0.0,0.0,0.0,-0.8085,-0.8302,-0.8324,-0.8172,-0.7845,-0.8291,0.0,0.0,0.0,0.0,0.0,0.0,0.0,0.0,0.0,-0.8847,-0.8506,-0.8506,0.0,0.0,0.0,0.0,0.0,0.0,0.0,0.0,0.0,0.0,0.0,0.0,0.0,0.0,0.0,0.0,0.0,0.0,0.0,0.0,0.0,0.0,-0.9332,-0.9878,-1.0929,-1.216,-1.3062,-1.3586,-1.3897,-1.4043,-1.4029,-1.396,-1.4216,-1.4411,-1.4441,-1.4226,-1.3839,-1.3114,-1.1728,0.0,0.0,-0.852,-0.8235,-0.8106,-0.7741,-0.8303,0.0,-0.9332,-0.9956,-1.0646,-1.1339,-1.1574,-1.1647,-1.1646,-1.1166,-1.0697,0.0,0.0,0.0,0.0,0.0,0.0,-0.8885,-0.8885,-0.8952,-0.9164,-0.8802,-0.8527,-0.8396,-0.8163,-0.7963,-0.779,-0.7845,-0.7842,-0.779,-0.7665,-0.7475,-0.7146,-0.7133,0.0,-0.6503,-0.6439,-0.6225,-0.5906,-0.5796,-0.5595,-0.5443,-0.5271,-0.5106,-0.4981,0.0,0.0,0.0,0.0,0.0,0.0,0.0,-0.7882,-0.8421,-0.9019,-0.9426,-0.9381,-0.8689,-0.8793,-0.8829,0.0,0.0,0.0,0.0,0.0,0.0,0.0,0.0,0.0,-0.8213,0.0,0.0,0.0,0.0,0.0,0.0,0.0,0.0,0.0,0.0,0.0,0.0,0.0,0.0,0.0,0.0,0.0,0.0,0.0,0.0,0.0,0.0,0.0,-0.9412,-0.9617,-1.0455,-1.1661,-1.2873,-1.3708,-1.4227,-1.4265,-1.4225,-1.4283,-1.4503,-1.4705,-1.4781,-1.4504,-1.3976,-1.3165,-1.1642,-1.0484,0.0,-0.8363,-0.7976,-0.781,-0.7867,-0.8116,-0.8548,0.0,-0.9605,-1.015,-1.1239,-1.1406,-1.1498,0.0,-1.1143,0.0,-1.0416,0.0,0.0,0.0,0.0,0.0,-0.8826,-0.8771,-0.8821,-0.9104,-0.8662,-0.8394,-0.8482,-0.8145,-0.7923,-0.7872,-0.7872,-0.7845,-0.7733,-0.7459,-0.7263,-0.7054,-0.6748,0.0,0.0,-0.6016,-0.5797,-0.5712,-0.5491,-0.5382,-0.5268,-0.4987,-0.4873,-0.476,0.0,0.0,0.0,0.0,0.0,0.0,0.0,-0.8005,-0.8571,-0.9587,-0.9959,-1.0009,-0.9686,-0.9359,-0.9289,0.0,0.0,0.0,0.0,0.0,0.0,0.0,0.0,0.0,0.0,0.0,0.0,0.0,0.0,0.0,0.0,0.0,0.0,0.0,0.0,0.0,0.0,0.0,0.0,0.0,0.0,0.0,0.0,0.0,0.0,0.0,0.0,0.0,0.0,0.0,0.0,-1.0842,-1.1607,-1.2657,-1.3591,-1.375,0.0,0.0,-1.4283,-1.4351,-1.4321,-1.4104,-1.3694,-1.2991,-1.1599,0.0,-0.9448,-0.8553,-0.8082,-0.7858,-0.8023,-0.8113,-0.8449,-0.9418,-0.946,-0.9747,-1.0802,-1.1111,-1.1239,-1.1253,0.0,0.0,0.0,0.0,0.0,0.0,0.0,0.0,0.0,-0.8266,-0.8112,-0.8137,-0.8067,-0.802,-0.8058,-0.7976,-0.7911,-0.7872,-0.7872,-0.7635,-0.7197,-0.7244,-0.7003,-0.6383,0.0,0.0,0.0,-0.5646,-0.5514,-0.5437,-0.5437,-0.5212,-0.4931,-0.4929,-0.4761,-0.447,0.0,0.0,0.0,0.0,0.0,0.0,0.0,-0.7503,-0.8178,-0.923,-0.9626,-0.9915,-1.0229,-0.9586,-0.9145,0.0,0.0,0.0,0.0,0.0,0.0,0.0,0.0,0.0,0.0,0.0,0.0,0.0,0.0,0.0,0.0,0.0,0.0,0.0,0.0,0.0,0.0,0.0,0.0,0.0,0.0,0.0,0.0,0.0,0.0,0.0,0.0,0.0,0.0,0.0,0.0,0.0,-1.0818,-1.1594,0.0,0.0,-1.3593,-1.3991,-1.4351,-1.452,-1.4624,-1.4342,-1.3834,-1.31,-1.189,0.0,-0.9776,-0.863,-0.8278,-0.8096,-0.7944,-0.8034,-0.8297,-0.8968,-0.9006,0.0,-0.9745,-1.0113,-1.0377,-1.0629,-1.0619,0.0,0.0,0.0,0.0,0.0,0.0,0.0,0.0,-0.8077,-0.8029,-0.8167,-0.7912,-0.7792,-0.7864,-0.7749,-0.766,-0.766,-0.7733,-0.756,-0.7105,-0.7151,-0.6794,-0.6056,0.0,0.0,0.0,-0.545,-0.5412,-0.5382,-0.5156,-0.5043,-0.4873,-0.4484,-0.4316,-0.4143,0.0,0.0,0.0,0.0,0.0,-0.5954,-0.6653,-0.7103,-0.7766,-0.8901,-0.9155,-0.9544,-1.0273,-0.9505,-0.8989,-0.9026,0.0,0.0,0.0,0.0,0.0,0.0,0.0,0.0,0.0,0.0,-0.8968,-0.8909,-0.8968,0.0,0.0,0.0,0.0,0.0,0.0,0.0,0.0,0.0,0.0,0.0,0.0,0.0,0.0,0.0,0.0,0.0,0.0,0.0,0.0,0.0,0.0,0.0,-1.0185,-1.068,-1.1389,0.0,-1.3275,-1.3781,-1.4283,-1.4608,-1.476,-1.4557,-1.4003,-1.3227,0.0,0.0,-0.999,-0.8876,-0.8423,-0.8147,-0.8019,-0.7955,-0.8106,-0.8614,-0.8595,-0.8674,-0.9174,-0.9456,-0.9755,0.0,0.0,0.0,0.0,0.0,0.0,0.0,0.0,0.0,0.0,-0.7926,-0.7909,-0.8022,-0.7708,-0.757,-0.7618,-0.7591,-0.7538,-0.7467,-0.7625,-0.742,-0.6887,-0.6887,-0.6445,-0.5671,0.0,0.0,0.0,-0.5326,-0.5301,-0.5212,-0.4987,-0.4817,-0.4596,-0.4148,-0.3924,-0.3868,0.0,0.0,0.0,0.0,0.0,0.0,0.0,-0.6959,-0.7455,-0.8726,-0.8781,-0.8981,-0.9717,-0.9102,-0.888,-0.9522,0.0,0.0,0.0,0.0,0.0,0.0,0.0,0.0,0.0,0.0,-0.8909,-0.871,-0.8909,-0.8909,-0.871,-0.871,0.0,0.0,0.0,0.0,0.0,0.0,0.0,0.0,0.0,0.0,0.0,0.0,0.0,0.0,0.0,0.0,0.0,0.0,0.0,0.0,0.0,-1.0024,-1.0642,-1.1932,-1.2812,-1.3509,-1.4051,-1.4428,-1.4618,-1.4531,-1.4003,-1.3227,-1.2316,-1.1001,-0.9867,-0.9395,-0.8452,-0.7835,-0.8299,-0.7918,-0.7769,-0.8566,-0.8354,0.0,-0.9382,-0.942,0.0,0.0,0.0,0.0,0.0,0.0,0.0,0.0,0.0,0.0,0.0,-0.7691,-0.7459,-0.7339,-0.7334,-0.7277,-0.7213,-0.7519,-0.7578,-0.7282,-0.7584,-0.7216,-0.6323,-0.6323,-0.5879,0.0,0.0,0.0,0.0,-0.5284,-0.5078,-0.4929,-0.4873,-0.454,-0.3982,-0.3982,-0.3813,-0.3587,0.0,0.0,0.0,0.0,0.0,0.0,0.0,-0.5846,-0.6089,-0.7375,-0.7456,-0.7824,-0.8938,-0.85,-0.85,-0.9437,0.0,0.0,0.0,0.0,0.0,0.0,0.0,0.0,0.0,0.0,-0.9662,-0.9868,-1.0029,-0.9964,-0.9721,-0.9592,-0.933,0.0,0.0,0.0,0.0,0.0,0.0,0.0,0.0,0.0,0.0,0.0,0.0,0.0,0.0,0.0,0.0,0.0,0.0,0.0,0.0,0.0,0.0,-1.075,-1.1468,-1.2203,-1.2592,-1.2756,-1.2742,-1.2382,-1.2142,-1.1817,-1.1031,-1.0517,-0.9942,-0.9002,-0.8536,-0.8202,-0.7909,-0.7631,-0.7638,-0.8317,-0.8241,0.0,0.0,0.0,0.0,0.0,0.0,0.0,0.0,0.0,0.0,0.0,0.0,0.0,0.0,0.0,-0.7587,-0.7464,-0.7323,-0.7277,-0.7213,-0.7105,-0.6929,-0.6696,-0.6689,-0.6427,-0.5884,-0.5884,0.0,0.0,0.0,0.0,0.0,-0.5011,-0.4875,-0.479,-0.4351,-0.4106,-0.3976,-0.3762,-0.3607,-0.3587,0.0,0.0,0.0,0.0,0.0,0.0,0.0,-0.5212,-0.536,-0.6389,-0.6591,-0.7031,-0.806,-0.7937,-0.8121,-0.8987,0.0,0.0,0.0,0.0,0.0,0.0,0.0,0.0,0.0,-0.9581,-0.9943,-1.0242,-1.0386,-1.0368,-1.0207,-1.0104,-0.985,-0.9522,-0.9331,0.0,0.0,0.0,0.0,0.0,0.0,0.0,-0.9643,0.0,0.0,0.0,0.0,0.0,0.0,0.0,0.0,0.0,0.0,0.0,0.0,0.0,-1.0337,-1.09,-1.1615,-1.1791,-1.1722,-1.1489,-1.1214,0.0,-1.0412,-1.0083,-0.968,-0.8981,-0.8615,-0.8306,-0.7894,-0.7578,-0.756,-0.7986,-0.7956,0.0,0.0,0.0,0.0,0.0,0.0,0.0,0.0,0.0,0.0,0.0,0.0,0.0,0.0,0.0,-0.7597,-0.7521,-0.7342,-0.7177,-0.6912,-0.6837,-0.658,-0.6155,-0.6244,-0.602,-0.5672,-0.5672,0.0,0.0,0.0,0.0,0.0,-0.4816,-0.4631,-0.4466,-0.4054,-0.3866,-0.3807,-0.36,-0.3555,-0.3587,0.0,0.0,0.0,0.0,0.0,0.0,0.0,0.0,0.0,-0.5766,-0.6135,-0.6584,-0.7168,-0.7425,-0.7757,-0.8241,0.0,0.0,0.0,0.0,0.0,0.0,0.0,0.0,-0.9421,-0.9693,-0.9924,-1.0072,-1.0249,-1.0303,-1.0331,-1.039,-1.036,-1.0242,-0.9794,-0.9535,-0.9432,-0.9432,-0.9463,-0.9548,-0.974,-0.9708,0.0,0.0,0.0,0.0,0.0,0.0,0.0,0.0,0.0,0.0,0.0,0.0,0.0,0.0,0.0,0.0,0.0,-1.1244,-1.1249,-1.1335,-1.0895,-1.0401,-1.0169,-0.9604,0.0,-0.9109,-0.8598,-0.8183,-0.8199,-0.7763,-0.7487,-0.7743,-0.7673,0.0,0.0,-0.8608,0.0,0.0,0.0,0.0,0.0,0.0,0.0,0.0,0.0,0.0,0.0,0.0,-0.7455,-0.7447,-0.7339,-0.7004,-0.6452,-0.6655,-0.6433,-0.581,-0.6103,-0.5975,-0.558,-0.5527,0.0,0.0,0.0,0.0,0.0,-0.4744,-0.4393,-0.3961,-0.3899,-0.3752,-0.3587,-0.3582,-0.3583,-0.3531,0.0,0.0,0.0,0.0,0.0,0.0,0.0,0.0,0.0,0.0,-0.559,-0.6063,-0.6566,-0.7018,-0.7485,0.0,0.0,0.0,0.0,0.0,0.0,0.0,0.0,0.0,-0.9629,-1.0001,-1.0412,-1.0852,-1.1279,-1.1467,-1.1428,-1.1502,-1.1292,-1.0852,-1.0524,-1.0118,-0.9699,-0.9825,-0.9799,-0.974,-0.9894,-0.9862,0.0,0.0,0.0,0.0,-0.9518,-0.95,0.0,0.0,0.0,0.0,0.0,0.0,0.0,0.0,-0.8812,-0.8835,-0.9259,0.0,-0.9297,-0.9062,-0.8953,-0.8843,0.0,-0.8552,-0.8514,-0.8198,-0.8058,-0.8006,-0.8188,-0.7768,-0.765,-0.85,0.0,0.0,0.0,0.0,0.0,0.0,0.0,0.0,0.0,0.0,0.0,0.0,0.0,0.0,0.0,0.0,-0.7243,-0.6692,-0.6896,-0.7027,-0.7018,-0.6493,-0.618,-0.5972,-0.5565,-0.5309,-0.5214,-0.4998,0.0,0.0,0.0,0.0,-0.4736,-0.4486,-0.4173,-0.3826,-0.3598,-0.3551,-0.3582,-0.3536,-0.338,-0.3194,0.0,0.0,0.0,0.0,0.0,0.0,0.0,0.0,0.0,0.0,0.0,0.0,0.0,0.0,0.0,0.0,0.0,0.0,0.0,0.0,0.0,0.0,0.0,-0.9042,-0.9466,-0.9853,-1.0423,-1.1155,-1.1396,-1.1655,-1.192,-1.1918,-1.1675,-1.1205,-1.0721,-1.0255,-0.9804,-1.0053,-1.0021,-0.9804,-0.9958,0.0,0.0,0.0,0.0,0.0,-0.9355,-0.9245,0.0,-0.9052,-0.9141,-0.922,0.0,0.0,0.0,0.0,-0.8472,-0.842,-0.8501,-0.8689,-0.8901,-0.8897,-0.877,-0.8613,-0.8565,-0.8434,-0.8242,-0.8014,-0.8089,-0.817,-0.8204,-0.7977,-0.8023,0.0,-0.8622,0.0,0.0,0.0,0.0,0.0,0.0,0.0,0.0,0.0,0.0,0.0,0.0,0.0,0.0,0.0,-0.6925,-0.6522,-0.6581,-0.6585,-0.6523,-0.6139,-0.5791,-0.5585,-0.5311,-0.5171,-0.5118,-0.5008,0.0,0.0,0.0,0.0,-0.452,-0.4182,-0.3912,-0.362,-0.3434,-0.3335,-0.3378,-0.3347,-0.3151,-0.2915,0.0,0.0,0.0,0.0,0.0,0.0,0.0,0.0,0.0,0.0,0.0,0.0,0.0,0.0,0.0,0.0,0.0,0.0,0.0,0.0,0.0,0.0,0.0,-0.8887,-0.9292,-0.9587,-1.0221,-1.1227,-1.1162,-1.1496,-1.2246,-1.2163,-1.1875,-1.1434,-1.0783,-1.0221,-0.9836,-1.0117,-1.0085,-0.9836,-0.9951,0.0,0.0,0.0,0.0,0.0,0.0,0.0,0.0,-0.8836,-0.8974,-0.901,-0.8557,0.0,0.0,0.0,0.0,0.0,-0.8327,-0.875,-0.9226,-0.9414,-0.9191,-0.8935,-0.9019,-0.8634,-0.8256,-0.8218,-0.8371,-0.8494,-0.837,-0.837,0.0,0.0,0.0,0.0,0.0,0.0,0.0,0.0,0.0,0.0,0.0,0.0,0.0,0.0,0.0,0.0,0.0,0.0,0.0,-0.6498,-0.628,-0.6024,-0.5621,-0.5689,-0.5547,-0.5202,-0.5228,-0.5202,-0.519,-0.5122,-0.5156,0.0,0.0,0.0,-0.4275,-0.3936,-0.361,-0.3394,-0.329,-0.3183,-0.3119,-0.3064,-0.2876,-0.2581,0.0,0.0,0.0,0.0,0.0,0.0,0.0,0.0,0.0,0.0,0.0,0.0,0.0,0.0,0.0,0.0,0.0,0.0,0.0,0.0,0.0,0.0,-0.8576,-0.9011,-0.9693,-0.9602,-1.011,-1.1265,-1.1612,-1.2135,-1.287,-1.3124,-1.2688,-1.1644,-1.1083,-1.0436,-0.9804,-0.9989,-1.0021,-0.9983,-0.9983,0.0,0.0,0.0,0.0,0.0,0.0,0.0,0.0,-0.8671,-0.8852,-0.8975,-0.8215,0.0,0.0,0.0,0.0,0.0,-0.853,-0.9076,-0.9331,-0.8557,-0.8709,-0.8926,-0.8307,-0.8428,-0.8552,-0.8251,-0.8404,-0.8664,-0.8985,-0.895,-0.9135,0.0,0.0,0.0,0.0,0.0,0.0,0.0,0.0,0.0,0.0,0.0,0.0,0.0,0.0,0.0,0.0,0.0,0.0,-0.5687,-0.5683,-0.5553,-0.5297,-0.5594,-0.5737,-0.5667,-0.5464,-0.5318,-0.5188,-0.4682,-0.455,0.0,0.0,-0.3909,-0.3865,-0.3843,-0.3584,-0.3283,-0.3065,-0.3024,-0.3064,-0.279,-0.2488,-0.2188,0.0,0.0,0.0,0.0,0.0,0.0,0.0,0.0,0.0,0.0,0.0,0.0,0.0,0.0,0.0,0.0,0.0,0.0,0.0,0.0,0.0,-0.8931,-0.893,-0.9199,-0.9792,-0.9849,-1.0492,-1.1801,-1.1727,-1.2153,-1.3033,-1.2715,-1.2242,-1.1567,-1.1043,-1.0527,-1.0085,-1.0244,-1.0269,-1.0149,0.0,0.0,0.0,0.0,0.0,0.0,0.0,0.0,0.0,0.0,-0.8321,-0.8375,-0.7928,0.0,0.0,0.0,0.0,0.0,-0.8195,-0.8717,-0.907,-0.8627,-0.9127,-0.966,-0.9457,-0.9291,-0.9158,-0.8976,-0.9125,-0.9358,0.0,0.0,-0.9868,-1.04,0.0,0.0,0.0,0.0,0.0,0.0,0.0,0.0,0.0,0.0,0.0,0.0,0.0,0.0,0.0,0.0,0.0,0.0,-0.5424,-0.5311,-0.5188,-0.5395,-0.5496,-0.5601,-0.5218,-0.5064,-0.4967,-0.4509,-0.4365,-0.4466,0.0,-0.3783,-0.378,-0.3591,-0.3322,-0.3016,-0.2914,-0.2754,-0.2504,-0.2281,-0.1978,-0.166,0.0,0.0,0.0,0.0,0.0,0.0,0.0,0.0,0.0,0.0,0.0,0.0,0.0,0.0,0.0,0.0,0.0,0.0,0.0,0.0,-0.8803,-0.9288,-0.9234,-0.9444,-1.0049,-1.0161,-1.0843,-1.2119,-1.1834,-1.2209,-1.3109,-1.228,-1.1776,-1.1511,-1.1013,-1.0568,-1.0238,-1.0428,-1.0428,-1.0301,0.0,0.0,0.0,0.0,0.0,0.0,0.0,0.0,0.0,0.0,0.0,0.0,0.0,0.0,0.0,-0.7961,-0.7859,-0.7847,-0.8006,-0.8333,-0.869,-0.8933,-0.9502,-1.0086,-1.0522,-1.0153,-0.9775,-0.9986,-1.0133,-1.0215,0.0,-1.0377,0.0,-1.0699,0.0,0.0,0.0,0.0,0.0,0.0,0.0,0.0,0.0,0.0,0.0,0.0,0.0,0.0,0.0,0.0,0.0,0.0,-0.5149,-0.4984,-0.5074,-0.4986,-0.5105,-0.538,-0.5031,-0.4824,-0.4802,-0.44,-0.4198,-0.4177,-0.3789,-0.3657,-0.3652,-0.3248,-0.2977,-0.2775,-0.2675,-0.2348,-0.1979,-0.1773,-0.1522,-0.1304,0.0,0.0,0.0,0.0,0.0,0.0,0.0,0.0,0.0,0.0,0.0,0.0,0.0,0.0,0.0,0.0,0.0,0.0,0.0,0.0,-0.8209,-0.8732,-0.9168,-0.9837,-1.0803,-1.0463,-1.0815,-1.1843,-1.2097,-1.2584,-1.3285,-1.2561,-1.2018,-1.1559,-1.1155,-1.0633,-1.0015,-1.0238,-1.0308,-1.0301,-1.0301,0.0,0.0,0.0,0.0,0.0,0.0,0.0,0.0,0.0,0.0,0.0,0.0,0.0,-0.7925,-0.7907,-0.7774,-0.7737,-0.8315,-0.8299,-0.8329,-0.91,-0.9305,-0.9564,-1.0401,-1.0314,-1.0302,-1.1113,-1.1248,-1.1139,0.0,-1.1022,-1.1149,0.0,0.0,0.0,0.0,0.0,0.0,0.0,0.0,0.0,0.0,0.0,0.0,0.0,0.0,0.0,0.0,0.0,0.0,0.0,0.0,-0.4497,-0.4633,-0.4446,-0.4721,-0.5382,-0.5037,-0.488,-0.4802,-0.4186,-0.3904,-0.3838,-0.3414,-0.3237,-0.3236,-0.2928,-0.2826,-0.2775,-0.2273,-0.1942,-0.1718,-0.1431,-0.1334,-0.1227,0.0,0.0,0.0,0.0,0.0,0.0,0.0,0.0,0.0,0.0,0.0,0.0,0.0,0.0,0.0,0.0,0.0,0.0,0.0,0.0,-0.8277,-0.9153,-0.9324,-0.9725,-1.0391,-1.0632,-1.115,-1.2052,-1.2323,-1.2631,-1.2836,-1.2235,-1.1896,-1.1827,-1.1132,-1.083,-1.0836,-1.0618,-1.0565,-1.0718,-1.0539,-1.053,0.0,0.0,0.0,0.0,0.0,0.0,0.0,0.0,-0.7734,-0.7419,-0.7321,-0.7513,-0.7753,-0.7567,-0.7475,-0.7457,-0.7706,-0.798,-0.8348,-0.8801,-0.9184,-0.9618,-1.0324,-1.0651,-1.0939,-1.1483,-1.1706,-1.1668,0.0,0.0,-1.1203,0.0,0.0,0.0,0.0,0.0,0.0,0.0,0.0,0.0,0.0,0.0,0.0,0.0,0.0,0.0,0.0,0.0,0.0,0.0,0.0,-0.4425,-0.4395,-0.4317,-0.4468,-0.4748,-0.4421,-0.4273,-0.4243,-0.3707,-0.3439,-0.3414,-0.329,-0.313,-0.2927,-0.2826,-0.2624,-0.2272,-0.192,-0.1635,-0.1455,-0.136,-0.1049,-0.0682,0.0,0.0,0.0,0.0,0.0,0.0,0.0,0.0,0.0,0.0,0.0,0.0,0.0,0.0,0.0,0.0,0.0,0.0,-0.7942,-0.7826,-0.8113,-0.9006,-0.9149,-0.9377,-0.9788,-1.0414,-1.1075,-1.1687,-1.1953,-1.2128,-1.2195,-1.179,-1.1635,-1.175,-1.1099,-1.1,-1.1287,-1.0737,-1.0643,-1.0835,-1.0603,-1.053,0.0,0.0,0.0,0.0,0.0,0.0,0.0,0.0,-0.7596,-0.729,-0.7195,-0.734,-0.7542,-0.7422,-0.7451,-0.7473,-0.7339,-0.7664,-0.8137,-0.8451,-0.8898,-0.9462,-1.0149,-1.0768,-1.1363,-1.1914,-1.1989,-1.1838,-1.14,0.0,0.0,0.0,0.0,0.0,0.0,0.0,0.0,0.0,0.0,0.0,0.0,0.0,0.0,0.0,0.0,0.0,0.0,0.0,0.0,0.0,0.0,0.0,-0.4119,-0.4088,-0.4035,-0.4068,-0.3859,-0.3717,-0.3746,-0.3399,-0.3197,-0.3079,-0.3079,-0.2977,-0.2775,-0.2624,-0.2272,-0.1869,-0.1566,-0.1375,-0.1236,-0.1081,-0.0721,-0.0257,0.0,0.0,0.0,0.0,0.0,0.0,0.0,0.0,0.0,0.0,0.0,0.0,0.0,0.0,0.0,0.0,0.0,0.0,-0.7087,-0.7225,-0.7542,-0.8078,-0.8478,-0.883,-0.9083,-0.9813,-1.0331,-1.0604,-1.0876,-1.1114,-1.1377,-1.1335,-1.1293,-1.128,-1.1175,-1.108,-1.1075,-1.0542,-1.0434,-1.06,-1.0371,-1.0434,-1.0526,0.0,0.0,0.0,0.0,0.0,0.0,0.0,-0.7741,-0.7354,-0.7598,-0.7518,-0.7339,-0.7541,-0.7731,-0.7809,-0.7412,-0.7405,-0.7619,-0.8096,-0.8514,-0.9036,-0.9922,-1.0679,-1.1513,-1.2583,-1.2215,-1.1608,-1.1434,-1.1116,0.0,0.0,0.0,0.0,0.0,0.0,0.0,0.0,0.0,0.0,0.0,0.0,0.0,0.0,0.0,0.0,0.0,0.0,0.0,0.0,0.0,0.0,-0.3778,-0.3574,-0.3467,-0.3412,-0.3412,-0.338,-0.3373,-0.332,-0.3134,-0.2775,-0.2775,-0.2775,-0.2775,-0.2223,-0.1819,-0.1566,-0.1314,-0.1212,-0.1111,-0.0606,-0.0253,0.0,0.0,0.0,0.0,0.0,0.0,0.0,0.0,0.0,0.0,0.0,0.0,0.0,0.0,0.0,0.0,0.0,0.0,0.0,-0.7493,-0.7467,-0.7603,-0.8012,-0.8717,-0.9034,-0.8886,-0.9296,-0.9844,-1.0604,-1.0684,-1.0785,-1.0905,-1.1042,-1.115,-1.1293,-1.1204,-1.1233,-1.128,-1.0737,-1.0643,-1.0848,-1.0609,-1.0561,-1.0553,0.0,0.0,0.0,0.0,0.0,0.0,0.0,0.0,0.0,-0.7446,-0.7646,-0.7802,-0.7158,-0.7309,-0.7585,-0.7142,-0.7457,-0.8022,-0.8496,-0.9451,-1.0329,-1.0595,-1.0937,-1.137,-1.1933,-1.174,-1.1381,-1.096,0.0,0.0,0.0,0.0,0.0,0.0,0.0,0.0,0.0,0.0,0.0,0.0,0.0,0.0,0.0,0.0,0.0,0.0,0.0,0.0,0.0,0.0,0.0,-0.3517,-0.3483,-0.3407,-0.3349,-0.3349,-0.3339,-0.332,-0.3072,-0.2891,-0.2775,-0.2623,-0.2423,-0.2223,-0.1869,-0.1566,-0.1314,-0.1212,-0.096,-0.0606,-0.0455,-0.0253,0.005,0.0,0.0,0.0,0.0,0.0,0.0,0.0,0.0,0.0,0.0,0.0,0.0,0.0,0.0,0.0,0.0,0.0,0.0,0.0,-0.7588,-0.7753,-0.821,-0.8739,-0.9096,-0.9234,-0.9198,-0.9502,-1.016,-1.0024,-1.003,-1.0177,-1.0667,-1.0935,-1.1055,-1.1346,-1.1314,-1.1054,-1.0666,-1.0534,-1.0546,-1.0486,-1.0456,-1.0385,0.0,0.0,0.0,0.0,0.0,0.0,0.0,0.0,0.0,-0.7477,-0.7561,-0.7654,-0.7072,-0.7291,-0.7669,-0.7513,-0.7938,-0.8582,-0.9188,-1.0013,-1.0717,-1.0985,-1.1222,-1.1473,0.0,-1.1436,-1.1138,-1.078,0.0,0.0,0.0,0.0,0.0,0.0,0.0,0.0,0.0,0.0,0.0,0.0,0.0,0.0,0.0,0.0,0.0,0.0,0.0,0.0,0.0,0.0,0.0,-0.3412,-0.3413,-0.3382,-0.3322,-0.3322,-0.3205,-0.3079,-0.2891,-0.2675,-0.2474,-0.2322,-0.207,-0.1819,-0.1566,-0.1364,-0.1162,-0.096,-0.0707,-0.0354,-0.0152,0.0101,0.0399,0.0,0.0,0.0,0.0,0.0,0.0,0.0,0.0,0.0,0.0,0.0,0.0,0.0,0.0,0.0,0.0,0.0,0.0,0.0,0.0,-0.7884,-0.8521,-0.8673,-0.9112,-0.9871,-0.9466,-0.9311,-0.945,-0.9118,-0.9121,-0.9426,-1.025,-1.0653,-1.0671,-1.1377,-1.1267,-1.0542,-1.0342,-1.0117,-0.9855,-1.0086,-1.012,-0.997,-0.9713,0.0,0.0,0.0,0.0,0.0,0.0,0.0,0.0,-0.7581,-0.7344,-0.7182,-0.7167,-0.7503,-0.7946,-0.8211,-0.8621,-0.9177,-0.9982,-1.0301,-1.0608,-1.1187,-1.1532,-1.1666,-1.1622,0.0,-1.0889,0.0,0.0,0.0,0.0,0.0,0.0,0.0,0.0,0.0,0.0,0.0,0.0,0.0,0.0,0.0,0.0,0.0,0.0,0.0,0.0,0.0,0.0,0.0,0.0,-0.3334,-0.3334,-0.331,0.0,-0.3209,-0.3027,-0.2725,-0.2775,-0.2474,-0.1971,-0.1971,-0.1819,-0.1566,-0.1313,-0.1162,-0.1061,-0.0606,-0.0354,-0.0252,0.0202,0.0548,0.0834,0.0,0.0,0.0,0.0,0.0,0.0,0.0,0.0,0.0,0.0,0.0,0.0,0.0,0.0,0.0,0.0,0.0,0.0,0.0,0.0,-0.7702,-0.8107,-0.9201,-0.9807,-0.9908,-0.9686,-0.9422,-0.9121,-0.8833,-0.8941,-0.9414,-0.9873,-1.0177,-1.0325,-1.0785,-1.0649,-1.0031,-0.9567,-0.9332,-0.9284,-0.935,-0.933,-0.9301,-0.9078,-0.8958,0.0,0.0,0.0,0.0,0.0,0.0,0.0,-0.7596,-0.7597,-0.7616,-0.6979,-0.7369,-0.7985,-0.7994,-0.8445,-0.9198,-1.0346,-1.1016,-1.1427,-1.1592,-1.1477,-1.1293,-1.0978,-1.0673,-1.0396,0.0,0.0,0.0,0.0,0.0,0.0,0.0,0.0,0.0,0.0,0.0,0.0,0.0,0.0,0.0,0.0,0.0,0.0,0.0,0.0,0.0,0.0,0.0,-0.3038,-0.2847,-0.2847,-0.2763,0.0,-0.2588,-0.2432,-0.2172,-0.2372,-0.217,-0.1667,-0.1667,-0.1516,-0.1263,-0.1212,-0.096,-0.0556,-0.0455,-0.0152,0.0252,0.0348,0.0591,0.0831,0.0,0.0,0.0,0.0,0.0,0.0,0.0,0.0,0.0,0.0,0.0,0.0,0.0,0.0,0.0,0.0,0.0,0.0,0.0,0.0,0.0,-0.8455,-0.9472,-0.9903,-0.9711,-0.9482,-0.9201,-0.8905,-0.8548,-0.8757,-0.9506,-0.9984,-1.0297,-1.0453,-1.0664,-1.0302,-0.9504,-0.9198,-0.886,-0.8586,-0.877,-0.8831,-0.8752,-0.8573,-0.836,-0.8143,-0.787,0.0,0.0,0.0,0.0,0.0,0.0,0.0,-0.7495,-0.6928,-0.7096,-0.7554,-0.7994,-0.8551,-0.939,-1.081,-1.1522,-1.1819,-1.1729,-1.1435,-1.1049,-1.0617,-1.0484,0.0,0.0,0.0,0.0,0.0,0.0,0.0,0.0,0.0,0.0,0.0,0.0,0.0,0.0,0.0,0.0,0.0,0.0,0.0,0.0,0.0,0.0,0.0,-0.2987,-0.2788,-0.2549,-0.255,-0.2525,-0.2422,-0.2422,-0.2271,-0.2022,-0.202,-0.1818,-0.1415,-0.1415,-0.1263,-0.101,-0.0859,-0.0657,-0.0353,-0.01,0.0149,0.0447,0.0634,0.0818,0.1047,0.0,0.0,0.0,0.0,0.0,0.0,0.0,0.0,0.0,0.0,0.0,0.0,0.0,0.0,0.0,0.0,0.0,0.0,0.0,0.0,0.0,0.0,-0.9453,-0.9649,-0.946,-0.9121,-0.8862,-0.8739,-0.8352,-0.8688,-0.9692,-1.0217,-1.0531,-1.0682,-1.0598,-0.998,-0.8999,-0.8815,-0.8381,-0.7852,-0.8132,-0.82,-0.8063,-0.7955,-0.7679,-0.7319,-0.7345,-0.7293,-0.7207,-0.7341,0.0,0.0,0.0,0.0,-0.7189,-0.6811,-0.6816,-0.7116,-0.7888,-0.8717,-0.9678,-1.1124,-1.1704,0.0,-1.1632,-1.1302,-1.0877,-1.0299,0.0,0.0,0.0,0.0,0.0,0.0,0.0,0.0,0.0,0.0,0.0,0.0,0.0,0.0,0.0,0.0,0.0,0.0,0.0,0.0,0.0,0.0,-0.3083,-0.2579,-0.262,-0.2571,-0.2281,-0.224,-0.2217,-0.2209,-0.2166,-0.2019,-0.1869,-0.1566,-0.1364,-0.1212,-0.1162,-0.0958,-0.0704,-0.0452,-0.0301,-0.02,0.0246,0.0489,0.0585,0.0956,0.1173,0.1295,0.0,0.0,0.0,0.0,0.0,0.0,0.0,0.0,0.0,0.0,0.0,0.0,0.0,0.0,0.0,0.0,0.0,0.0,-0.6634,0.0,0.0,-0.8632,-0.8958,-0.9181,-0.9324,-0.8885,-0.8579,-0.8452,-0.8402,-0.8941,-1.004,-0.9956,-1.0149,-1.0606,-1.0143,-0.9457,-0.8627,-0.7928,-0.7428,-0.7119,-0.6941,-0.6856,-0.682,-0.6753,-0.6692,-0.6613,-0.6454,-0.6526,-0.6673,-0.6598,-0.6788,0.0,0.0,0.0,-0.695,-0.6495,-0.6691,-0.7113,-0.7285,-0.8593,-1.0067,0.0,-1.1317,-1.1623,0.0,0.0,-1.0988,0.0,0.0,0.0,0.0,0.0,0.0,0.0,0.0,0.0,0.0,0.0,0.0,0.0,0.0,0.0,0.0,0.0,0.0,0.0,0.0,0.0,0.0,-0.3371,-0.3016,-0.2524,-0.2531,-0.2331,-0.1866,-0.1708,-0.1547,-0.138,-0.1102,-0.1111,-0.1313,-0.101,-0.101,-0.1162,-0.096,-0.0701,-0.0444,-0.0148,0.0098,0.0336,0.0575,0.0814,0.1003,0.1076,0.1345,0.1754,0.0,0.0,0.0,0.0,0.0,0.0,0.0,0.0,0.0,0.0,0.0,0.0,0.0,0.0,0.0,-0.5942,-0.591,-0.6142,-0.6784,-0.7166,-0.762,-0.8236,-0.8513,-0.8621,-0.8529,-0.8397,-0.819,-0.7904,-0.7817,-0.8554,-0.998,-0.9983,-1.052,-1.1484,-1.0371,-0.9583,-0.9029,-0.7812,-0.7073,-0.6703,-0.6512,-0.6672,-0.6983,-0.6441,-0.6429,-0.6651,-0.6117,-0.5899,-0.59,-0.6109,-0.6373,-0.6623,-0.6666,0.0,0.0,0.0,-0.6299,-0.6571,-0.7236,-0.8271,-0.9379,0.0,-1.0933,-1.1267,-1.1048,0.0,-1.0732,0.0,0.0,0.0,0.0,0.0,0.0,0.0,0.0,0.0,0.0,0.0,0.0,0.0,0.0,0.0,0.0,0.0,0.0,0.0,0.0,0.0,-0.3566,-0.3128,-0.2747,-0.2333,-0.2199,-0.1949,-0.1619,-0.1541,-0.1421,-0.1208,-0.1072,-0.1027,-0.0978,-0.0685,-0.064,-0.0746,-0.0646,-0.0344,0.0048,0.0193,0.0336,0.0571,0.0847,0.0985,0.1123,0.1237,0.1501,0.1817,0.0,0.0,0.0,0.0,0.0,0.0,0.0,0.0,0.0,0.0,0.0,0.0,0.0,0.0,0.0,0.0,-0.5597,-0.595,-0.6774,-0.6862,-0.7137,-0.7695,-0.8012,-0.8063,-0.7797,-0.7903,-0.7744,-0.7356,-0.7286,-0.8157,-0.9884,-0.9881,-1.0783,-1.2316,-1.0856,-0.9877,-0.9227,-0.7925,-0.712,-0.6662,-0.6496,-0.6723,-0.7086,-0.6625,-0.67,-0.7016,-0.6283,-0.5856,-0.5677,-0.594,-0.6107,-0.6232,-0.6396,-0.6503,0.0,0.0,0.0,-0.5939,-0.6924,0.0,-0.8311,-0.9423,-1.0116,-1.0523,0.0,0.0,0.0,0.0,0.0,0.0,0.0,0.0,0.0,0.0,0.0,0.0,0.0,0.0,0.0,0.0,0.0,0.0,0.0,0.0,0.0,0.0,0.0,0.0,-0.3485,-0.2974,-0.2525,-0.218,-0.2003,-0.1709,-0.1423,-0.1292,-0.1122,-0.1001,-0.0906,-0.0811,-0.0572,-0.0381,-0.024,-0.0145,-0.0194,0.0048,0.0473,0.0615,0.0755,0.0891,0.1247,0.1377,0.142,0.1534,0.1794,0.2108,0.0,0.0,0.0,0.0,0.0,0.0,0.0,0.0,0.0,0.0,0.0,0.0,-0.5669,-0.5776,-0.5801,-0.5615,-0.5425,-0.5535,-0.6017,-0.6234,-0.6521,-0.6941,-0.7333,0.0,-0.7506,-0.7537,-0.732,-0.6925,-0.706,-0.8037,-0.981,-0.95,-1.0498,-1.2533,-1.1501,-1.0177,-0.871,-0.8105,-0.7605,-0.7139,-0.6872,-0.6657,-0.6535,-0.7321,-0.7641,-0.7592,-0.7111,-0.6765,-0.6496,-0.6197,-0.6027,-0.5964,-0.6226,-0.6362,-0.6298,0.0,0.0,0.0,-0.5918,-0.6426,0.0,-0.7594,-0.853,-0.9262,0.0,0.0,0.0,0.0,0.0,0.0,0.0,0.0,0.0,0.0,0.0,0.0,0.0,0.0,0.0,0.0,0.0,0.0,0.0,0.0,0.0,0.0,0.0,0.0,-0.3407,-0.2949,-0.2511,-0.2132,-0.2089,-0.1759,-0.1123,-0.0687,-0.0467,-0.0429,-0.0191,-0.0048,-0.0048,-0.0048,0.0236,0.065,0.0426,0.0472,0.0741,0.1158,0.1374,0.1395,0.1933,0.2158,0.2157,0.2155,0.2466,0.2823,0.0,0.0,0.0,0.0,0.0,0.0,0.0,0.0,0.0,0.0,0.0,0.0,0.0,-0.5523,-0.545,-0.5478,-0.5407,-0.5539,-0.5967,-0.5997,-0.612,-0.6433,-0.6844,-0.7037,-0.7037,-0.7182,-0.7089,-0.6768,-0.674,-0.7386,-0.8647,-0.8928,-0.9475,-1.0226,-1.0133,-0.9861,-0.9384,-0.8027,-0.7352,-0.7176,-0.6961,-0.7235,-0.7833,-0.7923,-0.8314,0.0,0.0,0.0,0.0,-0.7169,-0.6795,-0.6344,0.0,0.0,0.0,0.0,-0.5185,-0.5268,0.0,0.0,0.0,-0.6784,-0.7421,-0.789,-0.8079,0.0,0.0,0.0,0.0,0.0,0.0,0.0,0.0,0.0,0.0,0.0,0.0,0.0,0.0,0.0,0.0,0.0,0.0,0.0,0.0,0.0,0.0,0.0,-0.3084,-0.2798,-0.2453,-0.204,-0.1915,-0.1591,-0.1056,-0.0898,-0.0683,-0.0413,-0.0138,0.0092,0.0275,0.0413,0.0639,0.0952,0.0991,0.0947,0.0998,0.127,0.149,0.1705,0.2064,0.2289,0.2379,0.2379,0.2691,0.3092,0.0,0.0,0.0,0.0,0.0,0.0,0.0,0.0,0.0,-0.4887,0.0,0.0,0.0,0.0,-0.545,-0.5415,-0.5357,-0.5453,-0.5722,-0.5643,-0.5756,-0.6121,-0.6526,-0.6738,-0.676,-0.6959,-0.6871,-0.6506,-0.6489,-0.6926,-0.7852,-0.817,-0.8544,-0.894,-0.8777,-0.9035,-0.9521,-0.8236,-0.7606,-0.7442,-0.7382,-0.7768,-0.8398,-0.8717,0.0,0.0,0.0,0.0,0.0,0.0,0.0,0.0,0.0,0.0,0.0,0.0,0.0,0.0,-0.5169,0.0,0.0,0.0,0.0,-0.6651,-0.7164,0.0,0.0,0.0,0.0,0.0,0.0,0.0,0.0,0.0,0.0,0.0,0.0,0.0,0.0,0.0,0.0,0.0,0.0,0.0,0.0,0.0,0.0,0.0,-0.2972,-0.2651,-0.2274,-0.1871,-0.155,-0.1229,-0.0904,-0.0742,-0.0483,-0.0176,0.0088,0.0353,0.0622,0.0666,0.0936,0.1344,0.1403,0.1407,0.1345,0.1647,0.1872,0.2064,0.2423,0.2602,0.2736,0.2827,0.3094,0.3448,0.0,0.0,0.0,0.0,0.0,0.0,0.0,0.0,0.0,-0.5016,0.0,0.0,0.0,0.0,0.0,-0.5462,-0.53,-0.5216,-0.5205,-0.521,-0.5444,-0.5961,-0.6371,-0.6611,-0.6694,-0.6881,-0.6699,-0.6103,-0.6291,-0.6754,-0.7456,-0.7265,-0.7806,-0.8885,-0.7732,-0.7849,-0.8928,-0.8719,-0.8327,-0.7919,0.0,-0.8129,-0.8129,0.0,0.0,0.0,-0.9937,-0.9723,0.0,-0.914,0.0,0.0,0.0,0.0,0.0,0.0,0.0,0.0,0.0,0.0,0.0,0.0,0.0,0.0,0.0,0.0,0.0,0.0,0.0,0.0,0.0,0.0,0.0,0.0,0.0,0.0,0.0,0.0,0.0,0.0,0.0,0.0,0.0,0.0,0.0,0.0,0.0,-0.31,-0.3105,-0.2514,-0.2023,-0.1585,-0.0998,-0.0715,-0.0673,-0.0042,0.0295,0.0295,0.0506,0.0768,0.1001,0.0827,0.11,0.1791,0.1752,0.1756,0.1833,0.2234,0.2463,0.2556,0.3044,0.3223,0.3269,0.3491,0.3717,0.3931,0.0,0.0,0.0,0.0,0.0,0.0,0.0,0.0,-0.5438,0.0,0.0,0.0,-0.545,-0.5754,-0.6034,-0.6115,-0.5914,-0.5698,-0.5502,-0.5302,-0.5349,-0.5699,-0.5907,-0.6168,-0.6474,-0.6548,-0.6392,-0.6031,-0.609,-0.6227,-0.6416,-0.6662,-0.6939,-0.7254,-0.7324,-0.7312,-0.7242,-0.6899,0.0,-0.7859,-0.7406,-0.8082,0.0,0.0,0.0,0.0,0.0,-1.0651,-1.0177,0.0,-0.9346,-0.8256,0.0,0.0,0.0,0.0,0.0,0.0,-0.4559,0.0,0.0,0.0,0.0,0.0,0.0,0.0,0.0,0.0,0.0,0.0,0.0,0.0,0.0,0.0,0.0,0.0,0.0,0.0,0.0,0.0,0.0,0.0,0.0,0.0,0.0,0.0,-0.3092,-0.295,-0.2733,-0.2294,-0.1843,-0.139,-0.1096,-0.074,-0.0411,-0.0085,0.0171,0.0295,0.0739,0.0965,0.1001,0.1304,0.1526,0.175,0.219,0.2349,0.2398,0.2725,0.2881,0.2974,0.3184,0.3412,0.3629,0.3658,0.3849,0.4108,0.0,0.0,0.0,0.0,0.0,0.0,0.0,0.0,-0.5938,0.0,0.0,0.0,-0.6037,-0.6342,-0.6562,-0.657,-0.627,-0.5952,-0.5622,-0.53,-0.5214,-0.5432,-0.5509,-0.5767,-0.6228,-0.624,-0.61,-0.5827,-0.5936,-0.5882,-0.5669,-0.6021,-0.6191,-0.6197,-0.6402,-0.6377,-0.616,0.0,0.0,0.0,-0.755,0.0,0.0,-0.9986,-1.0414,0.0,0.0,0.0,-1.0713,-1.0753,-0.9797,0.0,0.0,0.0,0.0,0.0,0.0,-0.5094,-0.4598,-0.4559,0.0,0.0,0.0,0.0,-0.4875,-0.509,0.0,0.0,0.0,0.0,0.0,0.0,0.0,0.0,0.0,0.0,0.0,0.0,0.0,0.0,0.0,0.0,0.0,0.0,0.0,0.0,-0.2965,-0.2682,-0.2287,-0.2053,-0.1687,-0.1161,-0.095,-0.0601,-0.016,0.0125,0.0421,0.0706,0.1108,0.1335,0.1415,0.1656,0.1869,0.2096,0.2519,0.2826,0.2982,0.3241,0.3308,0.3291,0.3431,0.362,0.3811,0.3896,0.4065,0.4276,0.0,0.0,0.0,0.0,0.0,0.0,0.0,0.0,0.0,0.0,-0.6666,-0.6792,-0.7075,-0.7258,-0.7256,-0.7002,-0.6584,-0.6169,-0.575,-0.5334,-0.5145,-0.525,-0.5219,-0.5438,-0.5956,-0.5993,-0.5863,-0.5596,-0.5833,-0.5705,-0.5256,-0.5456,-0.5541,-0.5505,0.0,0.0,-0.5395,0.0,0.0,-0.6807,-0.8015,-0.8632,0.0,0.0,-1.0509,-1.0436,-1.0875,-1.101,-1.0966,-1.093,-0.9833,0.0,0.0,0.0,0.0,0.0,-0.5206,-0.5203,-0.4826,-0.4745,-0.4817,0.0,0.0,0.0,-0.5135,-0.5124,-0.5044,0.0,0.0,0.0,0.0,0.0,0.0,0.0,0.0,0.0,0.0,0.0,0.0,0.0,0.0,0.0,0.0,0.0,-0.3283,-0.3011,-0.2758,-0.2347,-0.1781,-0.1743,-0.1477,-0.0871,-0.0657,-0.0391,0.0039,0.0482,0.0894,0.1298,0.1508,0.1772,0.2009,0.2009,0.2218,0.2637,0.2864,0.3157,0.3513,0.3716,0.3709,0.3571,0.3703,0.3806,0.3871,0.4202,0.4296,0.4347,0.0,0.0,0.0,0.0,0.0,0.0,0.0,0.0,-0.7556,-0.7415,-0.7296,-0.7538,-0.8275,-0.7958,-0.7771,-0.7985,-0.7495,-0.6996,-0.6594,-0.5985,-0.5639,-0.5615,-0.534,-0.5371,-0.5751,-0.5927,-0.5863,-0.5596,-0.5651,-0.562,-0.5517,-0.5353,-0.5171,-0.4954,0.0,0.0,0.0,0.0,0.0,-0.6216,-0.6891,0.0,-0.9703,-0.9955,-1.0418,-1.0912,-1.07,-1.0723,-1.0728,-0.9968,-0.9213,-0.8434,0.0,0.0,0.0,-0.6118,0.0,0.0,0.0,0.0,0.0,0.0,0.0,0.0,-0.4417,-0.4457,-0.4541,0.0,0.0,0.0,0.0,0.0,0.0,0.0,0.0,0.0,0.0,0.0,0.0,0.0,0.0,0.0,0.0,0.0,-0.301,-0.2414,-0.2172,-0.1894,-0.159,-0.1439,-0.1174,-0.0681,-0.0456,-0.0152,0.0229,0.0558,0.0887,0.1306,0.156,0.1866,0.2168,0.2362,0.2608,0.2861,0.3232,0.3433,0.351,0.373,0.3918,0.4067,0.4014,0.4076,0.4147,0.4325,0.4301,0.4284,0.0,0.0,0.0,0.0,0.0,0.0,0.0,0.0,-0.8131,-0.7974,-0.7935,-0.8069,-0.8513,-0.8269,-0.8115,-0.8138,-0.7651,-0.7177,-0.6789,-0.6219,-0.5767,-0.5468,-0.5298,-0.5311,-0.5546,-0.5583,-0.5606,-0.5589,0.0,0.0,-0.5251,-0.5215,-0.5132,-0.501,0.0,0.0,0.0,0.0,-0.5697,-0.61,-0.7266,0.0,-0.9613,-1.0045,-1.0402,-1.0613,-1.0417,-1.0306,-1.0076,-0.9361,-0.8671,0.0,0.0,-0.7235,-0.6878,0.0,-0.6083,-0.5937,0.0,0.0,0.0,-0.5091,0.0,0.0,0.0,-0.4659,-0.4513,0.0,0.0,0.0,0.0,0.0,0.0,0.0,0.0,0.0,0.0,0.0,0.0,0.0,0.0,0.0,0.0,0.0,-0.272,-0.2135,-0.1977,-0.1797,-0.1523,-0.1332,-0.1042,-0.0617,-0.0312,0.0039,0.0432,0.0804,0.1213,0.1638,0.2003,0.2301,0.256,0.2771,0.3036,0.3353,0.3467,0.3682,0.3954,0.3841,0.4067,0.4423,0.4178,0.4216,0.4371,0.4504,0.4577,0.4664,-0.6898,0.0,0.0,0.0,0.0,0.0,0.0,0.0,-0.837,-0.8387,-0.8467,-0.8567,-0.8668,-0.8751,-0.8711,-0.8542,-0.8044,-0.7592,-0.7267,-0.6602,-0.6058,-0.5674,-0.542,-0.5335,-0.5467,-0.5347,-0.5341,-0.5479,0.0,0.0,0.0,0.0,0.0,0.0,0.0,0.0,0.0,0.0,0.0,-0.635,0.0,-0.8675,-0.9005,-0.9955,-1.0219,-1.0057,-1.0083,-0.9771,-0.9275,-0.8821,-0.8228,-0.7649,-0.7399,-0.7195,0.0,0.0,0.0,0.0,0.0,0.0,0.0,0.0,0.0,-0.545,0.0,0.0,0.0,-0.493,0.0,0.0,0.0,0.0,0.0,0.0,0.0,0.0,0.0,0.0,0.0,0.0,0.0,0.0,0.0,0.0,-0.2301,-0.1908,-0.1783,-0.1597,-0.1345,-0.1132,-0.085,-0.0507,-0.008,0.0323,0.0723,0.1094,0.1582,0.2098,0.2422,0.2746,0.3066,0.3113,0.3437,0.3917,0.3626,0.3861,0.4384,0.3997,0.4192,0.4662,0.4311,0.4323,0.4541,0.4734,0.4916,0.5098,-0.7121,-0.6944,0.0,0.0,0.0,0.0,0.0,0.0,-0.8132,-0.8592,-0.8878,-0.9188,-0.9664,-0.9954,-1.0175,-1.0372,-0.9703,0.0,-0.9183,0.0,-0.7152,-0.7315,-0.6185,-0.5624,-0.575,-0.5617,-0.5389,-0.5068,0.0,0.0,0.0,0.0,0.0,0.0,-0.4812,0.0,0.0,0.0,-0.6333,0.0,-0.7714,-0.7918,0.0,-0.9151,-0.9586,-0.9576,-0.9636,-0.9131,-0.8395,0.0,-0.7904,-0.7619,0.0,-0.72,-0.7259,0.0,0.0,0.0,0.0,0.0,0.0,0.0,-0.5833,0.0,0.0,0.0,-0.4713,-0.3955,0.0,0.0,0.0,0.0,0.0,0.0,0.0,0.0,0.0,0.0,0.0,0.0,0.0,0.0,0.0,0.0,0.0,-0.1377,-0.1166,-0.0927,-0.0724,-0.0466,-0.0254,-0.0076,0.0389,0.082,0.1222,0.1275,0.1691,0.2442,0.2481,0.2914,0.3696,0.3421,0.3651,0.4302,0.3791,0.3917,0.4384,0.4155,0.4311,0.4659,0.4465,0.4511,0.4716,0.5093,0.5172,0.5188,-0.6456,-0.6748,0.0,0.0,0.0,0.0,0.0,0.0,0.0,-0.8936,-0.9168,-0.9552,0.0,0.0,0.0,0.0,0.0,-0.9803,0.0,0.0,-0.7824,-0.7492,0.0,0.0,-0.6092,-0.5776,-0.5527,-0.5341,-0.5039,0.0,0.0,0.0,0.0,0.0,-0.5242,0.0,-0.5556,0.0,-0.6327,0.0,0.0,0.0,0.0,-0.8717,-0.9164,-0.894,-0.863,-0.8371,-0.8135,0.0,-0.743,0.0,0.0,0.0,0.0,0.0,0.0,0.0,0.0,0.0,0.0,0.0,0.0,0.0,-0.5169,0.0,-0.4656,0.0,0.0,0.0,0.0,0.0,0.0,0.0,0.0,0.0,0.0,0.0,0.0,0.0,0.0,0.0,0.0,0.0,0.0,0.0,0.0,-0.0854,-0.0624,-0.0256,-0.0076,0.0,0.0515,0.0958,0.1304,0.1629,0.2061,0.2511,0.302,0.345,0.38,0.3825,0.4067,0.4444,0.4098,0.4294,0.4792,0.4557,0.4699,0.5097,0.5021,0.5021,0.5135,0.5436,0.5647,0.5818,-0.5879,-0.6495,-0.6991,0.0,0.0,0.0,0.0,0.0,0.0,0.0,0.0,0.0,-1.0539,-1.0496,0.0,0.0,-1.0789,-1.0329,0.0,0.0,-0.8317,0.0,0.0,0.0,0.0,0.0,-0.5692,-0.5403,0.0,0.0,0.0,0.0,0.0,0.0,0.0,-0.5963,-0.6207,0.0,-0.656,-0.65,-0.6708,-0.6859,-0.7128,-0.8425,-0.8758,-0.8489,-0.8026,-0.7912,-0.7947,-0.7482,-0.7147,0.0,-0.7128,0.0,0.0,0.0,0.0,0.0,-0.6043,0.0,0.0,0.0,0.0,0.0,0.0,0.0,0.0,0.0,0.0,0.0,0.0,0.0,0.0,0.0,0.0,0.0,0.0,0.0,0.0,0.0,0.0,0.0,0.0,0.0,0.0,0.0,-0.0886,0.0,-0.0369,-0.0073,0.0192,0.0311,0.0842,0.1258,0.1531,0.2072,0.2447,0.2744,0.345,0.388,0.4034,0.4138,0.4318,0.4565,0.4321,0.4533,0.5047,0.4876,0.5049,0.5451,0.5526,0.5611,0.5655,0.5798,0.6045,0.6306,-0.5664,-0.6103,-0.6444,0.0,0.0,0.0,0.0,0.0,0.0,0.0,0.0,0.0,0.0,0.0,0.0,0.0,0.0,-1.106,-1.0775,0.0,-0.8686,0.0,0.0,-0.733,0.0,0.0,0.0,0.0,0.0,0.0,0.0,0.0,0.0,0.0,-0.5824,-0.6018,-0.6245,-0.6839,-0.7349,-0.7742,-0.7752,-0.8032,-0.8425,0.0,-0.8308,-0.8408,-0.8313,0.0,0.0,-0.7332,-0.7185,0.0,0.0,0.0,0.0,0.0,0.0,0.0,0.0,0.0,0.0,-0.5365,0.0,0.0,0.0,0.0,-0.4545,0.0,0.0,0.0,0.0,0.0,0.0,-0.3125,0.0,0.0,0.0,0.0,0.0,0.0,0.0,0.0,0.0,0.0,0.0,-0.0729,-0.0602,0.0,0.0234,0.0346,0.0612,0.1136,0.1431,0.177,0.2159,0.2449,0.2849,0.3368,0.3645,0.4114,0.4654,0.4286,0.4357,0.4785,0.4377,0.4485,0.4915,0.502,0.5237,0.5528,0.5849,0.6114,0.6268,0.6285,0.6276,0.6344,-0.5952,-0.6229,0.0,0.0,0.0,0.0,0.0,-0.7459,0.0,0.0,0.0,0.0,0.0,-1.1589,-1.1849,0.0,0.0,-1.1767,-1.1174,-1.0245,0.0,0.0,0.0,-0.837,0.0,0.0,0.0,0.0,0.0,0.0,0.0,0.0,0.0,0.0,0.0,-0.5919,0.0,0.0,0.0,0.0,0.0,-0.7988,-0.8296,0.0,0.0,-0.8228,-0.7991,-0.7834,0.0,-0.7474,-0.7299,-0.7144,-0.6892,-0.6675,-0.6486,-0.6397,-0.6215,0.0,0.0,0.0,-0.5813,-0.5483,0.0,0.0,0.0,0.0,0.0,0.0,0.0,0.0,0.0,0.0,-0.3269,-0.3178,-0.2917,0.0,0.0,0.0,0.0,0.0,0.0,0.0,0.0,0.0,0.0,-0.0528,-0.0408,-0.0186,0.0,0.0428,0.0729,0.1187,0.14,0.1778,0.2335,0.2549,0.2873,0.3287,0.3773,0.4143,0.4432,0.4464,0.4591,0.4734,0.4722,0.4848,0.5067,0.5263,0.5496,0.5727,0.6111,0.6321,0.6392,0.6459,0.6652,0.6939,-0.6344,0.0,0.0,0.0,0.0,0.0,0.0,0.0,0.0,0.0,-0.9598,0.0,-1.1584,0.0,-1.171,0.0,-1.2104,-1.1725,-1.11,-1.0567,0.0,-1.0105,-0.9643,0.0,0.0,0.0,0.0,0.0,0.0,-0.593,0.0,0.0,0.0,0.0,0.0,-0.5983,-0.6291,0.0,-0.7047,0.0,0.0,-0.7949,0.0,0.0,-0.7954,-0.8014,0.0,-0.7727,-0.7629,-0.7526,-0.7324,-0.7064,-0.6881,-0.6558,-0.6224,-0.6193,-0.6026,-0.5851,-0.5919,-0.5772,0.0,-0.5331,-0.5124,0.0,-0.4557,0.0,0.0,0.0,0.0,0.0,0.0,0.0,0.0,-0.3119,-0.277,0.0,0.0,-0.1821,0.0,0.0,0.0,0.0,0.0,0.0,-0.0743,-0.0425,-0.0271,-0.0077,0.0,0.0,0.0878,0.1365,0.1512,0.1893,0.2495,0.2723,0.3025,0.3423,0.393,0.4253,0.4462,0.4704,0.4752,0.4714,0.4946,0.5058,0.513,0.5568,0.5797,0.5875,0.6388,0.6618,0.6692,0.6873,0.7176,0.7531,-0.6718,0.0,0.0,0.0,-0.6854,0.0,0.0,0.0,-0.8968,0.0,-0.9938,-1.0585,-1.115,-1.1219,-1.1233,-1.1305,-1.1327,-1.1121,-1.0667,-1.0226,0.0,0.0,-0.9885,-0.9441,-0.9316,0.0,0.0,0.0,0.0,0.0,0.0,0.0,0.0,0.0,-0.6003,0.0,-0.6406,-0.6869,-0.7219,-0.753,-0.7631,-0.7897,-0.8166,-0.7809,0.0,-0.7717,-0.7917,-0.7754,-0.7489,-0.7479,-0.7191,-0.6876,-0.6697,-0.6402,-0.6041,-0.5843,-0.5822,-0.5816,-0.5621,-0.5439,-0.523,-0.4971,0.0,0.0,0.0,0.0,-0.431,0.0,0.0,0.0,0.0,0.0,0.0,-0.2926,-0.2631,-0.2226,0.0,0.0,0.0,0.0,0.0,0.0,0.0,-0.0765,-0.068,-0.0396,-0.0164,0.0072,0.0,0.0,0.0,0.1673,0.1764,0.2113,0.2712,0.2905,0.328,0.3813,0.4138,0.4429,0.4712,0.4918,0.4891,0.4735,0.5014,0.512,0.5153,0.5873,0.6075,0.5987,0.6638,0.7064,0.7297,0.7461,0.7722,0.8084,-0.6637,-0.6715,-0.6802,0.0,-0.6773,-0.6896,0.0,0.0,0.0,0.0,-0.9903,-1.0417,-1.1478,-1.1428,-1.141,-1.1563,-1.148,0.0,0.0,0.0,0.0,-1.0586,-1.0139,-0.9665,-0.9226,-0.8602,0.0,-0.7297,0.0,0.0,-0.6338,0.0,0.0,0.0,0.0,0.0,-0.5971,-0.6294,-0.6916,-0.7634,-0.7517,-0.772,0.0,0.0,-0.7555,-0.7353,-0.7571,-0.7559,-0.7437,-0.7026,-0.6854,-0.6666,-0.6228,-0.5956,-0.5764,-0.5574,-0.5323,-0.518,-0.5279,-0.5166,-0.4976,-0.493,-0.4745,-0.4588,0.0,0.0,0.0,0.0,0.0,0.0,0.0,0.0,0.0,0.0,0.0,0.0,0.0,0.0,0.0,0.0,0.0,0.0,0.0,-0.0712,-0.0656,-0.0133,-0.023,0.0,0.0,0.0,0.0,0.161,0.1948,0.2325,0.2787,0.3167,0.3481,0.3745,0.4175,0.4423,0.4553,0.4874,0.4912,0.4812,0.5269,0.5418,0.5348,0.5754,0.6003,0.617,0.6711,0.7516,0.8344,0.7987,0.8084,0.8414,-0.6587,0.0,0.0,-0.7078,0.0,0.0,-0.8002,0.0,0.0,-0.9771,-1.0182,0.0,-1.1033,-1.1163,-1.1198,-1.1093,-1.1039,0.0,-1.0736,0.0,0.0,-1.035,-1.006,-0.9728,-0.9437,-0.8786,0.0,-0.7759,0.0,0.0,-0.6107,0.0,0.0,0.0,0.0,-0.5293,0.0,-0.6231,-0.6677,-0.7047,-0.7057,0.0,0.0,-0.7262,-0.7145,-0.7163,-0.6899,-0.6908,-0.6989,-0.6661,-0.6472,-0.6276,-0.5918,-0.5649,-0.5414,-0.5244,-0.5007,-0.484,-0.5016,-0.4888,-0.4736,-0.4791,-0.462,-0.4404,-0.4362,-0.4224,-0.4088,0.0,0.0,0.0,0.0,0.0,0.0,0.0,0.0,0.0,0.0,0.0,0.0,0.0,0.0,0.0,0.0,0.0,-0.0541,0.0,0.0,0.0,0.0,0.0,0.0,0.1671,0.2088,0.2481,0.287,0.3269,0.3627,0.3953,0.4363,0.4642,0.4781,0.5168,0.5333,0.5319,0.5682,0.5892,0.5981,0.6209,0.6359,0.656,0.7098,0.7818,0.8514,0.8445,0.8574,0.885,-0.6571,0.0,0.0,0.0,0.0,0.0,0.0,-0.9189,0.0,-0.9863,0.0,-1.0759,-1.0354,-1.0632,-1.066,-1.0287,0.0,-1.0352,-1.0032,-1.0159,-1.0185,-0.9972,-0.9809,-0.968,-0.965,-0.898,0.0,0.0,0.0,0.0,0.0,0.0,0.0,0.0,0.0,0.0,0.0,-0.6338,-0.6481,0.0,-0.645,-0.6752,-0.7035,-0.6557,-0.6619,-0.6895,-0.6151,-0.6078,-0.6341,-0.6254,-0.6045,-0.5789,-0.5645,-0.5329,-0.5014,-0.4901,-0.4739,-0.4632,-0.4763,-0.4625,-0.4463,-0.4577,-0.4387,-0.4134,-0.4008,-0.3873,-0.3723,-0.3524,-0.3425,0.0,0.0,0.0,0.0,0.0,0.0,0.0,0.0,0.0,0.0,0.0,0.0,0.0,0.0,0.0,0.0,0.0,0.0,0.0,0.0,0.0,0.0,0.0,0.2245,0.0,0.3032,0.0,0.3797,0.4341,0.4668,0.4905,0.5092,0.5576,0.581,0.5888,0.6115,0.6431,0.6729,0.6828,0.6886,0.7016,0.7608,0.8048,0.8362,0.8769,0.9095,0.9325,0.0,0.0,0.0,0.0,0.0,-0.8687,-0.951,-0.9431,-0.9427,-0.9847,-1.0224,-1.0395,-1.0314,-1.0095,-0.9957,-1.0054,-0.9917,0.0,0.0,0.0,0.0,-0.9756,-0.9716,-0.9592,-0.938,-0.878,-0.833,0.0,0.0,0.0,0.0,0.0,0.0,0.0,0.0,0.0,-0.5595,-0.5815,0.0,-0.6275,-0.6146,-0.6271,-0.6522,-0.6258,-0.6088,-0.5939,-0.5789,-0.5847,-0.5924,-0.5537,-0.538,-0.5304,-0.5098,-0.484,-0.4629,-0.4715,-0.4439,-0.4162,-0.4273,-0.4218,-0.4104,-0.4104,-0.4079,-0.3987,-0.3853,-0.374,-0.3613,-0.3532,-0.3306,-0.3147,-0.3149,0.0,0.0,0.0,0.0,0.0,0.0,0.0,0.0,0.0,0.0,0.0,0.0,0.0,0.0,0.0,0.0,0.0,0.0,0.0,0.0,0.0,0.0,0.0,0.0,0.0,0.0,0.4474,0.4752,0.493,0.5032,0.5548,0.575,0.5689,0.6164,0.6568,0.6836,0.6639,0.6851,0.7365,0.7907,0.847,0.8948,0.8923,0.9168,0.9581,0.0,0.0,0.0,0.0,0.0,0.0,0.0,-0.9385,0.0,-0.9913,-0.9951,-0.9846,-0.966,-0.9682,-0.965,-0.9507,-0.9492,-0.9483,-0.9498,-0.937,-0.9326,-0.9326,-0.9045,0.0,-0.8971,-0.8505,-0.8116,-0.7841,0.0,0.0,-0.5329,0.0,0.0,0.0,0.0,-0.4988,0.0,0.0,0.0,-0.589,-0.5821,-0.5934,-0.6116,-0.5718,-0.562,-0.5661,-0.5312,-0.5222,-0.5251,-0.5106,-0.5048,-0.5009,-0.4844,-0.4656,-0.4477,-0.4402,-0.4112,-0.3815,-0.3869,-0.3731,-0.361,-0.376,-0.366,-0.3549,-0.3577,-0.3411,-0.3233,-0.3201,-0.303,-0.2894,-0.2843,-0.2537,0.0,0.0,0.0,0.0,0.0,0.0,0.0,0.0,0.0,0.0,0.0,0.0,0.0,0.0,0.0,0.0,0.0,0.0,0.0,0.0,0.0,0.0,0.0,0.0,0.0,0.4781,0.5096,0.5412,0.5736,0.6226,0.6495,0.6615,0.6966,0.733,0.7612,0.7551,0.766,0.7874,0.8457,0.8867,0.9175,0.9282,0.9441,0.9609,0.0,-0.8127,0.0,0.0,-0.8553,0.0,-0.8938,-0.9364,-0.9719,-0.9882,-0.9724,-0.9423,-0.9106,-0.9266,-0.9288,-0.8894,-0.8993,-0.8966,-0.8803,-0.8708,-0.867,-0.8794,-0.8453,-0.8338,-0.8551,-0.8256,-0.792,0.0,0.0,0.0,0.0,0.0,0.0,0.0,0.0,0.0,0.0,0.0,-0.5675,-0.5567,-0.5627,-0.5694,-0.5726,-0.5362,-0.5354,-0.551,-0.4984,-0.4743,-0.4715,-0.4822,-0.4846,-0.4791,-0.4684,-0.455,-0.435,-0.4154,-0.3852,-0.3562,-0.3591,-0.34,-0.3268,-0.3525,-0.3357,-0.313,-0.3272,-0.3077,-0.2826,-0.2775,-0.2663,-0.2579,-0.2544,-0.2146,0.0,0.0,0.0,0.0,0.0,0.0,0.0,0.0,0.0,0.0,0.0,0.0,0.0,0.0,0.0,0.0,0.0,0.0,0.0,0.0,0.0,0.3314,0.3565,0.0,0.4853,0.0,0.5548,0.5961,0.6434,0.69,0.723,0.7464,0.7727,0.7971,0.8207,0.8451,0.8406,0.8212,0.8942,0.9205,0.9191,0.9564,0.9662,0.9643,0.0,0.0,0.0,0.0,0.0,0.0,0.0,-0.97,-0.9597,-0.9647,-0.9493,-0.937,-0.9267,-0.8816,-0.8492,-0.8473,-0.832,-0.82,-0.8183,-0.8327,-0.8365,-0.8178,-0.8468,-0.8482,-0.8144,-0.8138,-0.7819,0.0,0.0,0.0,0.0,0.0,0.0,0.0,0.0,0.0,0.0,-0.5637,-0.5669,-0.5768,-0.5768,-0.5619,-0.5365,-0.5506,-0.5381,-0.5148,-0.5077,-0.4908,-0.4691,-0.4715,-0.4629,-0.4546,-0.4519,-0.4298,-0.4051,-0.4101,-0.3773,-0.3456,-0.3562,-0.34,-0.3268,-0.3525,-0.3357,-0.3074,-0.2961,-0.2826,-0.2633,-0.2324,-0.2268,-0.2272,-0.2328,-0.215,-0.1934,0.0,0.0,0.0,0.0,0.0,0.0,0.0,0.0,0.0,0.0,0.0,0.0,0.0,0.0,0.0,0.0,0.0,0.0,0.2532,0.0,0.3623,0.3781,0.4629,0.0,0.5538,0.5955,0.6241,0.6437,0.7201,0.7437,0.7268,0.7764,0.7902,0.7804,0.8498,0.845,0.805,0.9254,0.943,0.9078,0.9542,0.9726,0.9854,0.0,0.0,0.0,0.0,0.0,0.0,0.0,-0.8904,-0.876,-0.8871,-0.8929,-0.8875,-0.8592,-0.8376,-0.8217,-0.8217,-0.814,-0.8102,-0.8102,-0.8063,-0.8063,-0.8102,-0.8022,-0.8026,-0.8106,-0.7987,-0.7634,0.0,0.0,0.0,0.0,0.0,0.0,0.0,0.0,-0.5396,-0.5814,-0.5665,-0.5698,-0.5851,-0.5604,-0.5361,-0.5191,-0.517,-0.5044,-0.4853,-0.4767,-0.4605,-0.4387,-0.4387,-0.4359,-0.4328,-0.4328,-0.4104,-0.3868,-0.3712,-0.3496,-0.3266,-0.3246,-0.3092,-0.3003,-0.3152,-0.3026,-0.2856,-0.2798,-0.2689,-0.2577,-0.2521,-0.2268,-0.2089,-0.2117,-0.1828,-0.1556,0.0,0.0,0.0,0.0,0.0,0.0,0.0,0.0,0.0,0.0,0.0,0.0,0.0,0.0,0.0,0.0,0.0,0.0,0.2464,0.0,0.3827,0.4028,0.4904,0.5542,0.5911,0.6183,0.6578,0.7069,0.764,0.8095,0.84,0.8461,0.8544,0.87,0.9058,0.9189,0.9232,0.9752,0.9953,0.9908,0.9932,1.0014,1.0161,-0.9037,0.0,-0.8887,0.0,-0.8662,-0.8321,-0.881,-0.852,-0.8264,-0.8382,-0.8424,-0.8372,-0.8216,-0.8098,-0.803,-0.803,-0.803,-0.7991,-0.791,-0.7915,-0.7915,-0.791,-0.7714,0.0,-0.791,-0.7799,-0.7505,-0.7057,-0.6865,0.0,0.0,0.0,0.0,0.0,-0.5584,-0.5795,-0.5984,-0.5823,-0.5811,-0.5804,-0.5526,-0.5274,-0.5046,-0.5008,-0.4862,-0.4688,-0.4605,-0.4411,-0.4193,-0.4193,-0.4138,-0.4079,-0.4138,-0.3993,-0.3753,-0.3488,-0.3298,-0.3163,-0.2983,-0.2847,-0.2801,-0.2891,-0.2809,-0.2691,-0.2691,-0.2605,-0.2521,-0.2549,-0.2186,-0.1905,-0.1933,-0.1567,-0.1209,-0.1157,0.0,0.0,0.0,0.0,0.0,0.0,0.0048,0.0186,0.0458,0.0,0.0,0.0,0.0,0.0,0.0,0.0,0.0,0.0,0.0,0.0,0.0,0.5229,0.5891,0.6285,0.6626,0.7131,0.7704,0.8131,0.8687,0.9289,0.9107,0.9169,0.9485,0.9717,0.9907,1.0071,1.0336,1.0478,1.0537,1.053,1.0591,1.0794,-0.9185,-0.9085,-0.8969,-0.9261,-0.9288,-0.9288,-0.9292,-0.891,-0.8552,-0.842,-0.8076,-0.7959,-0.8339,-0.8026,-0.7804,-0.7804,-0.7804,-0.7723,-0.7522,-0.7872,-0.791,0.0,0.0,-0.7723,-0.7522,-0.7522,-0.7399,-0.7183,0.0,0.0,-0.6359,0.0,-0.5604,-0.5612,-0.5803,-0.6012,-0.6203,-0.6203,-0.6007,-0.5699,-0.5695,-0.5366,-0.4916,-0.5116,-0.4993,-0.4691,-0.4691,-0.4498,-0.4193,-0.4193,-0.4024,-0.3824,-0.3965,-0.391,-0.3743,-0.3486,-0.3319,-0.3135,-0.2877,-0.2745,-0.2739,-0.2949,-0.2839,-0.2691,-0.2691,-0.2605,-0.2437,-0.224,-0.1878,-0.1657,-0.1769,-0.143,-0.1042,-0.0843,0.0,0.0,0.0,0.0,0.0,0.0,0.0165,0.0411,0.0663,0.0,0.0,0.0,0.0,0.0,0.0,0.0,0.0,0.2986,0.3707,0.0,0.4394,0.5607,0.6368,0.6706,0.7432,0.7881,0.8106,0.8661,0.9136,0.9594,0.9515,0.9631,0.994,1.0309,1.036,1.0264,1.0938,1.0955,1.0666,1.1276,1.1567,1.1793,-0.8814,-0.8866,-0.8922,-0.903,-0.8801,-0.8636,-0.8678,-0.8333,-0.7983,-0.7801,-0.7571,-0.7496,-0.7759,-0.7675,-0.7603,0.0,-0.7603,-0.7561,0.0,-0.7638,-0.7638,-0.7522,-0.7561,-0.7561,-0.7484,-0.7484,-0.7399,-0.7187,0.0,0.0,0.0,-0.6302,-0.6229,-0.6347,-0.6181,-0.6145,-0.6189,-0.5906,-0.5731,-0.5611,-0.5536,-0.524,-0.4912,-0.4962,-0.4745,-0.4359,-0.4359,-0.4162,-0.3938,-0.3938,-0.3744,-0.3524,-0.358,-0.3635,-0.3611,-0.3353,-0.3239,-0.3135,-0.2877,-0.2644,-0.2554,-0.2803,-0.2601,-0.2394,-0.2536,-0.2352,-0.2127,-0.2071,-0.1709,-0.1403,-0.1459,-0.1122,-0.0807,-0.0736,0.0,0.0,0.0,0.0,0.0,0.0,0.0569,0.0751,0.0,0.1234,0.0,0.0,0.0,0.0,0.0,0.0,0.0,0.0,0.4044,0.0,0.5019,0.6046,0.6705,0.7063,0.7499,0.8109,0.8788,0.9146,0.9622,1.0149,1.0065,1.0312,1.0739,1.0954,1.1219,1.1496,1.1428,1.1613,1.1902,1.1795,1.2027,1.2488,-0.874,-0.874,-0.8784,-0.8784,-0.8601,-0.84,-0.8328,-0.8031,-0.7756,-0.756,-0.737,-0.7335,-0.7565,-0.7569,0.0,-0.7594,-0.7725,-0.7737,-0.7633,-0.7729,-0.7704,-0.7526,-0.7588,-0.7596,-0.7484,0.0,0.0,-0.7322,-0.7245,-0.6993,-0.658,-0.6539,-0.6475,-0.6384,-0.6166,-0.6083,-0.6075,-0.5809,-0.5631,-0.5505,-0.5441,-0.5148,-0.4749,-0.4749,-0.4457,-0.4052,-0.4052,-0.3913,-0.3716,-0.366,-0.3552,-0.3385,-0.3302,-0.3302,-0.3287,-0.3083,-0.2981,-0.2877,-0.2622,-0.2441,-0.2366,-0.2495,-0.2364,-0.2208,-0.2286,-0.2155,-0.1959,-0.1877,-0.157,-0.129,-0.1234,-0.0926,-0.0673,-0.0589,-0.0357,-0.0134,0.0052,0.0,0.0,0.0,0.0,0.0,0.0,0.154,0.0,0.0,0.0,0.0,0.0,0.0,0.0,0.3586,0.4314,0.0,0.5555,0.6334,0.6937,0.74,0.8101,0.8761,0.9449,0.977,1.0199,1.0653,1.0723,1.1021,1.1498,1.1771,1.2089,1.2435,1.2228,1.2426,1.2808,1.27,1.294,1.3432,-0.8823,-0.8696,0.0,0.0,-0.8568,0.0,-0.8229,-0.8009,-0.7816,-0.7584,-0.7412,-0.7364,-0.7649,-0.7661,-0.7689,-0.7769,0.0,0.0,0.0,-0.8098,-0.8027,-0.7516,-0.7667,-0.7675,-0.745,-0.7484,-0.7484,-0.7446,-0.7446,-0.7118,-0.6431,-0.6603,-0.6425,-0.5907,-0.5896,-0.5888,-0.5888,-0.5855,-0.5672,-0.541,-0.541,-0.5034,-0.4526,-0.4526,-0.4229,-0.3796,-0.3796,-0.3716,-0.3555,-0.3441,-0.3385,-0.333,-0.3132,-0.2963,-0.2824,-0.2717,-0.2605,-0.2447,-0.2173,-0.2152,-0.2159,-0.2116,-0.2157,-0.2155,-0.2015,-0.1959,-0.1875,-0.1628,-0.1403,-0.1234,-0.1122,-0.087,-0.0588,-0.0391,-0.0238,-0.005,0.02,0.0,0.0,0.0,0.0,0.0,0.0,0.1794,0.2156,0.0,0.0,0.0,0.0,0.0,0.3548,0.4141,0.4565,0.5188,0.6046,0.6558,0.7134,0.7829,0.9047,0.9759,1.006,1.0471,1.0841,1.1153,1.1428,1.1771,1.2182,1.2652,1.2928,1.307,1.3217,1.3358,1.3529,1.3854,1.4204,1.4591,0.0,0.0,-0.8336,-0.8564,-0.83,-0.8034,-0.799,-0.78,-0.76,-0.7393,-0.7175,-0.715,-0.7364,-0.7392,-0.7447,-0.7617,-0.7903,-0.8041,-0.7955,-0.7873,-0.7715,-0.7454,-0.7458,-0.7359,-0.7061,-0.7176,-0.718,-0.7057,-0.7057,-0.6878,-0.6566,-0.6512,-0.6342,-0.6112,-0.5811,-0.5683,-0.565,-0.5557,-0.5474,-0.5406,-0.5406,-0.5096,-0.4649,-0.4649,-0.4287,-0.3796,-0.3796,-0.366,-0.3441,-0.3413,-0.3221,-0.3,-0.283,-0.2603,-0.2406,-0.2635,-0.2605,-0.2474,-0.2309,-0.2116,-0.2019,-0.2211,-0.2157,-0.1987,-0.1738,-0.157,-0.1458,-0.1375,-0.1178,-0.0982,-0.0954,-0.0589,-0.0278,-0.0108,0.0186,0.0434,0.0492,0.0671,0.0,0.0,0.1469,0.172,0.2094,0.2479,0.2705,0.0,0.0,0.0,0.0,0.0,0.422,0.4766,0.5229,0.5851,0.6681,0.7344,0.8139,0.9069,0.9532,0.9982,1.0396,1.0907,1.1248,1.1498,1.1934,1.2305,1.2652,1.3033,1.3338,1.3606,1.3691,1.3999,1.4432,1.4723,1.5122,1.559,-0.8072,-0.8072,-0.8089,-0.8147,-0.8023,-0.7774,-0.7405,-0.7342,-0.7229,-0.7021,-0.6881,-0.695,-0.7367,-0.7411,-0.7505,-0.7718,-0.785,-0.79,-0.774,-0.7754,-0.7617,-0.721,-0.7312,-0.7238,-0.6907,-0.7022,-0.6945,-0.6753,-0.6865,-0.6666,-0.6218,-0.6241,-0.6078,-0.5681,-0.5459,-0.5319,-0.5223,-0.516,-0.513,-0.513,-0.513,-0.4826,-0.4397,-0.4397,-0.3992,-0.3491,-0.3491,-0.3383,-0.3244,-0.3193,-0.2998,-0.2775,-0.2663,-0.238,-0.2155,-0.2324,-0.2298,-0.215,-0.2083,-0.1965,-0.1884,-0.2046,-0.1935,-0.1766,-0.1515,-0.1375,-0.1234,-0.1066,-0.0954,-0.0842,-0.0701,-0.0308,0.0028,0.0107,0.0447,0.0733,0.0817,0.0955,0.0,0.1496,0.1772,0.2057,0.2382,0.2852,0.3167,0.3208,0.0,0.0,0.4167,0.4467,0.4763,0.5089,0.5574,0.6233,0.7035,0.7996,0.885,0.9646,1.0072,1.046,1.0863,1.1334,1.1685,1.1965,1.2428,1.2858,1.3285,1.358,1.3911,1.4222,1.4406,1.4782,1.5196,1.547,1.5871,1.6343,-0.7822,-0.7819,-0.7763,-0.7595,-0.7641,-0.7512,-0.6864,-0.6846,-0.6849,-0.6619,-0.6579,-0.6764,-0.7265,-0.7326,-0.7404,-0.7643,-0.7643,-0.7613,-0.7424,-0.7619,-0.7501,-0.6928,-0.7178,-0.7145,-0.6834,-0.6788,-0.6676,-0.6563,-0.6637,-0.6407,-0.5797,-0.5924,-0.5657,-0.5089,-0.5063,-0.496,-0.4797,-0.4797,-0.4797,-0.4797,-0.4797,-0.4476,-0.3997,-0.3997,-0.3639,-0.3102,-0.3102,-0.3077,-0.3049,-0.2914,-0.2775,-0.2635,-0.2465,-0.224,-0.1987,-0.1987,-0.1878,-0.1797,-0.1825,-0.1825,-0.1797,-0.1769,-0.1657,-0.1487,-0.129,-0.1234,-0.1122,-0.0729,-0.0729,-0.0701,-0.0393,-0.0028,0.0249,0.037,0.0641,0.0915,0.1121,0.0,0.1376,0.1654,0.2033,0.2348,0.2527,0.3149,0.3604,0.3766,0.413,0.0,0.0,0.5111,0.5199,0.5322,0.585,0.6542,0.7404,0.8471,0.9305,0.9901,1.0481,1.0979,1.1397,1.174,1.2089,1.2367,1.2889,1.3376,1.386,1.4189,1.4517,1.4804,1.5147,1.5478,1.5788,1.6095,1.6495,1.6874,-0.7458,-0.739,-0.7382,-0.7431,-0.7132,-0.692,-0.7037,-0.6712,-0.6521,-0.6603,-0.6454,-0.6418,-0.6552,-0.6564,-0.6565,-0.6541,-0.6532,-0.6853,-0.7527,-0.7232,-0.6975,-0.682,-0.6853,-0.6752,-0.6416,-0.6173,-0.6135,-0.6335,-0.5986,-0.5781,-0.5723,-0.5461,-0.5216,-0.4999,-0.4879,-0.4831,-0.4797,-0.4797,-0.4797,-0.4797,-0.4797,-0.4476,-0.3997,-0.3997,-0.3639,-0.3102,-0.3102,-0.3023,-0.2916,-0.2775,-0.2635,-0.2465,-0.2183,-0.2043,-0.1987,-0.1852,-0.1825,-0.1825,-0.1933,-0.1878,-0.1769,-0.1657,-0.1487,-0.129,-0.101,-0.0954,-0.087,-0.0505,-0.0364,-0.0252,-0.0084,0.0168,0.0435,0.069,0.0868,0.1058,0.1324,0.0,0.1673,0.2064,0.2354,0.2724,0.3199,0.3798,0.4272,0.4509,0.485,0.5125,0.5331,0.5305,0.5449,0.5858,0.6446,0.7298,0.8367,0.8865,0.95,1.0302,1.0515,1.1015,1.174,1.2243,1.2498,1.259,1.3346,1.3799,1.401,1.4645,1.497,1.5147,1.5498,1.5778,1.6085,1.6524,1.6931,1.7278,-0.6729,-0.6635,-0.6631,-0.6603,-0.648,-0.6315,-0.6157,-0.6,-0.5973,-0.6111,-0.6048,-0.6083,-0.6363,-0.6384,-0.638,-0.6294,-0.6153,-0.6257,-0.6647,-0.6547,-0.6382,-0.6176,-0.6275,-0.6208,-0.5912,-0.5789,-0.579,-0.5869,-0.5641,-0.5492,-0.5386,-0.5216,-0.5013,-0.4784,-0.4721,-0.4631,-0.4531,-0.4531,-0.4531,-0.4531,-0.4428,-0.4126,-0.3778,-0.3622,-0.3322,-0.2926,-0.2817,-0.2745,-0.2663,-0.2493,-0.2352,-0.2212,-0.2043,-0.1961,-0.1878,-0.174,-0.1685,-0.1712,-0.1766,-0.1656,-0.1515,-0.1459,-0.1262,-0.1066,-0.0926,-0.0757,-0.0533,-0.0252,-0.014,0.0,0.0308,0.0589,0.0878,0.123,0.1365,0.0,0.0,0.1858,0.2016,0.2365,0.2722,0.3095,0.3561,0.416,0.4684,0.5053,0.5295,0.5599,0.602,0.5878,0.6001,0.6472,0.6929,0.7619,0.8536,0.8944,0.9511,1.0227,1.0662,1.1211,1.1813,1.2517,1.2911,1.3125,1.3851,1.4359,1.4677,1.5069,1.54,1.572,1.5961,1.6249,1.6524,1.6931,1.7295,1.7673,-0.5995,-0.603,-0.5987,-0.5848,-0.5913,-0.5832,-0.543,-0.5407,-0.5485,-0.5604,-0.5624,-0.5749,-0.6011,-0.6075,-0.6057,-0.5905,-0.576,-0.5666,-0.5639,-0.5763,-0.577,-0.5607,-0.5732,-0.5738,-0.5601,-0.5559,-0.5547,-0.5519,-0.5444,-0.5282,-0.5115,-0.5049,-0.4861,-0.4568,-0.4539,-0.4431,-0.43,-0.43,-0.4267,-0.4228,-0.4033,-0.3761,-0.3432,-0.3206,-0.293,-0.264,-0.2488,-0.2437,-0.2408,-0.2212,-0.2071,-0.1987,-0.1931,-0.1822,-0.1713,-0.1572,-0.1515,-0.1487,-0.1515,-0.1375,-0.1206,-0.1206,-0.0982,-0.0757,-0.0701,-0.0505,-0.0224,0.0084,0.0196,0.0336,0.0729,0.1038,0.1329,0.1643,0.0,0.0,0.0,0.2336,0.2436,0.2804,0.3175,0.3551,0.3923,0.4469,0.5016,0.5452,0.5641,0.5988,0.6579,0.6371,0.6539,0.7128,0.7499,0.7988,0.8651,0.9147,0.9737,1.0414,1.0982,1.16,1.2236,1.2926,1.3381,1.3662,1.435,1.477,1.4984,1.538,1.5766,1.6095,1.6389,1.6658,1.6959,1.7323,1.7673,1.8034,-0.5633,-0.5727,-0.5845,-0.5674,-0.562,-0.562,-0.5601,-0.5446,-0.5303,-0.5339,-0.5368,-0.5336,-0.5033,-0.5173,-0.5124,-0.4747,-0.4895,-0.4924,-0.4797,-0.4959,-0.5229,-0.5601,-0.5607,-0.5607,-0.5598,-0.5401,-0.5395,-0.5583,-0.5237,-0.5048,-0.5095,-0.4834,-0.4643,-0.4487,-0.438,-0.43,-0.43,-0.43,-0.4197,-0.402,-0.3946,-0.3549,-0.3046,-0.2951,-0.2629,-0.2247,-0.2214,-0.2212,-0.2212,-0.2071,-0.2015,-0.1959,-0.171,-0.1628,-0.1572,-0.1375,-0.1234,-0.115,-0.129,-0.1122,-0.0926,-0.0926,-0.0673,-0.0364,-0.0112,-0.0056,0.0112,0.0561,0.0757,0.087,0.1038,0.1347,0.1593,0.1693,0.0,0.0,0.2853,0.2888,0.3044,0.3558,0.3869,0.4141,0.4419,0.4872,0.5341,0.5731,0.5961,0.6248,0.6659,0.6489,0.6856,0.7886,0.8317,0.8709,0.9136,0.9731,1.0472,1.1316,1.1673,1.2399,1.3487,1.3787,1.3941,1.401,1.4795,1.4791,1.4287,1.5542,1.5992,1.5976,1.6546,1.6959,1.7295,1.7728,1.8034,1.8333,-0.4888,-0.4917,-0.4943,-0.4862,-0.4854,-0.4854,-0.4854,-0.4836,-0.4816,-0.4931,-0.4969,-0.5011,-0.4985,-0.4986,-0.4929,-0.4697,-0.4704,-0.4661,-0.4509,-0.4582,-0.4818,-0.521,-0.521,-0.5173,-0.5094,-0.4939,-0.4828,-0.472,-0.4463,-0.4293,-0.4284,-0.4208,-0.413,-0.4053,-0.4012,-0.3995,-0.399,-0.3825,-0.3701,-0.3591,-0.3326,-0.3076,-0.2852,-0.2676,-0.2479,-0.2305,-0.2143,-0.2014,-0.1928,-0.1807,-0.1705,-0.1613,-0.1468,-0.1347,-0.1234,-0.101,-0.0898,-0.0814,-0.0673,-0.0701,-0.0733,-0.0633,-0.037,-0.0085,0.023,0.037,0.0561,0.0982,0.1038,0.1122,0.1459,0.1629,0.1836,0.2138,0.0,0.264,0.3169,0.3221,0.3369,0.3834,0.4167,0.4484,0.4842,0.5298,0.5728,0.6072,0.6328,0.6672,0.7123,0.7628,0.8066,0.8475,0.9285,0.9676,0.9572,1.016,1.0748,1.1357,1.2091,1.2835,1.3562,1.4165,1.442,1.4468,1.4972,1.5217,1.5263,1.5646,1.6186,1.6795,1.6957,1.7301,1.7728,1.8182,1.8452,1.8679,-0.4348,-0.4345,-0.4394,-0.4427,-0.4434,-0.4444,-0.4477,-0.4546,-0.4577,-0.4566,-0.4638,-0.4653,-0.4556,-0.4505,-0.4466,-0.4324,-0.4335,-0.4344,-0.4314,-0.4384,-0.454,-0.4818,-0.4818,-0.4781,-0.4662,-0.4551,-0.4422,-0.4234,-0.4055,-0.3911,-0.3772,-0.3808,-0.3789,-0.3694,-0.3758,-0.3792,-0.3787,-0.3521,-0.3396,-0.3322,-0.2937,-0.2731,-0.2577,-0.238,-0.2237,-0.2113,-0.1951,-0.1802,-0.1665,-0.1557,-0.1447,-0.1322,-0.1206,-0.1026,-0.0852,-0.0731,-0.0617,-0.0477,-0.0224,-0.0252,-0.031,-0.0173,0.0029,0.031,0.0606,0.0798,0.101,0.1375,0.143,0.1485,0.1796,0.1992,0.2188,0.2465,0.2775,0.3147,0.3593,0.3643,0.3827,0.435,0.4605,0.4904,0.5293,0.5599,0.5958,0.6318,0.6606,0.705,0.7745,0.8593,0.9166,0.9457,1.0366,1.0833,1.074,1.0982,1.1451,1.2089,1.2831,1.3518,1.418,1.4768,1.5032,1.5084,1.5469,1.5677,1.5763,1.5955,1.6479,1.7181,1.7385,1.7705,1.8088,1.8602,1.8854,1.9037,-0.4118,-0.427,-0.4415,-0.4482,-0.4501,-0.4537,-0.4684,-0.4703,-0.4578,-0.4321,-0.4365,-0.4203,-0.3664,-0.3612,-0.3578,-0.3495,-0.3684,-0.3882,-0.4079,-0.427,-0.4384,-0.4384,-0.4384,-0.4384,-0.4382,-0.4325,-0.4312,-0.431,-0.4164,-0.3946,-0.3704,-0.3846,-0.3758,-0.3498,-0.3694,-0.3792,-0.3792,-0.3563,-0.3362,-0.3184,-0.2897,-0.2561,-0.2181,-0.2113,-0.1884,-0.1592,-0.1592,-0.1504,-0.1385,-0.1401,-0.1298,-0.115,-0.0973,-0.0678,-0.0439,-0.0623,-0.0449,-0.0168,-0.0028,0.0196,0.0421,0.0393,0.0561,0.0785,0.1038,0.1206,0.1403,0.1741,0.1906,0.2015,0.2015,0.238,0.2663,0.2521,0.3023,0.3595,0.412,0.4194,0.4468,0.5222,0.5293,0.5434,0.5768,0.5795,0.5982,0.6381,0.6712,0.7417,0.8552,0.926,1.0003,1.0877,1.1553,1.2216,1.2797,1.2266,1.2636,1.3799,1.395,1.4569,1.5598,1.5664,1.573,1.5826,1.6371,1.6155,1.5493,1.6557,1.6907,1.6906,1.7759,1.8186,1.8387,1.8963,1.9303,1.9447,-0.3452,-0.3452,-0.3499,-0.3523,-0.3576,-0.3585,-0.3652,-0.388,-0.3976,-0.3703,-0.3875,-0.3881,-0.3501,-0.3526,-0.3603,-0.3576,-0.36,-0.3604,-0.3684,-0.3569,-0.3645,-0.3958,-0.4268,-0.4351,-0.4244,-0.4064,-0.3903,-0.3797,-0.3487,-0.3291,-0.3197,-0.3264,-0.3149,-0.2956,-0.3157,-0.3157,-0.3017,-0.2765,-0.2613,-0.254,-0.2339,-0.2174,-0.2027,-0.1878,-0.1761,-0.1637,-0.1515,-0.1404,-0.1298,-0.111,-0.1002,-0.0846,-0.0521,-0.0413,-0.0343,-0.0029,0.0143,0.0308,0.0673,0.0898,0.0987,0.0808,0.0942,0.1213,0.1528,0.1709,0.189,0.2283,0.2249,0.2227,0.2513,0.2649,0.2745,0.291,0.3438,0.3869,0.4051,0.4435,0.4812,0.5115,0.5459,0.5755,0.6064,0.6305,0.6571,0.6869,0.7643,0.8435,0.9198,1.0128,1.0953,1.1568,1.2205,1.2896,1.3619,1.3398,1.3489,1.395,1.4458,1.4968,1.5487,1.5712,1.5837,1.5887,1.6153,1.6294,1.6387,1.6569,1.707,1.7743,1.7993,1.8456,1.8989,1.9436,1.9759,2.0003,-0.31,-0.3102,-0.311,-0.3178,-0.3221,-0.3272,-0.3331,-0.3544,-0.363,-0.3454,-0.3507,-0.3445,-0.3243,-0.3169,-0.3205,-0.3285,-0.3321,-0.3333,-0.3333,-0.3178,-0.3217,-0.353,-0.3763,-0.3932,-0.4029,-0.3744,-0.3558,-0.3465,-0.3095,-0.287,-0.2802,-0.2771,-0.2656,-0.252,-0.2622,-0.2622,-0.2484,-0.2246,-0.2131,-0.2128,-0.193,-0.1839,-0.1784,-0.1661,-0.1577,-0.1535,-0.1417,-0.1263,-0.1077,-0.0964,-0.0778,-0.0536,-0.0153,0.0,0.0086,0.0432,0.0598,0.0757,0.1094,0.1347,0.147,0.1432,0.1494,0.1673,0.1988,0.2221,0.2411,0.2638,0.2665,0.2689,0.2824,0.2954,0.3081,0.3188,0.3716,0.4135,0.4245,0.4684,0.5069,0.5348,0.5732,0.6055,0.6255,0.6625,0.7052,0.7563,0.8437,0.9248,0.9897,1.0973,1.1831,1.2427,1.3137,1.3761,1.4407,1.4419,1.4449,1.4488,1.5079,1.5478,1.57,1.6085,1.6339,1.6458,1.6639,1.6912,1.7236,1.7252,1.769,1.8383,1.8548,1.8989,1.9566,1.9901,2.0156,2.0397,-0.2945,-0.2984,-0.3043,-0.3145,-0.316,-0.3213,-0.3354,-0.3383,-0.3388,-0.3386,-0.3154,-0.292,-0.2813,-0.2627,-0.2589,-0.2747,-0.2943,-0.3062,-0.3062,-0.3062,-0.3062,-0.3062,-0.3062,-0.3256,-0.3684,-0.341,-0.3251,-0.3281,-0.295,-0.2665,-0.2481,-0.2425,-0.2294,-0.2154,-0.2154,-0.2154,-0.212,-0.1951,-0.1884,-0.185,-0.1681,-0.1555,-0.1519,-0.1483,-0.1389,-0.1264,-0.1229,-0.102,-0.0772,-0.0881,-0.0601,-0.0184,0.0149,0.0443,0.0703,0.0739,0.0928,0.1178,0.1318,0.16,0.1897,0.2167,0.2161,0.2172,0.2465,0.2743,0.2924,0.2878,0.31,0.3263,0.3032,0.3342,0.3583,0.3497,0.3913,0.4359,0.466,0.4963,0.5321,0.5768,0.6069,0.6309,0.6463,0.695,0.7563,0.8395,0.914,0.9861,1.0614,1.171,1.2642,1.3249,1.4112,1.4675,1.4982,1.5313,1.5391,1.5264,1.571,1.5989,1.6171,1.6609,1.7015,1.7362,1.7601,1.781,1.8018,1.8313,1.8583,1.8905,1.9263,1.9656,2.0067,2.0334,2.0535,2.0734,-0.22,-0.2161,-0.2164,-0.2214,-0.2249,-0.2296,-0.2319,-0.2535,-0.2651,-0.2434,-0.2601,-0.2586,-0.2159,-0.2507,-0.2707,-0.2589,-0.2746,-0.2787,-0.2628,-0.2628,-0.2707,-0.2865,-0.2707,-0.2746,-0.3022,-0.3066,-0.3037,-0.2975,-0.2759,-0.251,-0.2276,-0.2244,-0.2062,-0.1748,-0.1884,-0.1884,-0.1715,-0.1681,-0.1681,-0.1648,-0.1614,-0.1574,-0.1529,-0.1237,-0.1112,-0.1097,-0.0781,-0.0625,-0.0537,-0.0293,-0.0031,0.0209,0.0517,0.0631,0.0765,0.1081,0.1318,0.1543,0.1793,0.1989,0.2187,0.2499,0.2741,0.2819,0.2692,0.3036,0.3348,0.3272,0.3378,0.3514,0.3664,0.3731,0.3827,0.3996,0.4332,0.466,0.4818,0.5234,0.5595,0.5923,0.6418,0.6847,0.7079,0.7824,0.8441,0.885,0.9511,1.0189,1.0895,1.2028,1.2802,1.306,1.4243,1.4883,1.4847,1.5598,1.5884,1.5739,1.597,1.6257,1.6666,1.6853,1.7234,1.7772,1.7826,1.8127,1.8598,1.8572,1.8839,1.9289,1.9486,1.9862,2.0359,2.0721,2.108,2.1482,-0.1729,-0.1768,-0.1768,-0.1887,-0.1945,-0.1983,-0.2008,-0.2146,-0.2207,-0.2123,-0.2239,-0.2265,-0.1993,-0.219,-0.2316,-0.2238,-0.2316,-0.2316,-0.2238,-0.2199,-0.2277,-0.2357,-0.2277,-0.2277,-0.2357,-0.2444,-0.2564,-0.2718,-0.2388,-0.2197,-0.214,-0.1939,-0.1705,-0.1509,-0.1523,-0.1413,-0.1212,-0.1212,-0.1179,-0.1077,-0.1077,-0.1077,-0.1042,-0.0829,-0.0798,-0.0773,-0.0563,-0.0466,-0.0336,0.0163,0.0407,0.0543,0.0875,0.1094,0.1267,0.1553,0.1762,0.1905,0.2043,0.2237,0.2459,0.2694,0.3071,0.3343,0.312,0.3398,0.3694,0.3744,0.391,0.4085,0.4177,0.4406,0.4597,0.4543,0.4888,0.5222,0.5321,0.5586,0.595,0.6386,0.6815,0.7348,0.7951,0.8672,0.9178,0.9446,1.0229,1.0939,1.1529,1.2419,1.3192,1.378,1.451,1.5071,1.5429,1.5983,1.6371,1.6673,1.6655,1.6751,1.6909,1.7335,1.7776,1.824,1.8198,1.8603,1.9253,1.9036,1.933,1.9991,2.0105,2.051,2.1019,2.1275,2.1756,2.2296,-0.1296,-0.1415,-0.1493,-0.165,-0.169,-0.1714,-0.1787,-0.1768,-0.1815,-0.1849,-0.1836,-0.1829,-0.1788,-0.1752,-0.1729,-0.1807,-0.1807,-0.1768,-0.1729,-0.1768,-0.1768,-0.1729,-0.1729,-0.1768,-0.1807,-0.1768,-0.196,-0.2378,-0.1998,-0.186,-0.1957,-0.1592,-0.1379,-0.1295,-0.1129,-0.0947,-0.0742,-0.0742,-0.064,-0.0506,-0.0506,-0.0506,-0.0506,-0.0472,-0.0438,-0.0404,-0.0337,-0.0201,0.0033,0.0614,0.0848,0.0914,0.1299,0.1613,0.1866,0.1992,0.2127,0.2242,0.2255,0.2468,0.2691,0.2842,0.3308,0.3714,0.3633,0.3827,0.4055,0.4158,0.4485,0.4747,0.4678,0.5144,0.5448,0.5136,0.5498,0.5854,0.5936,0.6077,0.6408,0.6982,0.7375,0.7978,0.8856,0.9406,0.9803,1.0076,1.092,1.1683,1.2168,1.2907,1.3706,1.4541,1.4936,1.5433,1.603,1.6407,1.6973,1.7645,1.7579,1.7451,1.7262,1.7823,1.8274,1.8608,1.8481,1.8946,1.975,1.948,1.9891,2.0709,2.0908,2.1275,2.1722,2.1935,2.2434,2.3046,-0.051,-0.0628,-0.0746,-0.0786,-0.0786,-0.0793,-0.0855,-0.0856,-0.0863,-0.0885,-0.1034,-0.1058,-0.0895,-0.0956,-0.1139,-0.1375,-0.1375,-0.1296,-0.1061,-0.1257,-0.1296,-0.1061,-0.1021,-0.1139,-0.1375,-0.1139,-0.1322,-0.1903,-0.19,-0.176,-0.1504,-0.1489,-0.1318,-0.0981,-0.0942,-0.0791,-0.0539,-0.0539,-0.0539,-0.0506,-0.0506,-0.0506,-0.0472,-0.0371,-0.0236,-0.0034,0.0269,0.0652,0.103,0.1242,0.1397,0.153,0.1823,0.1978,0.2064,0.2146,0.2296,0.248,0.2524,0.2699,0.291,0.311,0.3548,0.3964,0.4016,0.4268,0.4522,0.454,0.4819,0.5118,0.5324,0.5583,0.578,0.5841,0.6105,0.6361,0.6544,0.6788,0.7112,0.7536,0.8388,0.9099,0.9458,0.988,1.0205,1.0419,1.1201,1.1797,1.2105,1.3736,1.4444,1.4037,1.5693,1.6327,1.5756,1.6922,1.7756,1.8202,1.8455,1.8464,1.8209,1.8011,1.8187,1.8683,1.83,1.8749,1.9696,1.9666,2.0221,2.1155,2.153,2.1841,2.217,2.2723,2.3157,2.353,0.0039,-0.0039,-0.0118,-0.0236,-0.0275,-0.0317,-0.0487,-0.0483,-0.0523,-0.07,-0.0729,-0.0758,-0.0638,-0.0711,-0.0786,-0.0904,-0.0904,-0.0864,-0.0746,-0.0825,-0.0864,-0.0746,-0.0746,-0.0786,-0.0904,-0.0786,-0.086,-0.1121,-0.1407,-0.1477,-0.1331,-0.1213,-0.1003,-0.0716,-0.0705,-0.0553,-0.0404,-0.0404,-0.027,-0.0067,-0.0067,0.0,0.0067,0.0135,0.0269,0.0505,0.084,0.1092,0.1293,0.1525,0.1785,0.1997,0.2047,0.2209,0.2377,0.2429,0.256,0.2737,0.2797,0.3025,0.3256,0.3382,0.3833,0.4245,0.432,0.4663,0.5002,0.4998,0.5207,0.5493,0.5834,0.62,0.6516,0.6611,0.6863,0.7125,0.723,0.7423,0.7797,0.8468,0.9256,0.9862,1.0069,1.048,1.0786,1.1049,1.174,1.235,1.2844,1.3995,1.48,1.5217,1.5769,1.622,1.6526,1.701,1.7549,1.8128,1.8575,1.8898,1.9077,1.8931,1.8918,1.9018,1.8819,1.9294,2.0231,2.007,2.0684,2.1793,2.2114,2.2518,2.292,2.3348,2.3696,2.4015]}]]